[[{"header":{"parameterUnit":"m.s-1","parameterCategory":1,"la1":31.0,"la2":29.5877,"lo1":-88.7671,"lo2":-86.6584,"dy":0.0162,"dx":0.0185,"nx":115,"ny":88,"refTime":"2026-05-09T12:00:00:Z","depth":0,"parameterNumber":2,"parameterNumberName":"U-component_of_WINDS"},"data":[0.0,0.0,0.0,0.0,0.0,0.0,0.0,0.0,0.0,0.0,0.0,0.0,0.0,0.0,0.0,0.0,0.0,0.0,0.0,0.0,0.0,0.0,0.0,0.0,0.0,0.0,0.0,0.0,0.0,0.0,0.0,0.0,0.0,0.0,0.0,0.0,0.0,0.0,0.0,0.0,0.0,0.0,0.0,0.0,0.0,0.0,0.0,0.0,0.0,0.0,0.0,0.0,0.0,0.0,0.0,0.0,0.0,0.0,0.0,0.0,0.0,0.0,0.0,0.0,0.0,0.0,0.0,0.0,0.0,0.0,0.0,0.0,0.0,0.0,0.0,0.0,0.0,0.0,0.0,0.0,0.0,0.0,0.0,0.0,0.0,0.0,0.0,0.0,0.0,0.0,0.0,0.0,0.0,0.0,0.0,0.0,0.0,0.0,0.0,0.0,0.0,0.0,0.0,0.0,0.0,0.0,0.0,0.0,0.0,0.0,0.0,0.0,0.0,0.0,0.0,0.0,0.0,0.0,0.0,0.0,0.0,0.0,0.0,0.0,0.0,0.0,0.0,0.0,0.0,0.0,0.0,0.0,0.0,0.0,0.0,0.0,0.0,0.0,0.0,0.0,0.0,0.0,0.0,0.0,0.0,0.0,0.0,0.0,0.0,0.0,0.0,0.0,0.0,0.0,0.0,0.0,0.0,0.0,0.0,0.0,0.0,0.0,0.0,0.0,0.0,0.0,0.0,0.0,0.0,0.0,0.0,0.0,0.0,0.0,0.0,0.0,0.0,0.0,0.0,0.0,0.0,0.0,0.0,0.0,0.0,0.0,0.0,0.0,0.0,0.0,0.0,0.0,0.0,0.0,0.0,0.0,0.0,0.0,0.0,0.0,0.0,0.0,0.0,0.0,0.0,0.0,0.0,0.0,0.0,0.0,0.0,0.0,0.0,0.0,0.0,0.0,0.0,0.0,0.0,0.0,0.0,0.0,0.0,0.0,0.0,0.0,0.0,0.0,0.0,0.0,0.0,0.0,0.0,0.0,0.0,0.0,0.0,0.0,0.0,0.0,0.0,0.0,0.0,0.0,0.0,0.0,0.0,0.0,0.0,0.0,0.0,0.0,0.0,0.0,0.0,0.0,0.0,0.0,0.0,0.0,0.0,0.0,0.0,0.0,0.0,0.0,0.0,0.0,0.0,0.0,0.0,0.0,0.0,0.0,0.0,0.0,0.0,0.0,0.0,0.0,0.0,0.0,0.0,0.0,0.0,0.0,0.0,0.0,0.0,0.0,0.0,0.0,0.0,0.0,0.0,0.0,0.0,0.0,0.0,0.0,0.0,0.0,0.0,0.0,0.0,0.0,0.0,0.0,0.0,0.0,0.0,0.0,0.0,0.0,0.0,0.0,0.0,0.0,0.0,0.0,0.0,0.0,0.0,0.0,0.0,0.0,0.0,0.0,0.0,0.0,0.0,0.0,0.0,0.0,0.0,0.0,0.0,0.0,0.0,0.0,0.0,0.0,0.0,0.0,0.0,0.0,0.0,0.0,0.0,0.0,0.0,0.0,0.0,0.0,0.0,0.0,0.0,0.0,0.0,0.0,0.0,0.0,0.0,0.0,0.0,0.0,0.0,0.0,0.0,0.0,0.0,0.0,0.0,0.0,0.0,0.0,0.0,0.0,0.0,0.0,0.0,0.0,0.0,0.0,0.0,0.0,0.0,0.0,0.0,0.0,0.0,0.0,0.0,0.0,0.0,0.0,0.0,0.0,0.0,0.0,0.0,0.0,0.0,0.0,0.0,0.0,0.0,0.0,0.0,0.0,0.0,0.0,0.0,0.0,0.0,0.0,0.0,0.0,0.0,0.0,0.0,0.0,0.0,0.0,0.0,0.0,0.0,0.0,0.0,0.0,0.0,0.0,0.0,0.0,0.0,0.0,0.0,0.0,0.0,0.0,0.0,0.0,0.0,0.0,0.0,0.0,0.0,0.0,0.0,0.0,0.0,0.0,0.0,0.0,0.0,0.0,0.0,0.0,0.0,0.0,0.0,0.0,0.0,0.0,0.0,0.0,0.0,0.0,0.0,0.0,0.0,0.0,0.0,0.0,0.0,0.0,0.0,0.0,0.0,0.0,0.0,0.0,0.0,0.0,0.0,0.0,0.0,0.0,0.0,0.0,0.0,0.0,0.0,0.0,0.0,0.0,0.0,0.0,0.0,0.0,0.0,0.0,0.0,0.0,0.0,0.0,0.0,0.0,0.0,0.0,0.0,0.0,0.0,0.0,0.0,0.0,0.0,0.0,0.0,0.0,0.0,0.0,0.0,0.0,0.0,0.0,0.0,0.0,0.0,0.0,0.0,0.0,0.0,0.0,0.0,0.0,0.0,0.0,0.0,0.0,0.0,0.0,0.0,0.0,0.0,0.0,0.0,0.0,0.0,0.0,0.0,0.0,0.0,0.0,0.0,0.0,0.0,0.0,0.0,0.0,0.0,0.0,0.0,0.0,0.0,0.0,0.0,0.0,0.0,0.0,0.0,0.0,0.0,0.0,0.0,0.0,0.0,0.0,0.0,0.0,0.0,0.0,0.0,0.0,0.0,0.0,0.0,0.0,0.0,0.0,0.0,0.0,0.0,0.0,0.0,0.0,0.0,0.0,0.0,0.0,0.0,0.0,0.0,0.0,0.0,0.0,0.0,0.0,0.0,0.0,0.0,0.0,0.0,0.0,0.0,0.0,0.0,0.0,0.0,0.0,0.0,0.0,0.0,0.0,0.0,0.0,0.0,0.0,0.0,0.0,0.0,0.0,0.0,0.0,0.0,0.0,0.0,0.0,0.0,0.0,0.0,0.0,0.0,0.0,0.0,0.0,0.0,0.0,0.0,0.0,0.0,0.0,0.0,0.0,0.0,0.0,0.0,0.0,0.0,0.0,0.0,0.0,0.0,0.0,0.0,0.0,0.0,0.0,0.0,0.0,0.0,0.0,0.0,0.0,0.0,0.0,0.0,0.0,0.0,0.0,0.0,0.0,0.0,0.0,0.0,0.0,0.0,0.0,0.0,0.0,0.0,0.0,0.0,0.0,0.0,0.0,0.0,0.0,0.0,0.0,0.0,0.0,0.0,0.0,0.0,0.0,0.0,0.0,0.0,0.0,0.0,0.0,0.0,0.0,0.0,0.0,0.0,0.0,0.0,0.0,0.0,0.0,0.0,0.0,0.0,0.0,0.0,0.0,0.0,0.0,0.0,0.0,0.0,0.0,0.0,0.0,0.0,0.0,0.0,0.0,0.0,0.0,0.0,0.0,0.0,0.0,0.0,0.0,0.0,0.0,0.0,0.0,0.0,0.0,0.0,0.0,0.0,0.0,0.0,0.0,0.0,0.0,0.0,0.0,0.0,0.0,0.0,0.0,0.0,0.0,0.0,0.0,0.0,0.0,0.0,0.0,0.0,0.0,0.0,0.0,0.0,0.0,0.0,0.0,0.0,0.0,0.0,0.0,0.0,0.0,0.0,0.0,0.0,0.0,0.0,0.0,0.0,0.0,0.0,0.0,0.0,0.0,0.0,0.0,0.0,0.0,0.0,0.0,0.0,0.0,0.0,0.0,0.0,0.0,0.0,0.0,0.0,0.0,0.0,0.0,0.0,0.0,0.0,0.0,0.0,0.0,0.0,0.0,0.0,0.0,0.0,0.0,0.0,0.0,0.0,0.0,0.0,0.0,0.0,0.0,0.0,0.0,0.0,0.0,0.0,0.0,0.0,0.0,0.0,0.0,0.0,0.0,0.0,0.0,0.0,0.0,0.0,0.0,0.0,0.0,0.0,0.0,0.0,0.0,0.0,0.0,0.0,0.0,0.0,0.0,0.0,0.0,0.0,0.0,0.0,0.0,0.0,0.0,0.0,0.0,0.0,0.0,0.0,0.0,0.0,0.0,0.0,0.0,0.0,0.0,0.0,0.0,0.0,0.0,0.0,0.0,0.0,0.0,0.0,0.0,0.0,0.0,0.0,0.0,0.0,0.0,0.0,0.0,0.0,0.0,0.0,0.0,0.0,0.0,0.0,0.0,0.0,0.0,0.0,0.0,0.0,0.0,0.0,0.0,0.0,0.0,0.0,0.0,0.0,0.0,0.0,0.0,0.0,0.0,0.0,0.0,0.0,0.0,0.0,0.0,0.0,0.0,0.0,0.0,0.0,0.0,0.0,0.0,0.0,0.0,0.0,0.0,0.0,0.0,0.0,0.0,0.0,0.0,0.0,0.0,0.0,0.0,0.0,0.0,0.0,0.0,-0.6497,0.0,0.0,0.0,0.0,0.0,0.0,0.0,0.0,0.0,0.0,0.0,0.0,0.0,0.0,0.0,0.0,0.0,0.0,0.0,0.0,0.0,0.0,0.0,0.0,0.0,0.0,0.0,0.0,0.0,0.0,0.0,0.0,0.0,0.0,0.0,0.0,0.0,0.0,0.0,0.0,0.0,0.0,0.0,0.0,0.0,0.0,0.0,0.0,0.0,0.0,0.0,0.0,0.0,0.0,0.0,0.0,0.0,0.0,0.0,0.0,0.0,0.0,0.0,0.0,0.0,0.0,0.0,0.0,0.0,0.0,0.0,0.0,0.0,0.0,0.0,0.0,0.0,0.0,0.0,0.0,0.0,0.0,0.0,0.0,0.0,0.0,0.0,0.0,0.0,0.0,0.0,0.0,0.0,0.0,0.0,0.0,0.0,0.0,0.0,0.0,0.0,0.0,0.0,0.0,0.0,0.0,0.0,0.0,0.0,0.0,-0.2303,-0.4707,-0.668,-0.755,-0.7284,0.0,0.0,0.0,0.0,0.0,0.0,0.0,0.0,0.0,0.0,0.0,0.0,0.0,0.0,0.0,0.0,0.0,0.0,0.0,0.0,0.0,0.0,0.0,0.0,0.0,0.0,0.0,0.0,0.0,0.0,0.0,0.0,0.0,0.0,0.0,0.0,0.0,0.0,0.0,0.0,0.0,0.0,0.0,0.0,0.0,0.0,0.0,0.0,0.0,0.0,0.0,0.0,0.0,0.0,0.0,0.0,0.0,0.0,0.0,0.0,0.0,0.0,0.0,0.0,0.0,0.0,0.0,0.0,0.0,0.0,0.0,0.0,0.0,0.0,0.0,0.0,0.0,0.0,0.0,0.0,0.0,0.0,0.0,0.0,0.0,0.0,0.0,0.0,0.0,0.0,0.0,0.0,0.0,0.0,0.0,0.0,0.0,0.0,0.0,0.0,0.0,0.0,0.0,0.0,0.0,0.0,0.0,0.0,0.0,0.0,0.0,0.0,-0.898,-0.8554,-0.8204,0.0,0.0,0.0,0.0,0.0,0.0,0.0,0.0,0.0,0.0,0.0,0.0,0.0,0.0,0.0,0.0,0.0,0.0,0.0,0.0,0.0,0.0,0.0,0.0,0.0,0.0,0.0,0.0,0.0,0.0,0.0,0.0,0.0,0.0,0.0,0.0,0.0,0.0,0.0,0.0,0.0,0.0,0.0,0.0,0.0,0.0,0.0,0.0,0.0,0.0,0.0,0.0,0.0,0.0,0.0,0.0,0.0,0.0,0.0,0.0,0.0,0.0,0.0,0.0,0.0,0.0,0.0,0.0,0.0,0.0,0.0,0.0,0.0,0.0,0.0,0.0,0.0,0.0,0.0,0.0,0.0,0.0,0.0,0.0,0.0,0.0,0.0,0.0,0.0,0.0,0.0,0.0,0.0,0.0,0.0,0.0,0.0,0.0,0.0,0.0,0.0,0.0,0.0,0.0,0.0,0.0,0.0,0.0,0.0,0.0,-1.0537,-1.1744,-1.0816,0.0,-0.9785,0.0,0.0,0.0,0.0,0.0,0.0,0.0,0.0,0.0,0.0,0.0,0.0,0.0,0.0,0.0,0.0,0.0,0.0,0.0,0.0,0.0,0.0,0.0,0.0,0.0,0.0,0.0,0.0,0.0,0.0,0.0,0.0,0.0,0.0,0.0,0.0,0.0,0.0,0.0,0.0,0.0,0.0,0.0,0.0,0.0,0.0,0.0,0.0,0.0,0.0,0.0,0.0,0.0,0.0,0.0,0.0,0.0,0.0,0.0,0.0,0.0,0.0,0.0,0.0,0.0,0.0,0.0,0.0,0.0,0.0,0.0,0.0,0.0,0.0,0.0,0.0,0.0,0.0,0.0,0.0,0.0,0.0,0.0,0.0,0.0,0.0,0.0,0.0,0.0,0.0,0.0,0.0,0.0,0.0,0.0,0.0,0.0,0.0,0.0,0.0,0.0,0.0,0.0,0.0,0.0,0.0,0.0,0.0,0.0,0.0,-1.1167,-1.2621,-1.1957,-1.1386,0.0,0.0,0.0,0.0,0.0,0.0,0.0,0.0,0.0,0.0,0.0,0.0,0.0,0.0,0.0,0.0,0.0,0.0,0.0,0.0,0.0,0.0,0.0,0.0,0.0,0.0,0.0,0.0,0.0,0.0,0.0,0.0,0.0,0.0,0.0,0.0,0.0,0.0,0.0,0.0,0.0,0.0,0.0,0.0,0.0,0.0,0.0,0.0,0.0,0.0,0.0,0.0,0.0,0.0,0.0,0.0,0.0,0.0,0.0,0.0,0.0,0.0,0.0,0.0,0.0,0.0,0.0,0.0,0.0,0.0,0.0,0.0,0.0,0.0,0.0,0.0,0.0,0.0,0.0,0.0,0.0,0.0,0.0,0.0,0.0,0.0,0.0,0.0,0.0,0.0,0.0,0.0,0.0,0.0,0.0,0.0,0.0,0.0,0.0,0.0,0.0,0.0,0.0,0.0,0.0,0.0,0.0,0.0,0.0,0.0,-1.169,-1.2361,-1.3948,-1.3506,-1.2857,-1.2007,0.0,0.0,0.0,0.0,0.0,0.0,0.0,0.0,0.0,0.0,0.0,0.0,0.0,0.0,0.0,0.0,0.0,0.0,0.0,0.0,0.0,0.0,0.0,0.0,0.0,0.0,0.0,0.0,0.0,0.0,0.0,0.0,0.0,0.0,0.0,0.0,0.0,0.0,0.0,0.0,0.0,0.0,0.0,0.0,0.0,0.0,0.0,0.0,0.0,0.0,0.0,0.0,0.0,0.0,0.0,0.0,0.0,0.0,0.0,0.0,0.0,0.0,0.0,0.0,0.0,0.0,0.0,0.0,0.0,0.0,0.0,0.0,0.0,0.0,0.0,0.0,0.0,0.0,0.0,0.0,0.0,0.0,0.0,0.0,0.0,0.0,0.0,0.0,0.0,0.0,0.0,0.0,0.0,0.0,0.0,0.0,0.0,0.0,0.0,0.0,0.0,0.0,0.0,0.0,0.0,0.0,0.0,0.0,0.0,-1.3253,-1.4923,-1.6576,-1.5746,-1.4685,0.0,0.0,0.0,0.0,0.0,0.0,0.0,0.0,0.0,0.0,0.0,0.0,0.0,0.0,0.0,0.0,0.0,0.0,0.0,0.0,0.0,0.0,0.0,0.0,0.0,0.0,0.0,0.0,0.0,0.0,0.0,0.0,0.0,0.0,0.0,0.0,0.0,0.0,0.0,0.0,0.0,0.0,0.0,0.0,0.0,0.0,0.0,0.0,0.0,0.0,0.0,0.0,0.0,0.0,0.0,0.0,0.0,0.0,0.0,0.0,0.0,0.0,0.0,0.0,0.0,0.0,0.0,0.0,0.0,0.0,0.0,0.0,0.0,0.0,0.0,0.0,0.0,0.0,0.0,0.0,0.0,0.0,0.0,0.0,0.0,0.0,0.0,0.0,0.0,0.0,0.0,0.0,0.0,0.0,0.0,0.0,0.0,0.0,0.0,0.0,0.0,0.0,0.0,0.0,0.0,0.0,0.0,0.0,0.0,-1.3987,-1.5591,-1.6842,-1.7757,-1.6591,-1.5763,0.0,0.0,0.0,0.0,0.0,0.0,0.0,0.0,0.0,0.0,0.0,0.0,0.0,0.0,0.0,0.0,0.0,0.0,0.0,0.0,0.0,0.0,0.0,0.0,0.0,0.0,0.0,0.0,0.0,0.0,0.0,0.0,0.0,0.0,0.0,0.0,0.0,0.0,0.0,0.0,0.0,0.0,0.0,0.0,0.0,0.0,0.0,0.0,0.0,0.0,0.0,0.0,0.0,0.0,0.0,0.0,0.0,0.0,0.0,0.0,0.0,0.0,0.0,0.0,0.0,0.0,0.0,0.0,0.0,0.0,0.0,0.0,0.0,0.0,0.0,0.0,0.0,0.0,0.0,0.0,0.0,0.0,0.0,0.0,0.0,0.0,0.0,0.0,0.0,0.0,0.0,0.0,0.0,0.0,0.0,0.0,0.0,0.0,0.0,0.0,0.0,0.0,0.0,0.0,0.0,0.0,0.0,0.0,0.0,-1.5914,0.0,-1.865,0.0,-1.7714,-1.695,0.0,0.0,0.0,0.0,0.0,0.0,0.0,0.0,0.0,0.0,0.0,0.0,0.0,0.0,0.0,0.0,0.0,0.0,0.0,0.0,0.0,0.0,0.0,0.0,0.0,0.0,0.0,0.0,0.0,0.0,0.0,0.0,0.0,0.0,0.0,0.0,0.0,0.0,0.0,0.0,0.0,0.0,0.0,0.0,0.0,0.0,0.0,0.0,0.0,0.0,0.0,0.0,0.0,0.0,0.0,0.0,0.0,0.0,0.0,0.0,0.0,0.0,0.0,0.0,0.0,0.0,0.0,0.0,0.0,0.0,0.0,0.0,0.0,0.0,0.0,0.0,0.0,0.0,0.0,0.0,0.0,0.0,0.0,0.0,0.0,0.0,0.0,0.0,0.0,0.0,0.0,0.0,0.0,0.0,0.0,0.0,0.0,0.0,0.0,0.0,0.0,0.0,0.0,0.0,0.0,0.0,0.0,0.0,-1.5308,-1.7466,-1.9483,-2.0265,-1.9749,-1.9158,-1.84,0.0,0.0,0.0,0.0,0.0,0.0,0.0,0.0,0.0,0.0,0.0,0.0,0.0,0.0,0.0,0.0,0.0,0.0,0.0,0.0,0.0,0.0,0.0,0.0,0.0,0.0,0.0,0.0,0.0,0.0,0.0,0.0,0.0,0.0,0.0,0.0,0.0,0.0,0.0,0.0,0.0,0.0,0.0,0.0,0.0,0.0,0.0,0.0,0.0,0.0,0.0,0.0,0.0,0.0,0.0,0.0,0.0,0.0,0.0,0.0,0.0,0.0,0.0,0.0,0.0,0.0,0.0,0.0,0.0,0.0,0.0,0.0,0.0,0.0,0.0,0.0,0.0,0.0,0.0,0.0,0.0,0.0,0.0,0.0,0.0,0.0,0.0,0.0,0.0,0.0,0.0,0.0,0.0,0.0,0.0,0.0,0.0,0.0,0.0,0.0,0.0,0.0,0.0,0.0,0.0,0.0,0.0,0.0,0.0,-1.8996,-2.0153,-2.0847,-2.1019,-2.014,-1.9292,0.0,0.0,0.0,0.0,0.0,0.0,0.0,0.0,0.0,0.0,0.0,0.0,0.0,0.0,0.0,0.0,0.0,0.0,0.0,0.0,0.0,0.0,0.0,0.0,0.0,0.0,0.0,0.0,0.0,0.0,0.0,0.0,0.0,0.0,0.0,0.0,0.0,0.0,0.0,0.0,0.0,0.0,0.0,0.0,0.0,0.0,0.0,0.0,0.0,0.0,0.0,0.0,0.0,0.0,0.0,0.0,0.0,0.0,0.0,0.0,0.0,0.0,0.0,0.0,0.0,0.0,0.0,0.0,0.0,0.0,0.0,0.0,0.0,0.0,0.0,0.0,0.0,0.0,0.0,0.0,0.0,0.0,0.0,0.0,0.0,0.0,0.0,0.0,0.0,0.0,0.0,0.0,0.0,0.0,0.0,0.0,0.0,0.0,0.0,0.0,0.0,0.0,0.0,0.0,0.0,0.0,0.0,0.0,0.0,-2.0951,-2.1339,-2.1662,-2.1983,-2.0694,-1.9672,-1.8975,0.0,0.0,0.0,0.0,0.0,0.0,0.0,0.0,0.0,0.0,0.0,0.0,0.0,0.0,0.0,0.0,0.0,0.0,0.0,0.0,0.0,0.0,0.0,0.0,0.0,0.0,0.0,0.0,0.0,0.0,0.0,0.0,0.0,0.0,0.0,0.0,0.0,0.0,0.0,0.0,0.0,0.0,0.0,0.0,0.0,0.0,0.0,0.0,0.0,0.0,0.0,0.0,0.0,0.0,0.0,0.0,0.0,0.0,0.0,0.0,0.0,0.0,0.0,0.0,0.0,0.0,0.0,0.0,0.0,0.0,0.0,0.0,0.0,0.0,0.0,0.0,0.0,0.0,0.0,0.0,0.0,0.0,0.0,0.0,0.0,0.0,0.0,0.0,0.0,0.0,0.0,0.0,0.0,0.0,0.0,0.0,0.0,0.0,0.0,0.0,0.0,0.0,0.0,0.0,0.0,0.0,0.0,0.0,-2.3077,-2.2854,-2.2621,-2.2449,-2.0994,-1.9754,0.0,0.0,0.0,0.0,0.0,0.0,0.0,0.0,0.0,0.0,0.0,0.0,0.0,0.0,0.0,0.0,0.0,0.0,0.0,0.0,0.0,0.0,0.0,0.0,0.0,0.0,0.0,0.0,0.0,0.0,0.0,0.0,0.0,0.0,0.0,0.0,0.0,0.0,0.0,0.0,0.0,0.0,0.0,0.0,0.0,0.0,0.0,0.0,0.0,0.0,0.0,0.0,0.0,0.0,0.0,0.0,0.0,0.0,0.0,0.0,0.0,0.0,0.0,0.0,0.0,0.0,0.0,0.0,0.0,0.0,0.0,0.0,0.0,0.0,0.0,0.0,0.0,0.0,0.0,0.0,0.0,0.0,0.0,0.0,0.0,0.0,0.0,0.0,0.0,0.0,0.0,0.0,0.0,0.0,0.0,0.0,0.0,0.0,0.0,0.0,0.0,0.0,0.0,0.0,0.0,0.0,0.0,0.0,0.0,-2.3026,-2.3038,-2.3025,-2.3046,-2.1913,-2.0965,0.0,0.0,0.0,0.0,0.0,0.0,0.0,0.0,0.0,0.0,0.0,0.0,0.0,0.0,0.0,0.0,0.0,0.0,0.0,0.0,0.0,0.0,0.0,0.0,0.0,0.0,0.0,0.0,0.0,0.0,0.0,0.0,0.0,0.0,0.0,0.0,0.0,0.0,0.0,0.0,0.0,0.0,0.0,0.0,0.0,0.0,0.0,0.0,0.0,0.0,0.0,0.0,0.0,0.0,0.0,0.0,0.0,0.0,0.0,0.0,0.0,0.0,0.0,0.0,0.0,0.0,0.0,0.0,0.0,0.0,0.0,0.0,0.0,0.0,0.0,0.0,0.0,0.0,0.0,0.0,0.0,0.0,0.0,0.0,0.0,0.0,0.0,0.0,0.0,0.0,0.0,0.0,0.0,0.0,0.0,0.0,0.0,0.0,0.0,0.0,0.0,0.0,0.0,0.0,0.0,0.0,0.0,0.0,-2.1761,-2.321,-2.3233,-2.3215,-2.3192,-2.2475,-2.1585,0.0,0.0,0.0,0.0,0.0,0.0,0.0,0.0,0.0,0.0,0.0,0.0,0.0,0.0,0.0,0.0,0.0,0.0,0.0,0.0,0.0,0.0,0.0,0.0,0.0,0.0,0.0,0.0,0.0,0.0,0.0,0.0,0.0,0.0,0.0,0.0,0.0,0.0,0.0,0.0,0.0,0.0,0.0,0.0,0.0,0.0,0.0,0.0,0.0,0.0,0.0,0.0,0.0,0.0,0.0,0.0,0.0,0.0,0.0,0.0,0.0,0.0,0.0,0.0,0.0,0.0,0.0,0.0,0.0,0.0,0.0,0.0,0.0,0.0,0.0,0.0,0.0,0.0,0.0,0.0,0.0,0.0,0.0,0.0,0.0,0.0,0.0,0.0,0.0,0.0,0.0,0.0,0.0,0.0,0.0,0.0,0.0,0.0,0.0,0.0,0.0,0.0,0.0,0.0,0.0,0.0,0.0,0.0,-2.2489,-2.3386,-2.3476,-2.3383,-2.3067,-2.2732,-2.1766,0.0,0.0,0.0,0.0,0.0,0.0,0.0,0.0,0.0,0.0,0.0,0.0,0.0,0.0,0.0,0.0,0.0,0.0,0.0,0.0,0.0,0.0,0.0,0.0,0.0,0.0,0.0,0.0,0.0,0.0,0.0,0.0,0.0,0.0,0.0,0.0,0.0,0.0,0.0,0.0,0.0,0.0,0.0,0.0,0.0,0.0,0.0,0.0,0.0,0.0,0.0,0.0,0.0,0.0,0.0,0.0,0.0,0.0,0.0,0.0,0.0,0.0,0.0,0.0,0.0,0.0,0.0,0.0,0.0,0.0,0.0,0.0,0.0,0.0,0.0,0.0,0.0,0.0,0.0,0.0,0.0,0.0,0.0,0.0,0.0,0.0,0.0,0.0,0.0,0.0,0.0,0.0,0.0,0.0,0.0,0.0,0.0,0.0,0.0,0.0,0.0,0.0,0.0,0.0,0.0,0.0,0.0,0.0,-2.2884,-2.3374,-2.3989,-2.4034,-2.3537,-2.2776,-2.1864,0.0,0.0,0.0,0.0,0.0,0.0,0.0,0.0,0.0,0.0,0.0,0.0,0.0,0.0,0.0,0.0,0.0,0.0,0.0,0.0,0.0,0.0,0.0,0.0,0.0,0.0,0.0,0.0,0.0,0.0,0.0,0.0,0.0,0.0,0.0,0.0,0.0,0.0,0.0,0.0,0.0,0.0,0.0,0.0,0.0,0.0,0.0,0.0,-1.1606,0.0,0.0,0.0,0.0,0.0,0.0,0.0,0.0,0.0,0.0,0.0,0.0,0.0,0.0,0.0,0.0,0.0,0.0,0.0,0.0,0.0,0.0,0.0,0.0,0.0,0.0,0.0,0.0,0.0,0.0,0.0,0.0,0.0,0.0,0.0,0.0,0.0,0.0,0.0,0.0,0.0,0.0,0.0,0.0,0.0,0.0,0.0,0.0,0.0,0.0,0.0,0.0,0.0,0.0,0.0,0.0,0.0,0.0,0.0,-2.3324,-2.3086,-2.3801,-2.4065,-2.3704,-2.3343,-2.2552,0.0,0.0,0.0,0.0,0.0,0.0,0.0,0.0,0.0,0.0,0.0,0.0,0.0,0.0,0.0,0.0,0.0,0.0,0.0,0.0,0.0,0.0,0.0,0.0,0.0,0.0,0.0,0.0,0.0,0.0,0.0,0.0,0.0,0.0,0.0,0.0,0.0,0.0,0.0,0.0,0.0,0.0,0.0,0.0,0.0,0.0,0.0,0.0,0.0,0.0,0.0,0.0,0.0,0.0,0.0,0.0,0.0,0.0,0.0,0.0,0.0,0.0,0.0,0.0,0.0,0.0,0.0,0.0,0.0,0.0,0.0,0.0,0.0,0.0,0.0,0.0,0.0,0.0,0.0,0.0,0.0,0.0,0.0,0.0,0.0,0.0,0.0,0.0,0.0,0.0,0.0,0.0,0.0,0.0,0.0,0.0,0.0,0.0,0.0,0.0,0.0,0.0,0.0,0.0,0.0,0.0,0.0,-2.4017,-2.3804,-2.2781,-2.35,-2.3832,-2.3704,-2.3939,-2.3313,-2.1641,0.0,0.0,0.0,0.0,0.0,0.0,0.0,0.0,0.0,0.0,0.0,0.0,0.0,0.0,0.0,0.0,0.0,0.0,0.0,0.0,0.0,0.0,0.0,0.0,0.0,0.0,0.0,0.0,0.0,0.0,0.0,0.0,0.0,0.0,0.0,0.0,0.0,0.0,-1.1015,-1.1935,0.0,0.0,0.0,0.0,0.0,0.0,0.0,0.0,-1.2891,0.0,0.0,0.0,0.0,0.0,0.0,0.0,0.0,0.0,0.0,0.0,0.0,0.0,0.0,0.0,0.0,0.0,0.0,0.0,0.0,0.0,0.0,0.0,0.0,0.0,0.0,0.0,0.0,0.0,0.0,0.0,0.0,0.0,0.0,0.0,0.0,0.0,0.0,0.0,0.0,0.0,0.0,0.0,0.0,0.0,0.0,0.0,0.0,0.0,0.0,0.0,0.0,0.0,0.0,0.0,0.0,-2.4056,-2.4591,-2.4153,-2.2747,-2.3485,-2.3846,-2.3704,-2.3955,-2.3134,-2.1158,0.0,0.0,0.0,0.0,0.0,0.0,0.0,0.0,0.0,0.0,0.0,0.0,0.0,0.0,0.0,0.0,0.0,0.0,0.0,0.0,0.0,0.0,0.0,0.0,0.0,0.0,0.0,0.0,0.0,0.0,0.0,0.0,0.0,0.0,0.0,0.0,0.0,0.0,0.0,-1.2743,-1.286,0.0,0.0,0.0,0.0,0.0,0.0,0.0,0.0,-1.2968,0.0,0.0,0.0,0.0,0.0,0.0,0.0,0.0,0.0,0.0,0.0,0.0,0.0,0.0,0.0,0.0,0.0,0.0,0.0,0.0,0.0,0.0,0.0,0.0,0.0,0.0,0.0,0.0,0.0,0.0,0.0,0.0,0.0,0.0,0.0,0.0,0.0,0.0,0.0,0.0,0.0,0.0,0.0,0.0,0.0,0.0,0.0,0.0,0.0,0.0,0.0,0.0,0.0,0.0,0.0,-2.4247,-2.4505,-2.4094,-2.3017,-2.3717,-2.3816,-2.321,-2.3451,-2.2586,0.0,0.0,0.0,0.0,0.0,0.0,0.0,0.0,0.0,0.0,0.0,0.0,0.0,0.0,0.0,0.0,0.0,0.0,0.0,0.0,0.0,0.0,0.0,0.0,0.0,0.0,0.0,0.0,0.0,0.0,0.0,0.0,0.0,0.0,0.0,0.0,0.0,0.0,0.0,0.0,-1.3152,-1.3382,-1.3508,0.0,0.0,0.0,0.0,0.0,0.0,-1.3589,-1.3504,0.0,0.0,0.0,0.0,0.0,0.0,0.0,0.0,0.0,0.0,0.0,0.0,0.0,0.0,0.0,0.0,0.0,0.0,0.0,0.0,0.0,0.0,0.0,0.0,0.0,0.0,0.0,0.0,0.0,0.0,0.0,0.0,0.0,0.0,0.0,0.0,0.0,0.0,0.0,0.0,0.0,0.0,0.0,0.0,0.0,0.0,0.0,0.0,0.0,0.0,0.0,0.0,0.0,0.0,0.0,-2.4147,-2.4314,-2.3997,-2.3271,-2.3927,-2.3744,-2.2604,-2.2812,-2.187,0.0,0.0,0.0,0.0,0.0,0.0,0.0,0.0,0.0,0.0,0.0,0.0,0.0,0.0,0.0,0.0,0.0,0.0,0.0,0.0,0.0,0.0,0.0,0.0,0.0,0.0,0.0,0.0,0.0,0.0,0.0,0.0,0.0,0.0,0.0,0.0,0.0,0.0,0.0,0.0,0.0,-1.3952,-1.4294,-1.4039,0.0,0.0,0.0,0.0,-1.4595,-1.4307,0.0,0.0,0.0,0.0,0.0,0.0,0.0,0.0,0.0,0.0,0.0,0.0,0.0,0.0,0.0,0.0,0.0,0.0,0.0,0.0,0.0,0.0,0.0,0.0,0.0,0.0,0.0,0.0,0.0,0.0,0.0,0.0,0.0,0.0,0.0,0.0,0.0,0.0,0.0,0.0,0.0,0.0,0.0,0.0,0.0,0.0,0.0,0.0,0.0,0.0,0.0,0.0,0.0,0.0,0.0,0.0,-2.3715,-2.4374,-2.4241,-2.3307,-2.3932,-2.3612,-2.213,-2.2279,-2.1147,0.0,0.0,0.0,0.0,0.0,0.0,0.0,0.0,0.0,0.0,0.0,0.0,0.0,0.0,0.0,0.0,0.0,0.0,0.0,0.0,0.0,0.0,0.0,0.0,0.0,0.0,0.0,0.0,0.0,0.0,0.0,0.0,0.0,0.0,0.0,0.0,0.0,0.0,0.0,0.0,0.0,-1.411,-1.5054,-1.4428,-1.4072,0.0,0.0,-1.4072,-1.4631,-1.4649,0.0,0.0,0.0,0.0,0.0,0.0,0.0,0.0,0.0,0.0,0.0,0.0,0.0,0.0,0.0,0.0,0.0,0.0,0.0,0.0,0.0,0.0,0.0,0.0,0.0,0.0,0.0,0.0,0.0,0.0,0.0,0.0,0.0,0.0,0.0,0.0,0.0,0.0,0.0,0.0,0.0,0.0,0.0,0.0,0.0,0.0,0.0,0.0,0.0,0.0,0.0,0.0,0.0,0.0,0.0,-2.3066,-2.3377,-2.3714,-2.3859,-2.3823,-2.3695,-2.3304,-2.2671,-2.1812,-2.0318,0.0,0.0,0.0,0.0,0.0,0.0,0.0,0.0,0.0,0.0,0.0,0.0,0.0,0.0,0.0,0.0,0.0,0.0,0.0,0.0,0.0,0.0,0.0,0.0,0.0,0.0,0.0,0.0,0.0,0.0,0.0,0.0,0.0,0.0,0.0,0.0,0.0,0.0,0.0,0.0,0.0,0.0,-1.582,-1.5342,0.0,0.0,0.0,-1.4716,-1.5584,0.0,0.0,0.0,0.0,0.0,0.0,0.0,0.0,0.0,0.0,0.0,0.0,0.0,0.0,0.0,0.0,0.0,0.0,0.0,0.0,0.0,0.0,0.0,0.0,0.0,0.0,0.0,0.0,0.0,0.0,0.0,0.0,0.0,0.0,0.0,0.0,0.0,0.0,0.0,0.0,0.0,0.0,0.0,0.0,0.0,0.0,0.0,0.0,0.0,0.0,0.0,0.0,0.0,0.0,0.0,0.0,0.0,-2.3189,-2.3275,-2.3495,-2.3821,-2.3372,-2.2833,-2.2224,-2.1063,0.0,0.0,0.0,0.0,0.0,0.0,0.0,0.0,0.0,0.0,0.0,0.0,0.0,0.0,0.0,0.0,0.0,0.0,0.0,0.0,0.0,0.0,0.0,0.0,0.0,0.0,0.0,-0.7738,0.0,0.0,0.0,0.0,0.0,0.0,0.0,0.0,0.0,0.0,0.0,0.0,0.0,0.0,-1.5312,-1.6333,-1.5976,-1.5849,0.0,0.0,-1.538,-1.6348,-1.5764,-1.5441,0.0,0.0,0.0,0.0,0.0,0.0,0.0,0.0,0.0,0.0,0.0,0.0,0.0,0.0,0.0,0.0,0.0,0.0,0.0,0.0,0.0,0.0,0.0,0.0,0.0,0.0,0.0,0.0,0.0,0.0,0.0,0.0,0.0,0.0,0.0,0.0,0.0,0.0,0.0,0.0,0.0,0.0,0.0,0.0,0.0,0.0,0.0,0.0,0.0,0.0,0.0,0.0,0.0,0.0,0.0,-2.3212,-2.3521,-2.3358,-2.2746,-2.3026,-2.2118,-1.9908,-1.9891,-1.8617,0.0,0.0,0.0,0.0,0.0,0.0,0.0,0.0,0.0,0.0,0.0,0.0,0.0,0.0,0.0,0.0,0.0,0.0,0.0,0.0,0.0,0.0,0.0,0.0,0.0,0.0,0.0,0.0,0.0,0.0,0.0,0.0,0.0,0.0,0.0,0.0,0.0,0.0,0.0,0.0,0.0,-1.576,-1.6434,-1.6039,-1.589,0.0,0.0,-1.584,-1.6391,-1.6454,-1.6213,-1.5736,0.0,0.0,0.0,0.0,0.0,0.0,0.0,0.0,0.0,0.0,0.0,0.0,0.0,0.0,0.0,0.0,0.0,0.0,0.0,0.0,0.0,0.0,0.0,0.0,0.0,0.0,0.0,0.0,0.0,0.0,0.0,0.0,0.0,0.0,0.0,0.0,0.0,0.0,0.0,0.0,0.0,0.0,0.0,0.0,0.0,0.0,0.0,0.0,0.0,0.0,0.0,0.0,0.0,-2.2785,-2.3189,-2.3329,-2.3351,-2.324,-2.2736,-2.1926,-2.0911,-1.9962,-1.8368,0.0,0.0,0.0,0.0,0.0,0.0,0.0,0.0,0.0,0.0,0.0,0.0,0.0,0.0,0.0,0.0,0.0,0.0,0.0,0.0,0.0,0.0,0.0,0.0,0.0,0.0,0.0,0.0,-1.0326,-1.0625,-1.126,0.0,0.0,0.0,0.0,0.0,0.0,0.0,0.0,0.0,0.0,-1.58,-1.6393,-1.6341,0.0,0.0,-1.6333,-1.6271,-1.6484,-1.6517,-1.6417,-1.6164,-1.6164,0.0,0.0,0.0,0.0,0.0,0.0,0.0,0.0,0.0,0.0,0.0,0.0,0.0,0.0,0.0,0.0,0.0,0.0,0.0,0.0,0.0,0.0,0.0,0.0,0.0,0.0,0.0,0.0,0.0,0.0,0.0,0.0,0.0,0.0,0.0,0.0,0.0,0.0,0.0,0.0,0.0,0.0,0.0,0.0,0.0,0.0,0.0,0.0,0.0,0.0,0.0,0.0,-2.265,-2.3189,-2.3191,-2.3247,-2.3402,-2.2118,-2.1247,-2.072,-1.914,-1.7583,0.0,0.0,0.0,0.0,0.0,0.0,0.0,0.0,0.0,0.0,0.0,0.0,0.0,0.0,0.0,0.0,0.0,0.0,0.0,0.0,0.0,0.0,0.0,0.0,0.0,0.0,0.0,0.0,-1.0864,-1.1084,-1.1557,0.0,0.0,0.0,0.0,0.0,0.0,0.0,0.0,0.0,0.0,-1.5996,-1.6423,-1.6534,-1.6534,-1.6534,-1.6534,-1.6534,-1.6534,-1.6667,-1.6701,-1.6532,0.0,0.0,0.0,0.0,0.0,0.0,0.0,0.0,0.0,0.0,0.0,0.0,0.0,0.0,0.0,0.0,0.0,0.0,0.0,0.0,0.0,0.0,0.0,0.0,0.0,0.0,0.0,-0.4278,0.0,0.0,-0.6411,0.0,0.0,0.0,0.0,0.0,0.0,0.0,0.0,0.0,0.0,0.0,0.0,0.0,0.0,0.0,0.0,0.0,0.0,0.0,0.0,0.0,0.0,-2.2349,-2.3171,-2.3168,-2.3034,-2.2647,-2.1099,-1.976,-1.8714,-1.724,-1.5928,-1.4732,0.0,0.0,0.0,0.0,0.0,0.0,0.0,0.0,0.0,0.0,0.0,0.0,0.0,0.0,0.0,0.0,0.0,0.0,0.0,0.0,0.0,0.0,0.0,0.0,0.0,0.0,-1.0913,-1.0918,-1.1084,0.0,0.0,0.0,0.0,0.0,0.0,0.0,0.0,0.0,0.0,-1.5731,-1.6479,-1.6534,-1.6534,-1.6516,-1.6559,-1.6572,-1.6559,-1.6572,-1.6982,-1.7188,0.0,0.0,0.0,0.0,0.0,0.0,0.0,0.0,0.0,0.0,0.0,0.0,0.0,0.0,0.0,0.0,0.0,0.0,0.0,0.0,0.0,0.0,0.0,0.0,0.0,0.0,0.0,-0.9176,-0.6869,0.0,0.0,0.0,0.0,0.0,0.0,0.0,0.0,0.0,0.0,0.0,-1.474,-1.5655,0.0,0.0,0.0,0.0,0.0,0.0,0.0,0.0,0.0,0.0,0.0,0.0,-2.192,-2.2463,-2.2693,-2.2099,-2.0655,-2.01,-1.8945,-1.7201,-1.6659,-1.5097,-1.2282,0.0,0.0,0.0,0.0,0.0,0.0,0.0,0.0,0.0,0.0,0.0,0.0,0.0,0.0,0.0,0.0,0.0,0.0,0.0,0.0,0.0,0.0,0.0,0.0,0.0,-1.1445,0.0,0.0,0.0,0.0,0.0,0.0,0.0,0.0,0.0,0.0,0.0,-1.5652,-1.5855,-1.6244,-1.6753,-1.7505,-1.7321,-1.7225,0.0,0.0,0.0,0.0,0.0,0.0,0.0,0.0,0.0,0.0,0.0,0.0,0.0,0.0,-1.8573,-1.8269,-1.8204,-1.8204,-1.8204,0.0,0.0,0.0,0.0,0.0,0.0,0.0,0.0,0.0,0.0,0.0,0.0,0.0,0.0,-1.2497,0.0,-1.0815,0.0,0.0,0.0,0.0,0.0,0.0,0.0,0.0,-1.5714,-1.5867,-1.5697,-1.6487,-1.6331,0.0,-1.6236,-1.6142,0.0,0.0,0.0,0.0,0.0,0.0,0.0,0.0,-2.1635,-2.2283,-2.2322,-2.149,-1.9842,-1.8931,-1.7463,-1.5452,-1.458,-1.2878,-1.0114,-0.9506,-0.8477,0.0,0.0,0.0,0.0,0.0,0.0,0.0,0.0,0.0,0.0,0.0,0.0,0.0,0.0,0.0,0.0,0.0,0.0,0.0,0.0,0.0,0.0,0.0,-1.1686,0.0,0.0,0.0,0.0,0.0,0.0,0.0,0.0,0.0,-1.592,-1.5908,-1.6051,-1.6423,-1.6534,-1.6753,-1.7492,0.0,0.0,0.0,0.0,0.0,0.0,0.0,-1.8141,-1.7953,-1.7966,-1.8179,-1.8871,-1.8869,-1.89,-1.9408,0.0,0.0,-1.8882,-1.8756,-1.8756,-1.8769,-1.9058,-1.9183,-1.8832,-1.9045,-1.9196,0.0,0.0,0.0,0.0,0.0,0.0,0.0,0.0,-1.2357,-1.544,0.0,-1.3488,0.0,0.0,0.0,0.0,0.0,-1.6323,0.0,0.0,-1.7622,-1.7644,-1.7105,-1.6523,-1.6201,-1.618,-1.674,-1.6778,-1.6459,-1.7498,0.0,0.0,0.0,0.0,0.0,0.0,-2.1524,-2.2453,-2.1973,-2.1123,-1.9846,-1.7605,-1.5426,-1.3399,-1.1219,-0.953,-0.84,-0.8193,-0.7336,-0.58,-0.6017,0.0,0.0,0.0,0.0,0.0,0.0,0.0,0.0,0.0,0.0,0.0,0.0,0.0,0.0,0.0,0.0,0.0,0.0,0.0,0.0,-1.2145,0.0,0.0,0.0,0.0,0.0,0.0,0.0,0.0,0.0,0.0,-1.6479,-1.6491,-1.6534,-1.6534,0.0,0.0,0.0,0.0,-1.6559,-1.6609,-1.7074,-1.7451,-1.7438,-1.789,-1.8006,-1.7513,0.0,0.0,-1.8983,-1.9409,-1.9597,-1.9108,-1.9484,-1.9798,-1.9773,-1.9736,-1.9748,-1.9748,-1.9748,-1.9786,-1.9786,-1.9723,-1.9748,-0.8943,0.0,0.0,0.0,0.0,-0.8787,-0.9253,-1.0347,-1.4337,-1.5758,-1.5303,-1.4935,0.0,0.0,0.0,0.0,0.0,0.0,-1.7194,-1.7247,-1.7767,-1.7946,-1.7804,-1.8034,-1.7891,-1.7531,-1.8075,-1.8255,-1.8151,-1.8435,-1.8017,-1.7015,0.0,0.0,0.0,0.0,-2.0345,-1.991,-2.0279,-1.9086,-1.6168,-1.5632,-1.4464,-1.2505,-1.0073,-0.8331,-0.743,-0.717,-0.6614,-0.5798,-0.5724,0.0,0.0,0.0,0.0,0.0,0.0,0.0,0.0,0.0,0.0,0.0,0.0,0.0,0.0,0.0,0.0,0.0,0.0,0.0,-1.2822,-1.2373,-1.2203,0.0,0.0,0.0,0.0,0.0,0.0,0.0,0.0,0.0,-1.6534,-1.6534,-1.6534,0.0,0.0,-1.6685,-1.7213,-1.7206,-1.7275,-1.7664,-1.8191,0.0,-1.8028,-1.8093,-1.8129,-1.7972,-1.8425,-1.8855,-1.8958,-1.9457,-1.9766,-1.9571,-1.9698,-1.9798,-1.9798,-1.9798,-1.9798,-1.9798,-1.9798,-1.9798,-1.9798,-1.9798,-1.9798,-1.0084,-0.9267,-0.9089,-0.9432,-1.0126,-1.0556,-1.161,-1.3107,-1.5145,-1.6081,-1.6187,-1.6545,-1.6308,-1.5654,-1.6296,0.0,0.0,0.0,-1.7893,-1.7879,-1.8235,-1.8288,-1.8145,-1.8418,-1.8329,-1.7797,-1.8082,-1.8223,-1.8238,-1.7945,-1.7599,-1.7181,0.0,0.0,-1.9282,-1.9484,-1.9447,-1.9196,-1.9049,-1.7577,-1.4648,-1.3275,-1.1953,-1.0766,-0.8332,-0.6679,-0.6027,-0.5774,-0.5484,-0.5207,-0.5377,-0.5428,0.0,0.0,0.0,0.0,0.0,0.0,0.0,0.0,0.0,0.0,0.0,-0.8428,-0.8372,0.0,0.0,0.0,-1.1862,-1.2638,-1.3515,-1.2975,0.0,0.0,0.0,0.0,0.0,0.0,0.0,-1.623,-1.646,-1.6534,-1.6534,-1.6534,-1.6534,-1.6534,-1.6534,-1.666,-1.7125,0.0,-1.7162,-1.7488,-1.8016,-1.8267,-1.794,-1.7885,-1.7763,-1.755,-1.769,-1.797,-1.829,-1.9145,-1.9698,-1.956,-1.9661,-1.9813,-1.9786,-1.9635,-1.9585,-1.9761,-1.9798,-1.9798,-1.9798,-1.9798,-1.9748,-1.0565,-1.0212,-1.0094,-1.0398,-1.1036,-1.1843,-1.3142,-1.4699,-1.5169,-1.6395,-1.8076,-1.8153,-1.8216,-1.831,-1.8327,0.0,-1.8803,-1.8928,-1.902,-1.9049,-1.8945,-1.8679,-1.8252,-1.8149,-1.7841,-1.7419,-1.7223,-1.719,-1.7275,-1.6572,-1.6762,-1.7807,-1.7674,-1.8115,-1.9117,-1.8574,-1.8627,-1.944,-1.7922,-1.6232,-1.428,-1.0576,-0.8629,-0.853,-0.6031,-0.4506,-0.417,-0.402,-0.4072,-0.4239,-0.5019,-0.542,-0.54,0.0,0.0,0.0,0.0,0.0,0.0,0.0,0.0,0.0,0.0,0.0,0.0,0.0,0.0,0.0,-1.2451,0.0,-1.4617,-1.3835,0.0,0.0,0.0,-1.4436,-1.5055,-1.5396,-1.586,-1.6411,0.0,0.0,-1.6534,-1.6534,-1.6534,-1.6534,-1.6534,-1.6534,-1.6534,-1.6547,-1.6534,-1.6584,-1.7036,-1.7363,-1.7338,-1.7242,-1.7024,-1.6498,-1.6301,-1.6504,-1.7207,-1.8363,-1.9217,-1.9032,-1.9344,-1.9646,-1.9674,-1.9246,-1.9058,-1.9535,-1.9685,-1.9723,-1.971,-1.9698,-1.956,-1.0557,-1.0253,-1.1011,-1.1809,-1.2501,-1.2811,-1.3609,-1.4778,-1.5801,-1.6944,-1.8111,-1.847,-1.9244,-2.0309,-2.0308,-2.0344,-2.0398,-2.0104,-2.0051,-2.0165,-1.9294,-1.9046,-1.9272,-1.8475,-1.8275,-1.8461,-1.7641,-1.7295,-1.7222,-1.5906,-1.5371,-1.5649,-1.5671,-1.636,-1.7664,-1.7528,-1.693,-1.5942,-1.4931,-1.3145,-1.0624,-0.8498,-0.7413,-0.7386,-0.3783,-0.1613,-0.111,-0.173,-0.2854,-0.4358,-0.4615,-0.4739,-0.4725,-0.4767,0.0,0.0,0.0,0.0,0.0,0.0,0.0,0.0,0.0,-0.9352,-0.9123,0.0,-1.2292,0.0,-1.3663,-1.4418,-1.4675,-1.446,0.0,0.0,-1.4861,-1.5048,-1.6003,-1.5889,-1.5877,-1.6416,-1.6534,-1.6534,-1.6534,-1.6534,-1.6534,-1.6534,-1.6534,-1.6534,-1.6534,-1.6534,-1.6534,-1.6572,-1.6999,-1.7225,-1.6779,-1.6308,-1.599,-1.5809,-1.5166,-1.5114,-1.6386,-1.6936,-1.7532,-1.8214,-1.8471,-1.8571,-1.857,-1.8468,-1.8442,-1.8581,-1.892,-1.9208,-1.9208,-1.9208,-1.9083,-0.8792,-0.8765,-1.0237,-1.1314,-1.2025,-1.2751,-1.3701,-1.4741,-1.5656,-1.6532,-1.7477,-1.8634,-1.9924,-2.1239,-2.1071,-2.1115,-2.122,-2.0798,-2.0595,-2.0569,-2.0085,-1.9768,-1.9607,-1.9453,-1.9068,-1.8441,-1.7632,-1.678,-1.5854,-1.4739,-1.4223,-1.4222,-1.4244,-1.4605,-1.5368,-1.5701,-1.5232,-1.3947,-1.1908,-0.969,-0.7153,-0.5232,-0.4427,-0.4606,-0.197,0.0323,0.1904,0.0165,-0.1613,-0.3408,-0.4141,-0.4473,-0.4515,-0.4623,-0.4711,0.0,0.0,0.0,0.0,0.0,0.0,0.0,0.0,0.0,0.0,0.0,-1.2892,-1.3716,-1.4334,-1.492,-1.5443,-1.5299,-1.532,-1.592,-1.5752,-1.5801,-1.6441,-1.6258,-1.617,-1.6441,-1.6534,-1.6534,-1.6534,-1.6534,-1.6534,-1.6534,-1.6534,-1.6534,-1.6534,-1.6534,-1.6534,-1.6547,-1.6785,-1.6773,-1.6194,-1.5804,-1.5402,-1.4862,-1.443,-1.4377,-1.5148,-1.5953,-1.6622,-1.6943,-1.6812,-1.6907,-1.7581,-1.7564,-1.7538,-1.8094,-1.8242,-1.838,-1.8618,-1.8607,-1.8591,-0.6642,-0.6907,-0.8815,-1.0023,-1.0806,-1.2286,-1.3583,-1.4744,-1.5262,-1.6009,-1.6972,-1.8915,-2.0475,-2.165,-2.1346,-2.1361,-2.1647,-2.1254,-2.0975,-2.0815,-2.0749,-2.0285,-1.9522,-2.012,-1.9497,-1.7741,-1.7163,-1.5856,-1.3906,-1.335,-1.305,-1.3003,-1.3116,-1.3105,-1.2897,-1.3806,-1.364,-1.2381,-0.9079,-0.6214,-0.382,-0.1684,-0.0694,-0.0951,-0.0,0.1779,0.4274,0.1783,-0.0445,-0.2062,-0.3633,-0.4477,-0.4463,-0.4443,-0.4737,0.0,-0.5259,0.0,0.0,0.0,0.0,0.0,0.0,0.0,0.0,-1.2445,-1.3566,-1.4617,-1.4817,-1.5348,-1.6398,-1.6008,-1.592,-1.6436,-1.6534,-1.6534,-1.6522,-1.6534,-1.6534,-1.6534,-1.6534,-1.6534,-1.6534,-1.6448,-1.6374,-1.6337,-1.6207,-1.6151,-1.625,-1.6392,-1.6466,-1.6423,-1.6293,-1.6027,-1.561,-1.5389,-1.4983,-1.4058,-1.3834,-1.3889,-1.3894,-1.4993,-1.5867,-1.5491,-1.4975,-1.5089,-1.6667,-1.6574,-1.6676,-1.7557,-1.756,-1.7614,-1.7978,-1.8103,-1.794,-0.6966,-0.7557,-0.8528,-0.9607,-1.0897,-1.2299,-1.3608,-1.4744,-1.5309,-1.6824,-1.8892,-2.0048,-2.1166,-2.2135,-2.2073,-2.2096,-2.2124,-2.1702,-2.1658,-2.194,-2.0061,-1.9317,-1.9339,-1.7985,-1.7118,-1.6641,-1.5755,-1.4411,-1.2712,-1.229,-1.166,-1.0856,-1.1969,-1.2256,-1.1802,0.0,0.0,0.0,-0.655,-0.3868,-0.1214,0.0288,0.1794,0.3252,0.3548,0.0,0.4401,0.273,0.0723,-0.1555,-0.3463,0.0,0.0,0.0,0.0,0.0,0.0,0.0,0.0,0.0,0.0,0.0,-1.0374,-1.0707,-1.1396,-1.3208,-1.4451,-1.4686,-1.5584,-1.625,-1.6479,-1.6423,-1.638,-1.6479,-1.6534,-1.6534,-1.6534,-1.6534,-1.6534,-1.6534,-1.6534,-1.6479,-1.6448,-1.609,-1.579,-1.5756,-1.5377,-1.5073,-1.5062,-1.5876,-1.6281,-1.5864,-1.5421,-1.5058,-1.4916,-1.4496,-1.415,-1.3769,-1.3369,-1.3354,-1.3705,-1.3625,-1.4005,-1.4587,-1.3982,-1.3679,-1.4991,-1.5474,-1.5802,-1.6065,-1.6798,-1.7413,-1.7513,-1.7539,-1.736,-0.6064,0.0,-0.7446,-0.8632,0.0,-1.2159,-1.3233,-1.3852,-1.4755,-1.6757,-1.9375,-1.9428,-2.0225,-2.1546,-2.1063,-2.0879,-2.0847,-2.0621,-2.1163,-2.2143,-2.0091,-1.8702,-1.7984,-1.7943,-1.752,-1.6713,-1.5678,-1.4272,-1.2537,-1.2012,-1.1242,-1.0248,-1.1358,-1.0648,-0.8306,-0.8151,-0.6964,-0.4606,-0.3108,-0.113,0.1259,0.2779,0.4029,0.4972,0.5354,0.0,0.0,0.0,0.0,0.0,0.0,0.0,0.0,0.0,0.0,-0.5496,-0.5742,-0.6299,-0.733,-0.774,-0.8554,-0.9995,-1.0746,-1.138,-1.2082,-1.37,-1.4729,-1.4743,-1.58,-1.6534,-1.6534,-1.6534,-1.6534,-1.6534,-1.6534,-1.6534,-1.6534,-1.6534,-1.638,-1.6083,-1.6053,-1.5929,-1.5656,-1.5369,-1.5188,-1.5164,-1.4926,-1.4709,-1.4744,-1.5197,-1.5466,-1.5197,-1.4926,-1.4586,-1.4295,-1.403,-1.3658,-1.3387,-1.3086,-1.3027,-1.3286,-1.3113,-1.3113,-1.3658,-1.3301,-1.3233,-1.4029,-1.4503,-1.4824,-1.5175,-1.6125,-1.6761,-1.663,-1.6983,-1.7222,-0.4529,-0.5332,-0.5986,-0.7617,-0.9967,-1.2004,-1.3135,-1.3529,0.0,0.0,0.0,-1.8553,-1.9101,-2.0469,-1.9716,-1.9426,-1.9403,-1.9403,-2.0263,-2.1666,-1.9948,-1.8093,-1.6323,-1.7916,-1.7959,-1.6518,-1.5645,-1.4235,-1.2424,-1.1984,-1.1256,-1.039,-1.0852,-0.8274,-0.2922,-0.0646,0.0513,0.0801,0.1253,0.2293,0.4014,0.5389,0.6117,0.6095,0.6549,0.6239,0.5019,0.4656,0.3214,0.0389,-0.2634,-0.4464,-0.4784,-0.473,-0.5004,-0.5733,-0.6292,-0.6912,-0.767,-0.8374,-0.9159,-0.9909,-1.1225,-1.2236,-1.2832,-1.4011,-1.4718,-1.4697,-1.5788,-1.6534,-1.6534,-1.6534,-1.6534,-1.6534,-1.6534,-1.6534,-1.6534,-1.6534,-1.6281,-1.5696,-1.5624,-1.5357,-1.4812,-1.4616,-1.4558,-1.4536,-1.4387,-1.4387,-1.4387,-1.4468,-1.4606,-1.456,-1.4387,-1.4147,-1.3761,-1.3627,-1.3409,-1.3027,-1.2939,-1.2891,-1.2891,-1.2891,-1.2891,-1.2978,-1.2939,-1.3104,-1.3505,-1.3779,-1.3956,-1.4422,-1.5441,-1.6071,-1.5686,-1.6363,-1.7039,-0.2611,-0.2813,-0.4204,-0.6854,-1.0265,-1.2109,-1.3924,-1.5678,-1.6083,-1.7258,-1.8876,-1.9132,-1.933,-1.9574,-1.9444,-1.9396,-1.9403,-1.9418,-1.9538,-1.9752,-1.8702,-1.7034,-1.5042,-1.5756,-1.5484,-1.432,-1.4158,-1.3256,-1.1769,-1.188,-1.1407,-1.0238,-1.0339,-0.4673,0.5937,0.7195,0.7365,0.7379,0.7269,0.7351,0.765,0.7879,0.8006,0.7978,0.7633,0.7281,0.6887,0.5341,0.349,0.1387,-0.078,-0.2809,-0.4647,-0.4623,-0.4827,-0.5495,-0.6228,-0.6912,-0.7664,-0.8374,-0.9309,-1.0568,-1.194,-1.2774,-1.2939,-1.4011,-1.4718,-1.4754,-1.5744,-1.6534,-1.6534,-1.6479,-1.6479,-1.6479,-1.6491,-1.6534,-1.6479,-1.6479,-1.6238,-1.5632,-1.5608,-1.5336,-1.4686,-1.4189,-1.3947,-1.3868,-1.361,-1.32,-1.3334,-1.36,-1.3862,-1.3873,-1.3467,-1.3142,-1.3112,-1.3045,-1.3017,-1.2929,-1.2891,-1.2891,-1.2891,-1.2891,-1.2891,-1.2891,-1.2891,-1.2978,-1.3065,-1.3467,-1.3732,-1.3978,-1.4835,-1.5404,-1.4937,-1.5677,-1.655,-0.0602,-0.0593,-0.516,-0.8184,-0.9971,-1.2032,-1.4531,-1.7154,-1.7801,-1.874,-1.9803,-1.954,-1.9697,-2.0025,-1.8735,-1.8141,-1.8101,-1.7261,-1.7201,-1.7717,-1.6701,-1.5684,-1.4809,-1.4991,-1.4823,-1.4295,-1.3992,-1.3359,-1.2417,-1.2167,-1.0481,-0.7448,-0.5297,-0.0592,0.6067,0.8732,0.9888,0.9824,0.8733,0.8442,0.9096,0.8798,0.8996,0.968,0.9137,0.8351,0.7482,0.6044,0.4594,0.3178,0.0056,-0.2586,-0.4503,-0.4623,-0.4724,-0.5041,-0.5668,-0.6308,-0.7074,-0.8508,-0.9762,-1.0712,-1.1733,-1.2461,-1.2881,-1.3675,-1.4227,-1.4222,-1.5017,-1.5588,-1.5816,-1.594,-1.5996,-1.586,-1.6225,-1.638,-1.6095,-1.6337,-1.6139,-1.5287,-1.5097,-1.4764,-1.381,-1.3453,-1.33,-1.3296,-1.3017,-1.2891,-1.2891,-1.3104,-1.3334,-1.3286,-1.3113,-1.2929,-1.2891,-1.2891,-1.2891,-1.2891,-1.2891,-1.2891,-1.2891,-1.2891,-1.2891,-1.2891,-1.2891,-1.2891,-1.2891,-1.3113,-1.3286,-1.3412,-1.4238,-1.4686,-1.4512,-1.5037,-1.6223,0.2277,0.0901,-0.4845,-0.9065,-1.1786,-1.2588,-1.4881,-1.8007,-1.8801,-1.9817,-2.0735,-1.9436,-1.9156,-1.9602,-1.7794,-1.6989,-1.6779,-1.5668,-1.5474,-1.5972,-1.5429,-1.4843,-1.4367,-1.4537,-1.4598,-1.428,-1.381,-1.3426,-1.3087,-1.2474,-0.9349,-0.3993,0.1118,0.4357,0.5851,0.893,1.0522,1.0452,0.9099,0.9003,1.0322,0.9979,1.0267,1.1098,1.0466,0.9311,0.7917,0.6704,0.5546,0.4432,0.0968,-0.1884,-0.3711,-0.4355,-0.4649,-0.4702,-0.5167,-0.5923,-0.6853,-0.8705,-1.0115,-1.0771,-1.1408,-1.208,-1.2832,-1.333,-1.3669,-1.381,-1.4381,-1.4891,-1.5242,-1.5353,-1.5353,-1.533,-1.5764,-1.582,-1.5499,-1.5832,-1.57,-1.4698,-1.4503,-1.4097,-1.32,-1.2891,-1.2939,-1.2939,-1.2891,-1.2891,-1.2891,-1.2891,-1.2891,-1.2891,-1.2891,-1.2891,-1.2891,-1.2891,-1.2891,-1.2891,-1.2891,-1.2891,-1.2891,-1.2891,-1.2891,-1.2891,-1.2891,-1.2891,-1.2891,-1.2939,-1.2929,-1.3046,-1.3634,-1.4066,-1.3878,-1.4382,-1.551,0.7208,0.0644,-0.0648,-0.7967,-1.7292,-1.4521,-1.5025,-1.788,-1.8228,-1.9587,-2.1255,-1.8181,-1.6938,-1.6879,-1.6763,-1.6606,-1.665,-1.641,-1.5753,-1.5015,-1.5892,-1.5174,-1.2912,-1.3983,-1.4121,-1.3086,-1.2807,-1.2706,-1.2915,-1.2498,-0.845,-0.0418,0.7695,1.0834,1.0217,0.9835,0.9789,0.9873,0.9651,1.049,1.2373,1.2517,1.2551,1.2609,1.1349,1.0061,0.8573,0.725,0.5887,0.4473,0.2343,0.0278,-0.1672,-0.353,-0.449,-0.4522,-0.5167,-0.6086,-0.7503,-0.8974,-1.0064,-1.0762,-1.1416,-1.208,-1.2774,-1.2949,-1.322,-1.3678,-1.4323,-1.4759,-1.5223,-1.4949,-1.4869,-1.5063,-1.5017,-1.4835,-1.4835,-1.4835,-1.4606,-1.3967,-1.3961,-1.3622,-1.3055,-1.2891,-1.2891,-1.2891,-1.2891,-1.2891,-1.2891,-1.2891,-1.2891,-1.2891,-1.2891,-1.2881,-1.2832,-1.2891,-1.2881,-1.2881,-1.2871,-1.289,-1.2871,-1.289,-1.2929,-1.289,-1.2929,-1.2929,-1.2891,-1.2891,-1.2891,-1.2891,-1.3076,-1.3193,-1.3409,-1.368,-1.4348,1.1686,0.8373,0.2468,-0.3025,-0.8343,-1.4266,-1.8616,-2.0984,-1.9056,-1.9851,-2.1907,-1.8679,-1.8344,-2.0369,-1.806,-1.7378,-1.8067,-1.6315,-1.4779,-1.3442,-1.1584,-0.8666,-0.5798,-0.8469,-0.9526,-0.9075,-0.9064,-1.0371,-1.166,-0.7812,-0.1673,0.4478,0.7209,0.8434,0.9517,0.9688,0.9738,0.9802,1.0178,1.1155,1.2584,1.2616,1.2397,1.2132,1.1308,0.9908,0.8168,0.7101,0.5941,0.4529,0.2558,0.0556,-0.1398,-0.3416,-0.448,-0.4519,-0.5109,-0.5919,-0.6961,-0.833,-0.9474,-1.0159,-1.1216,-1.1972,-1.2236,-1.2666,-1.2852,-1.2725,-1.3252,-1.3697,-1.3888,-1.4054,-1.4133,-1.4032,-1.4332,-1.4571,-1.419,-1.4479,-1.4468,-1.3899,-1.381,-1.3575,-1.3055,-1.2891,-1.2891,-1.2891,-1.2881,-1.2832,-1.2891,-1.2891,-1.2891,-1.2891,-1.2891,-1.2676,-1.244,-1.2637,-1.2627,-1.2393,-1.2416,-1.252,-1.2807,-1.2892,-1.2929,-1.2855,-1.286,-1.2861,-1.2891,-1.2891,-1.2891,-1.2891,-1.2891,-1.2949,-1.3135,-1.3145,-1.345,1.4829,1.4438,0.7242,0.3821,0.2277,-0.9302,-1.6348,-1.9884,-2.0926,-2.1065,-1.9407,-1.6564,-1.6381,-1.8118,-1.7291,-1.7623,-1.8028,-1.4658,-1.3394,-1.295,-0.7326,-0.2736,-0.0519,-0.3032,-0.4625,-0.4634,-0.4645,-0.6263,-0.8435,-0.3406,0.2205,0.5708,0.6178,0.7057,0.8697,0.9547,0.9837,0.9617,1.0288,1.1197,1.2125,1.2339,1.2292,1.2024,1.1266,0.9813,0.7712,0.6945,0.5941,0.4532,0.3121,0.128,-0.1007,-0.3251,-0.4487,-0.4577,-0.5109,-0.5819,-0.6583,-0.7747,-0.8803,-0.9755,-1.0762,-1.1366,-1.1557,-1.2033,-1.2171,-1.1981,-1.2113,-1.241,-1.2946,-1.3311,-1.3348,-1.302,-1.3763,-1.4014,-1.3647,-1.3978,-1.3967,-1.3637,-1.3521,-1.3311,-1.2745,-1.2559,-1.251,-1.245,-1.2372,-1.2421,-1.244,-1.2382,-1.2264,-1.2314,-1.2314,-1.2166,-1.1886,-1.2178,-1.2246,-1.1841,-1.1692,-1.1939,-1.2368,-1.2444,-1.232,-1.196,-1.2346,-1.2589,-1.2501,-1.2559,-1.2822,-1.2881,-1.2832,-1.2832,-1.2949,-1.29,-1.2929,1.6044,1.7024,1.5445,1.3511,1.1045,0.3048,-0.4412,-1.1637,-2.329,-2.2728,-1.2502,-1.0136,-0.8548,-0.7033,-1.2329,-1.6101,-1.5412,-1.024,-1.0556,-1.3603,-0.3543,0.0982,-0.0,-0.0205,-0.0264,-0.0277,-0.0277,-0.05,-0.0837,-0.0332,0.0111,0.1057,0.6961,0.9671,0.9152,0.9822,0.9857,0.9127,0.9888,1.0573,1.1023,1.2178,1.2648,1.2425,1.1449,0.9754,0.7753,0.694,0.5937,0.4529,0.4203,0.2907,0.0056,-0.2903,-0.4484,-0.4574,-0.5113,-0.5814,-0.6534,-0.7283,-0.8296,-0.9496,-0.9909,-1.0218,-1.0746,-1.1004,-1.1233,-1.1697,-1.1251,-1.1533,-1.2445,-1.2686,-1.2803,-1.2735,-1.2852,-1.291,-1.291,-1.2958,-1.2978,-1.292,-1.29,-1.2638,-1.1972,-1.1823,-1.1819,-1.1654,-1.1276,-1.1091,-1.1436,-1.1209,-1.1082,-1.1074,-1.1074,-1.1133,-1.1619,-1.1796,-1.1531,-1.1116,-1.0973,-1.1079,-1.1208,-1.1285,-1.1107,-1.1065,-1.1539,-1.1805,-1.1972,-1.2178,-1.254,-1.2647,-1.2559,-1.2569,-1.2363,-1.2725,-1.2812,1.9584,2.1281,2.1644,2.2629,2.3804,2.0918,0.8667,-0.9389,-1.0555,-1.207,-1.1272,-0.4022,-0.0,0.0326,0.1232,0.107,0.0628,0.2529,-0.0,-0.3969,0.7264,1.2966,1.2254,0.8475,0.5488,0.4242,0.411,0.4082,0.3688,0.1438,0.2622,0.6511,0.7587,0.8371,0.9316,0.9834,0.9607,0.8995,0.96,1.0265,1.0704,1.083,1.0864,1.0797,1.0359,0.9088,0.6873,0.6226,0.5396,0.4348,0.3539,0.212,-0.0,-0.2841,-0.4473,-0.4529,-0.4736,-0.5386,-0.6426,-0.6864,-0.761,-0.9001,-0.9562,-0.988,-1.0159,-1.0545,-1.0731,-1.0618,-1.0785,-1.098,-1.0904,-1.1309,-1.1584,-1.1543,-1.1584,-1.1633,-1.1633,-1.1931,-1.2187,-1.2187,-1.2187,-1.1931,-1.1392,-1.1166,-1.1259,-1.142,-1.1074,-1.0771,-1.0695,-1.0695,-1.0712,-1.0762,-1.0813,-1.0728,-1.0438,-1.0914,-1.0981,-1.0543,-1.0332,-1.0606,-1.0789,-1.0631,-1.045,-1.0045,-1.0466,-1.1149,-1.1325,-1.1416,-1.1823,-1.1773,-1.1742,-1.1891,-1.1534,-1.185,-1.2249,2.2618,2.4169,2.5669,2.6867,2.8172,3.0137,1.6516,-0.5269,-0.2064,-0.2735,-0.4611,0.3405,0.8911,1.1655,1.4813,1.5562,1.4552,1.412,1.1248,0.7443,1.6089,2.0151,1.9021,1.5124,1.2272,1.0621,0.9093,0.8507,0.8204,0.5596,0.7034,1.143,0.9519,0.9052,1.0198,1.0395,1.0064,0.9442,1.0001,1.0621,1.0761,1.0316,0.994,0.9644,0.9054,0.7893,0.6113,0.5775,0.5213,0.4311,0.3411,0.1618,-0.128,-0.334,-0.4463,-0.4473,-0.4467,-0.5037,-0.6133,-0.6584,-0.7329,-0.8574,-0.9336,-0.9739,-0.9684,-1.0037,-1.0035,-0.9976,-1.0023,-1.009,-1.0098,-1.0295,-1.0564,-1.0734,-1.0813,-1.0813,-1.0821,-1.1327,-1.1669,-1.1765,-1.1624,-1.1243,-1.074,-1.0581,-1.0506,-1.0648,-1.0344,-1.0041,-0.9864,-0.9931,-1.0167,-1.0159,-1.0064,-0.9865,-0.9673,-0.9879,-1.0054,-0.9703,-0.9614,-0.9941,-1.0108,-0.9956,-0.9745,-0.9269,-0.9507,-1.0261,-1.0669,-1.0762,-1.0747,-1.0739,-1.1005,-1.1233,-1.1032,-1.0939,-1.131,2.4863,2.5514,2.7249,2.5424,2.3439,2.7371,1.846,0.1208,0.0,0.1898,0.5156,1.1133,1.7852,2.5273,2.4725,2.4563,2.328,2.2295,2.0573,1.8672,2.05,2.0796,1.9639,1.903,1.8511,1.8008,1.4703,1.2767,1.2425,1.1825,1.2142,1.2707,1.257,1.179,1.1482,1.1495,1.1015,1.0221,1.0821,1.1264,1.0879,1.0451,1.0014,0.9379,0.7688,0.6236,0.534,0.5632,0.5283,0.4424,0.4375,0.1619,-0.3186,-0.4415,-0.4463,-0.4522,-0.4522,-0.493,-0.5791,-0.6568,-0.7286,-0.834,-0.9208,-0.9479,-0.9418,-0.9302,-0.9394,-0.9552,-0.9349,-0.9348,-0.982,-0.9685,-0.989,-1.0625,-1.0637,-1.0645,-1.0764,-1.1063,-1.1328,-1.1374,-1.0982,-1.0621,-1.0249,-0.9778,-0.9443,-0.9205,-0.9078,-0.9078,-0.9138,-0.9231,-0.8944,-0.8877,-0.9075,-0.9159,-0.8956,-0.8804,-0.885,-0.8857,-0.8956,-0.9169,-0.9252,-0.9188,-0.9226,-0.8947,-0.9132,-0.9865,-1.0072,-1.0167,-1.0293,-1.0332,-1.0533,-1.0474,-1.0336,-1.0241,-1.0379,2.5029,2.5105,2.3548,2.222,2.0745,2.0528,1.2212,0.0,0.0,0.0,0.8457,1.5762,2.291,2.7656,2.7981,2.7285,2.6992,2.6591,2.4855,2.2212,2.1599,2.0842,1.9885,1.9729,1.9294,1.8185,1.5521,1.4084,1.389,1.3273,1.2899,1.2919,1.2929,1.2478,1.1763,1.1742,1.1166,1.0035,1.0203,1.03,0.9953,0.8689,0.8047,0.801,0.622,0.4923,0.4579,0.4776,0.4175,0.2775,0.3814,0.1732,-0.313,-0.4473,-0.4463,-0.4529,-0.4565,-0.4969,-0.5657,-0.6128,-0.6988,-0.8111,-0.8663,-0.904,-0.9367,-0.8971,-0.87,-0.8767,-0.8224,-0.7898,-0.7995,-0.8005,-0.8591,-0.9855,-1.0057,-0.9966,-1.0021,-1.0442,-1.0299,-0.9489,-0.9602,-0.9286,-0.8419,-0.8063,-0.8273,-0.8675,-0.8594,-0.8626,-0.918,-0.8997,-0.8838,-0.8496,-0.86,-0.8479,-0.8265,-0.8253,-0.8434,-0.8559,-0.8625,-0.8758,-0.8804,-0.8804,-0.8804,-0.8857,-0.9054,-0.9256,-0.9465,-0.9569,-0.9688,-0.9591,-0.9524,-0.9472,-0.9442,-0.9539,-0.9769,2.5398,2.5561,2.3354,2.0367,1.7614,1.5838,0.9505,0.0,0.0,0.0,0.8777,1.6934,2.2976,2.625,2.7051,2.7695,2.8223,2.8281,2.7035,2.4883,2.3737,2.2081,2.0095,1.9705,1.9278,1.826,1.6675,1.5417,1.4585,1.3909,1.3304,1.2968,1.2891,1.2725,1.2236,1.2187,1.1525,1.0387,1.043,1.0438,0.9799,0.8072,0.7272,0.7582,0.5747,0.4525,0.4341,0.4426,0.369,0.2261,0.2534,0.0837,-0.2575,-0.3823,-0.4585,-0.4524,-0.4711,-0.5008,-0.5432,-0.5936,-0.6555,-0.7568,-0.8088,-0.8353,-0.8723,-0.8278,-0.806,-0.7841,-0.7537,-0.7264,-0.7308,-0.7422,-0.7982,-0.8896,-0.8812,-0.8794,-0.8877,-0.9174,-0.912,-0.8394,-0.8391,-0.806,-0.7511,-0.7156,-0.7389,-0.8017,-0.8043,-0.8145,-0.8751,-0.8613,-0.8212,-0.7898,-0.7892,-0.7722,-0.7494,-0.7703,-0.8068,-0.8259,-0.8404,-0.8625,-0.8804,-0.8804,-0.8804,-0.8804,-0.8903,-0.8956,-0.9159,-0.9061,-0.9068,-0.8804,-0.8804,-0.8917,-0.9075,-0.9022,-0.9106,2.5894,2.6433,2.5251,1.9769,1.3271,1.3385,0.8318,0.0,0.0,0.283,0.851,1.5159,2.0334,2.2649,2.5488,2.7129,2.8242,2.8652,2.8627,2.8036,2.7091,2.4695,2.0702,2.0095,1.9745,1.9251,1.8318,1.6916,1.5487,1.4994,1.4147,1.3329,1.3192,1.2978,1.2813,1.2881,1.2107,1.0981,1.1327,1.1327,1.0466,0.8626,0.7777,0.8266,0.5896,0.4453,0.4446,0.4463,0.3638,0.183,-0.0,-0.0,-0.0,-0.2964,-0.4107,-0.4412,-0.4758,-0.4887,-0.5132,-0.574,-0.6392,-0.6832,-0.7421,-0.7881,-0.7751,-0.7661,-0.7428,-0.7179,-0.7147,-0.7199,-0.7227,-0.7381,-0.7658,-0.7767,-0.768,-0.7568,-0.7474,-0.7421,-0.7557,-0.7638,-0.736,-0.7109,-0.7188,-0.6941,-0.6936,-0.6978,-0.7043,-0.7441,-0.7542,-0.7495,-0.7175,-0.713,-0.7242,-0.7092,-0.6986,-0.7274,-0.7611,-0.7722,-0.7897,-0.8123,-0.8372,-0.8372,-0.8287,-0.8334,-0.8645,-0.8685,-0.8699,-0.8646,-0.8699,-0.8804,-0.8804,-0.8804,-0.8804,-0.8752,-0.8765,2.477,2.3406,2.017,1.5628,1.0214,0.6191,0.2857,0.0,0.0,0.2568,0.7376,1.211,1.8832,2.6002,2.6875,2.8437,2.9648,3.0117,3.0204,3.0192,3.0001,2.6803,2.2607,2.1168,2.0952,2.0887,1.9577,1.832,1.7968,1.6896,1.5784,1.4623,1.4348,1.3773,1.3055,1.3055,1.2157,1.1074,1.1486,1.104,0.9562,0.8376,0.7481,0.6945,0.5487,0.457,0.4515,0.4473,0.3231,0.0718,-0.0,-0.0,-0.0,-0.0,-0.2397,-0.4158,-0.4733,-0.4902,-0.5119,-0.5474,-0.5956,-0.6645,-0.685,-0.7284,-0.7822,-0.7261,-0.6966,-0.6685,-0.6355,-0.5973,-0.5992,-0.6109,-0.6156,-0.6203,-0.693,-0.7394,-0.7058,-0.7388,-0.7402,-0.6371,-0.6552,-0.6535,-0.6218,-0.6024,-0.5985,-0.6049,-0.6353,-0.6591,-0.6606,-0.6915,-0.6871,-0.6763,-0.6796,-0.6648,-0.6629,-0.6934,-0.7133,-0.7186,-0.7281,-0.7296,-0.7417,-0.7444,-0.728,-0.7128,-0.7905,-0.8154,-0.8242,-0.8268,-0.848,-0.8474,-0.8533,-0.8427,-0.8646,-0.8758,-0.8725,2.3187,2.0258,1.7102,1.2722,0.791,0.5147,0.2606,0.0,0.0,0.2501,0.6618,0.9995,1.5999,2.3413,2.5898,2.7949,2.9648,3.0547,3.0879,3.0781,3.0292,2.8051,2.5172,2.3619,2.3028,2.3042,2.1698,2.0966,2.0436,1.9127,1.7826,1.6775,1.6111,1.5413,1.4777,1.4519,1.3971,1.2962,1.2666,1.1908,1.0847,0.924,0.8214,0.734,0.6122,0.5214,0.4629,0.4591,0.3403,0.1344,-0.0,-0.0,-0.0,-0.0,-0.0,-0.2868,-0.4018,-0.4977,-0.5091,-0.5301,-0.5609,-0.6009,-0.6137,-0.64,-0.6658,-0.64,-0.6191,-0.6048,-0.5624,-0.5043,-0.4582,-0.4916,-0.5316,-0.5572,-0.6292,-0.6679,-0.6148,-0.6523,-0.6404,-0.5822,-0.576,-0.6017,-0.5435,-0.5372,-0.5376,-0.5498,-0.5862,-0.5785,-0.5701,-0.6286,-0.6591,-0.6329,-0.6199,-0.6029,-0.5988,-0.6199,-0.6267,-0.6376,-0.637,-0.6421,-0.6718,-0.6748,-0.6729,-0.6764,-0.7282,-0.7589,-0.7575,-0.7557,-0.7545,-0.7599,-0.7877,-0.7943,-0.8002,-0.8215,-0.824,2.0832,1.6669,1.5071,1.0755,0.614,0.8281,0.5658,0.0,0.0,0.2026,0.5634,0.8668,1.3387,1.7862,2.3635,2.6484,2.8301,3.0137,3.0664,3.0544,2.998,2.8711,2.7432,2.5788,2.509,2.4851,2.4614,2.3614,2.2492,2.1217,2.0081,1.8886,1.8071,1.739,1.6563,1.6604,1.6233,1.4998,1.3968,1.3329,1.2513,1.0873,0.9547,0.8732,0.7258,0.6032,0.5133,0.47,0.403,0.2603,0.1072,-0.0,-0.0,-0.0,-0.0,-0.0,-0.2704,-0.4287,-0.5067,-0.5339,-0.5432,-0.5495,-0.5498,-0.5428,-0.5561,-0.5564,-0.5561,-0.555,-0.5442,-0.4439,-0.2961,-0.377,-0.4506,-0.4637,-0.5046,-0.5183,-0.5312,-0.5233,-0.5163,-0.5379,-0.5446,-0.5379,-0.5176,-0.5116,-0.5122,-0.5319,-0.5372,-0.4957,-0.5156,-0.5727,-0.5853,-0.5596,-0.5496,-0.5422,-0.5397,-0.538,-0.5396,-0.5467,-0.5378,-0.5471,-0.6019,-0.6224,-0.6374,-0.6532,-0.636,-0.6379,-0.6584,-0.6573,-0.6676,-0.6843,-0.7176,-0.6972,-0.6766,-0.7133,-0.7306,1.6038,1.1508,1.112,0.8685,0.5895,0.8355,0.6063,0.0,0.0,0.0,0.2656,0.7335,1.2711,1.784,2.2843,2.6393,2.8043,2.9766,3.0625,3.0073,3.051,2.9629,2.8398,2.7051,2.6328,2.5996,2.5703,2.493,2.3841,2.3186,2.2137,2.0497,1.9562,1.8261,1.7236,1.7303,1.6399,1.5401,1.4755,1.4025,1.3102,1.1921,1.074,0.9907,0.8199,0.6856,0.5923,0.5206,0.4736,0.4159,0.2981,0.1604,-0.0,-0.0,-0.0,-0.0,-0.0,-0.2383,-0.4576,-0.5104,-0.5386,-0.5239,-0.5312,-0.5386,-0.5379,-0.5312,-0.5309,-0.5372,-0.5319,-0.4038,-0.0,-0.0,-0.2011,-0.295,-0.3422,-0.3966,-0.4852,-0.4164,-0.4025,-0.4773,-0.5256,-0.4913,-0.362,-0.3355,-0.3832,-0.4782,-0.0,-0.0,-0.4434,-0.4909,-0.4938,-0.4677,-0.4766,-0.4734,-0.4797,-0.4989,-0.5308,-0.525,-0.503,-0.487,-0.5451,-0.5509,-0.5629,-0.5401,-0.4971,-0.5194,-0.5686,-0.615,-0.6308,-0.6421,-0.6475,-0.6317,-0.6213,-0.6372,-0.6365,1.4468,0.7768,0.7603,0.5672,0.3203,0.4412,0.3251,0.0,0.0,0.0,0.0,0.7002,1.2295,1.6728,2.2444,2.6014,2.7032,2.8737,2.9692,2.9537,2.945,2.8891,2.8825,2.8144,2.7676,2.7617,2.7305,2.668,2.6048,2.4884,2.3699,2.2502,2.1528,2.0424,1.914,1.9059,1.8884,1.7881,1.6665,1.5719,1.4968,1.3426,1.1834,1.0567,0.8896,0.7485,0.6207,0.5831,0.5446,0.5026,0.4344,0.3564,0.2546,0.1684,0.0925,-0.0,-0.0,-0.0,-0.2513,-0.3659,-0.4092,-0.4159,-0.4843,-0.4773,-0.4431,-0.4161,-0.4637,-0.5176,-0.5122,-0.0,-0.0,-0.0,-0.0,-0.1208,-0.2217,-0.3435,-0.4599,-0.3835,-0.2544,-0.3355,-0.4241,-0.4648,-0.4175,-0.2621,-0.0,-0.0,-0.0,-0.0,-0.0,-0.2813,-0.3689,-0.3803,-0.388,-0.4023,-0.4156,-0.4558,-0.5302,-0.5301,-0.5236,-0.5064,-0.5246,-0.5054,-0.481,-0.4639,-0.4636,-0.4608,-0.5056,-0.5529,-0.5719,-0.5496,-0.5441,-0.5555,-0.5618,-0.5462,-0.5361,1.4112,0.4382,0.5088,0.3348,0.0,0.0,0.0,0.0,0.0,0.0,0.0,0.7007,1.168,1.5605,2.228,2.5269,2.6356,2.7285,2.8682,2.8596,2.7589,2.7745,2.8164,2.834,2.8516,2.9316,2.8613,2.8203,2.75,2.6506,2.5224,2.4523,2.3813,2.2623,2.1795,2.1772,2.1501,2.0646,1.8997,1.7872,1.738,1.5567,1.3594,1.1646,1.011,0.8693,0.7558,0.6857,0.6303,0.5421,0.5484,0.5531,0.5036,0.408,-0.0,-0.0,-0.0,-0.0,-0.0067,-0.1269,-0.2277,-0.2342,-0.3493,-0.3692,-0.2678,-0.1671,-0.2075,-0.3429,-0.3842,-0.0,-0.0,-0.0,-0.0,-0.0,-0.1484,-0.2909,-0.3859,-0.3163,-0.1676,-0.1005,-0.2217,-0.303,-0.2827,-0.0,-0.0,-0.0,-0.0,-0.0,-0.0,-0.0,-0.0,-0.0,-0.2283,-0.2283,-0.2417,-0.2748,-0.3623,-0.4472,-0.4655,-0.481,-0.475,-0.4862,-0.4667,-0.471,-0.4697,-0.4676,-0.4601,-0.4886,-0.4868,-0.4525,-0.4636,-0.4978,-0.4875,-0.4549,-0.4635,1.272,0.1198,0.5459,0.4523,0.0,0.0,0.0,0.0,0.0,0.0,0.0,0.694,1.1236,1.507,2.1887,2.5973,2.7542,2.7911,2.7549,2.7001,2.6007,2.6264,2.7304,2.7448,2.7864,2.864,2.8504,2.8066,2.7734,2.7103,2.6458,2.5986,2.535,2.4408,2.3489,2.3137,2.2946,2.241,2.0799,1.9574,1.8388,1.6846,1.5224,1.3236,1.1804,1.0527,0.958,0.8404,0.7321,0.6546,0.651,0.6117,0.5647,0.515,0.4625,0.3951,0.2876,0.2274,0.2007,0.0736,-0.0267,-0.0535,-0.0872,-0.1006,0.0067,0.1808,0.1273,-0.0,-0.0,-0.0,-0.0,-0.0,-0.0,-0.0,-0.0135,-0.0607,-0.0876,-0.0673,-0.0336,0.0134,-0.0605,-0.0,-0.0,-0.0,-0.0,-0.0,-0.0,-0.0,-0.0,-0.0,-0.0,-0.0,-0.0471,-0.0471,-0.0471,-0.0738,-0.1407,-0.2609,-0.3177,-0.3689,-0.389,-0.4484,-0.4636,-0.4369,-0.4518,-0.4711,-0.4633,-0.4568,-0.4604,-0.4572,-0.4545,-0.4577,-0.4589,-0.4657,-0.4591,1.2435,0.4686,0.953,1.027,0.7279,0.0,0.0,0.0,0.0,0.3113,0.7352,1.0537,1.3407,1.7686,2.351,2.7731,2.8746,2.7302,2.6753,2.6138,2.4672,2.4106,2.5546,2.5804,2.6286,2.6826,2.7175,2.773,2.7832,2.748,2.7266,2.6862,2.6276,2.5439,2.4677,2.4365,2.4025,2.3531,2.2507,2.1041,1.937,1.7474,1.5689,1.4974,1.3304,1.1864,1.0571,0.9438,0.8285,0.7562,0.7372,0.7148,0.6709,0.6304,0.5888,0.5359,0.4558,0.4025,0.403,0.3153,0.2544,0.147,0.1408,0.1407,0.2008,0.322,0.3701,-0.0,-0.0,-0.0,-0.0,-0.0,0.2627,0.2626,0.2016,0.1477,0.141,0.141,0.141,0.1276,0.0403,-0.0,-0.0,-0.0,-0.0,-0.0,-0.0,-0.0,-0.0,-0.0,-0.0,-0.0,-0.0,-0.0,-0.0,-0.0,-0.0,-0.0,-0.0,-0.0,-0.3109,-0.3756,-0.3808,-0.3616,-0.3958,-0.4183,-0.4746,-0.471,-0.4724,-0.4687,-0.4707,-0.4735,-0.4775,-0.4766,-0.475,1.2983,0.9589,1.3636,1.5393,1.4101,0.7633,0.0,0.0802,0.0,0.8503,1.4438,1.4937,1.6861,2.1352,2.5797,2.9282,3.0102,2.6774,2.6123,2.5799,2.3091,2.1917,2.308,2.378,2.445,2.4996,2.5848,2.7029,2.8165,2.7949,2.7754,2.7754,2.7261,2.6485,2.5894,2.5513,2.516,2.4895,2.4146,2.2829,2.0195,1.7531,1.5846,1.6012,1.4121,1.2251,1.0698,0.9951,0.9139,0.8549,0.8231,0.8192,0.7931,0.7353,0.6601,0.5833,0.5505,0.5446,0.5316,0.5256,0.4298,0.3347,0.3303,0.3311,0.3574,0.433,0.4386,0.1831,-0.0,-0.0,-0.0,-0.0,0.4498,0.4901,0.3922,0.3218,0.322,0.3222,0.3222,0.2686,0.168,-0.0,-0.0,-0.0,-0.0,-0.0,-0.0,-0.0,-0.0,-0.0,-0.0,-0.0,-0.0,-0.0,-0.0,-0.0,-0.0,-0.0,-0.0,-0.0,-0.0,-0.307,-0.3066,-0.3181,-0.2668,-0.2965,-0.3882,-0.4822,-0.4863,-0.4896,-0.4894,-0.4931,-0.4945,-0.4969,-0.4944,1.5043,1.4569,1.526,1.5431,1.6062,1.7194,1.1017,0.3033,1.2879,1.6698,1.7092,1.8398,2.0723,2.3999,2.8259,2.9633,2.8193,2.614,2.5195,2.5133,2.1765,2.0532,2.1989,2.1948,2.2849,2.3692,2.4777,2.6551,2.8033,2.8307,2.873,2.9043,2.8598,2.8178,2.7352,2.6487,2.632,2.6521,2.5486,2.3378,2.0578,1.8267,1.6644,1.5448,1.3943,1.2228,1.0835,1.0308,0.9913,0.9274,0.9139,0.8753,0.8177,0.7977,0.741,0.6639,0.5911,0.5432,0.5435,0.5376,0.5333,0.4806,0.5015,0.5287,0.5208,0.528,0.5443,0.5538,0.3815,0.2793,0.2706,0.3022,0.3985,0.4786,0.5092,0.4833,0.4876,0.4461,0.4521,0.4607,0.3668,0.3183,-0.0,-0.0,-0.0,-0.0,-0.0,-0.0,-0.0,-0.0,-0.0,-0.0,-0.0,-0.0,-0.0,-0.0,-0.0,-0.0,-0.0,-0.0,-0.0,-0.2087,-0.2971,-0.2878,-0.0,-0.0,-0.3223,-0.4124,-0.4732,-0.5044,-0.5036,-0.5067,-0.5091,-0.5114,-0.5142,1.7118,2.0078,2.2978,2.4183,2.4366,2.5849,2.3208,1.8997,2.0157,2.3182,2.4752,2.3638,2.5152,2.8195,3.0949,3.0259,2.7727,2.4407,2.3393,2.3083,1.9967,1.8446,2.0448,2.1328,2.2001,2.2411,2.4458,2.6237,2.7637,2.8514,2.9076,2.958,2.9136,2.8429,2.8102,2.7192,2.6708,2.5799,2.402,2.2395,2.101,1.8513,1.6239,1.5929,1.4036,1.229,1.1052,1.0555,1.0434,1.0047,1.0047,0.9913,0.9454,0.9064,0.849,0.82,0.685,0.6009,0.5495,0.5435,0.5413,0.5488,0.5645,0.5627,0.5744,0.5818,0.5937,0.5943,0.5377,0.4938,0.477,0.4684,0.5018,0.5483,0.564,0.562,0.5596,0.562,0.5497,0.5638,0.5648,0.4897,0.4301,0.4202,0.3986,-0.0,-0.0,-0.0,-0.0,-0.0,-0.0,-0.0,-0.0,-0.0,-0.0,-0.0,-0.0,-0.0,-0.0,-0.0,-0.0,-0.1012,-0.0,-0.0,-0.0,-0.0,-0.0,-0.3468,-0.4257,-0.4775,-0.5243,-0.5199,-0.5216,-0.5247,-0.527,2.0407,2.5357,2.7939,2.9676,3.0898,3.0918,3.0625,3.0069,2.6591,2.8317,3.1567,2.9732,2.9576,3.1738,3.2031,3.1049,2.8867,2.3103,2.1101,1.9656,1.7718,1.6116,1.7364,1.8896,2.0565,2.0105,2.3733,2.5644,2.6971,2.8364,2.9673,2.9769,2.9134,2.8557,2.7957,2.7295,2.6775,2.6114,2.3465,2.2217,2.1582,1.8679,1.6888,1.5652,1.4163,1.2397,1.1247,1.0681,1.0561,1.0561,1.0491,1.0428,1.0295,0.9907,0.9473,0.8972,0.7834,0.6793,0.6142,0.5755,0.5559,0.5566,0.5698,0.58,0.5911,0.6068,0.6075,0.6117,0.6098,0.6108,0.6236,0.5995,0.5874,0.5778,0.5813,0.581,0.5803,0.5786,0.5759,0.5768,0.5807,0.5846,0.5542,0.5725,0.5685,0.564,-0.0,0.146,-0.0,-0.0,-0.0,-0.0,-0.0,-0.0,-0.0,-0.0,-0.0,-0.0,-0.0,-0.0,-0.0,-0.0,-0.0,-0.0,-0.0,-0.0,-0.0,-0.0,-0.3744,-0.4644,-0.5287,-0.5384,-0.5408,-0.5428,-0.5428,2.569,3.0005,2.5743,2.6831,3.0918,3.0918,3.0918,3.0996,3.1205,3.2731,3.5023,3.3711,3.2656,3.3086,3.2617,3.2031,3.1289,2.3867,1.9255,1.6599,1.5068,1.3114,1.3965,1.5999,1.8096,1.6933,2.1041,2.4333,2.6233,2.8895,2.9789,2.9836,2.9414,2.8759,2.8051,2.7317,2.6803,2.6097,2.4177,2.2436,2.1537,1.9473,1.7741,1.5537,1.3942,1.265,1.2065,1.1122,1.0618,1.0618,1.0618,1.0618,1.0555,1.0481,1.016,0.9644,0.884,0.7937,0.738,0.6237,0.5662,0.5667,0.582,0.602,0.6129,0.6196,0.6294,0.6256,0.6307,0.6314,0.6246,0.6118,0.6105,0.6077,0.5969,0.5932,0.5915,0.5891,0.5861,0.5813,0.5902,0.611,0.6155,0.6264,0.6115,0.5919,0.5783,0.345,0.1113,-0.0,-0.0,-0.0,-0.0,-0.0,-0.0,-0.0,-0.0,-0.0,-0.0,-0.0,-0.0,-0.0,-0.0,-0.0,-0.0,-0.0,-0.0,-0.0,-0.3416,-0.4703,-0.5382,-0.5369,-0.5428,-0.5428,-0.5428,2.9906,3.1426,2.8932,2.9074,3.0937,3.1465,3.1406,3.1309,3.292,3.4515,3.5957,3.5293,3.4687,3.4082,3.3223,3.1934,2.9394,2.1211,1.6303,1.2198,0.9959,0.9392,1.0362,1.1767,1.3014,1.3523,1.8326,2.1981,2.2729,2.8021,2.9473,2.9573,2.9851,2.9506,2.8715,2.7339,2.6742,2.5917,2.4283,2.2136,2.1424,1.9223,1.7268,1.5219,1.3787,1.272,1.1919,1.1059,1.0744,1.0631,1.0575,1.0651,1.0678,1.0786,1.0738,1.0411,0.9702,0.9194,0.8549,0.7103,0.583,0.5888,0.6047,0.6193,0.6261,0.6261,0.6261,0.6254,0.6261,0.6261,0.624,0.6203,0.6169,0.6156,0.6122,0.6067,0.604,0.602,0.6388,0.6585,0.6499,0.6497,0.654,0.6663,0.6402,0.6211,0.6003,0.5387,0.3111,0.1055,-0.0,-0.0,-0.0,-0.0,-0.0,-0.0,-0.0,-0.0,-0.0,-0.0,-0.0,-0.0,-0.0,-0.0,-0.0,-0.0,-0.0,-0.0,-0.3153,-0.4785,-0.5389,-0.5372,-0.5432,-0.5428,-0.5428,3.2567,3.2458,3.172,3.1498,3.1669,3.1773,3.1766,3.2031,3.3672,3.5137,3.5996,3.5976,3.5703,3.4961,3.4121,3.2832,2.9394,2.3014,1.6718,1.2786,1.0296,0.7736,0.7721,0.878,1.0214,1.0833,1.6572,2.1034,2.1565,2.7657,2.9842,3.0394,3.039,2.9955,2.8678,2.7496,2.6679,2.603,2.3985,2.1928,2.1471,1.9326,1.7259,1.5566,1.4195,1.3296,1.2472,1.1654,1.0873,1.0795,1.0775,1.0799,1.0833,1.0981,1.1134,1.1,1.067,1.0313,0.9575,0.805,0.6306,0.6146,0.6162,0.624,0.6261,0.6261,0.6261,0.6261,0.6261,0.6261,0.6261,0.624,0.6234,0.6213,0.6217,0.6176,0.6183,0.6252,0.6874,0.7335,0.7214,0.7022,0.6839,0.6853,0.6458,0.6276,0.6213,0.5915,0.4961,0.3079,-0.0,-0.0,-0.0,-0.0,-0.0,-0.0,-0.0,-0.0,-0.0,-0.0,-0.0,-0.0,-0.0,-0.0,-0.0,-0.0,-0.1385,-0.2929,-0.4056,-0.5142,-0.5339,-0.5406,-0.5432,-0.5428,-0.5428,3.3379,3.3304,3.2779,3.2646,3.2076,3.1534,3.1817,3.2891,3.4043,3.5059,3.5957,3.5996,3.5996,3.5684,3.4941,3.4043,3.2109,2.7109,2.1963,1.7611,1.4013,0.8969,0.7007,0.7683,1.0791,0.9029,1.5789,2.2172,2.2057,2.8395,3.0985,3.0783,3.0164,2.9507,2.8141,2.7599,2.7268,2.6792,2.437,2.2866,2.1631,1.9761,1.7913,1.6476,1.4976,1.4036,1.3387,1.2476,1.1661,1.1102,1.137,1.1414,1.1316,1.1337,1.1617,1.1985,1.1122,1.0731,1.0615,0.8601,0.7447,0.6572,0.6479,0.6254,0.6261,0.6261,0.6261,0.6261,0.6261,0.6261,0.6261,0.6261,0.6261,0.6261,0.6261,0.6261,0.6261,0.6641,0.7326,0.8003,0.7938,0.7744,0.7359,0.7019,0.6486,0.6254,0.6268,0.6038,0.5721,0.501,0.3589,-0.0,-0.0,-0.0,-0.0,-0.0,-0.0,-0.0,-0.0,-0.0,-0.0,-0.0,-0.0,-0.0,-0.0,-0.0,-0.3235,-0.4302,-0.4986,-0.5562,-0.5474,-0.5443,-0.5463,-0.5382,-0.541,3.416,3.3945,3.3378,2.9265,2.4643,3.013,3.2287,3.2256,3.4196,3.546,3.5931,3.6012,3.5995,3.5875,3.5254,3.457,3.3281,2.8613,2.3944,2.653,1.9004,1.5981,1.2765,1.1311,1.3502,1.567,2.0986,2.4051,2.4521,2.9706,3.09,3.0526,2.8748,2.7983,2.7961,2.7719,2.7379,2.6725,2.4747,2.2892,2.2147,2.0075,1.8243,1.7129,1.5714,1.4815,1.4231,1.332,1.2549,1.1573,1.1799,1.2183,1.2069,1.2075,1.2431,1.3187,1.2964,1.2297,1.171,1.029,0.898,0.7838,0.6872,0.6563,0.6338,0.6261,0.6261,0.6412,0.6563,0.6563,0.6261,0.6338,0.6338,0.6261,0.6261,0.6261,0.6412,0.7096,0.7778,0.8528,0.8784,0.8241,0.7753,0.7026,0.6423,0.6291,0.6305,0.6281,0.6035,0.6048,0.5254,0.3917,-0.0,-0.0,-0.0,-0.0,-0.0,-0.0,-0.0,-0.0,-0.0,-0.0,-0.0,-0.0,-0.0,-0.4393,-0.473,-0.5117,-0.5541,-0.5867,-0.5755,-0.564,-0.562,-0.5576,-0.5456,3.5059,3.4394,2.9879,2.6901,2.5291,3.1499,2.9619,2.1629,2.0213,2.2844,2.8241,2.9214,2.9079,2.9686,3.1135,2.912,2.7754,2.5156,2.7861,2.9775,1.4967,0.9799,0.9596,1.1902,0.9335,1.4109,2.0792,2.5005,2.5158,3.0041,3.0508,2.8323,2.655,2.5937,2.6235,2.6317,2.6361,2.5379,2.3516,2.256,2.1371,1.9771,1.8224,1.7478,1.6476,1.5495,1.4672,1.403,1.337,1.2386,1.2276,1.2912,1.2862,1.3009,1.3438,1.4367,1.4711,1.3996,1.3288,1.1864,1.0587,0.9632,0.8147,0.7399,0.7342,0.7521,0.7504,0.7496,0.7257,0.7176,0.7099,0.7107,0.7266,0.7266,0.7391,0.7477,0.734,0.7973,0.8902,0.9643,0.9402,0.8755,0.8012,0.7103,0.6359,0.6312,0.6342,0.639,0.6291,0.6074,0.6081,0.5193,0.3851,-0.0,-0.0,-0.0,-0.0,-0.0,-0.0,-0.0,-0.0,-0.0,-0.0,-0.3678,-0.4232,-0.4779,-0.537,-0.58,-0.5541,-0.5757,-0.6057,-0.5932,-0.5871,-0.5701,-0.5601,3.5996,3.4245,2.3436,2.429,3.185,2.9151,1.8825,-0.0148,-0.7631,0.014,1.695,1.5572,1.5991,1.8175,2.1257,1.8507,1.4668,1.584,2.1269,2.1563,0.709,0.1369,-0.1613,0.054,0.3686,0.7516,1.3961,2.2557,2.4318,2.7835,2.8141,2.5455,2.416,2.3872,2.4142,2.375,2.4088,2.3402,2.2549,2.1623,2.061,1.9059,1.8235,1.7639,1.7098,1.6222,1.5462,1.4771,1.3737,1.2949,1.259,1.3055,1.3338,1.3671,1.4603,1.5404,1.5773,1.5501,1.5008,1.3492,1.2802,1.2094,1.0657,0.9868,0.9018,0.8755,0.8593,0.8669,0.8669,0.8565,0.8551,0.8864,0.9099,0.924,0.9407,0.919,0.8815,0.9385,1.0354,1.0614,1.0011,0.937,0.8389,0.7434,0.6352,0.6376,0.6486,0.6469,0.6215,0.551,0.5583,0.6009,0.4658,0.3312,-0.0,-0.0,-0.0,-0.0,-0.0,-0.0,-0.0,-0.0,-0.0,-0.0,-0.0,-0.5176,-0.5653,-0.5416,-0.4894,-0.5277,-0.6083,-0.6142,-0.5979,-0.5908,-0.5741,3.5983,3.5613,3.2214,1.6884,-0.457,-0.5841,-0.7497,-0.939,-1.6219,-1.0917,0.2499,-0.1722,0.1216,0.7789,0.5695,0.3582,0.3987,0.6113,0.7852,0.4946,-0.0523,-1.1659,-1.346,-0.7957,-0.1042,0.5242,1.1547,1.8158,1.9069,2.3018,2.1567,1.7671,1.9592,2.0687,2.0789,1.9979,2.0986,2.1671,2.0956,2.042,1.991,1.8702,1.8232,1.791,1.7735,1.6941,1.621,1.6428,1.5539,1.4498,1.501,1.5694,1.6448,1.5593,1.5336,1.6182,1.6536,1.6668,1.6445,1.5454,1.477,1.471,1.3722,1.1593,1.0345,0.9651,0.9677,0.9882,0.9972,0.9921,1.0046,1.0353,1.0492,1.0584,1.0665,1.0458,1.0152,1.0729,1.163,1.1214,1.0605,0.9652,0.8731,0.7395,0.6458,0.6471,0.6561,0.6565,0.6231,0.5439,0.4426,0.4862,-0.0,-0.0,-0.0,-0.0,-0.0,-0.0,-0.0,-0.0,-0.0,-0.0,-0.0,-0.0,-0.0,-0.0,-0.597,-0.5584,-0.519,-0.5497,-0.624,-0.6173,-0.6146,-0.6071,-0.5973,3.3159,2.9155,2.89,1.0689,-1.5039,-2.1492,-1.9837,-1.6717,-2.0852,-1.7937,-1.2079,-1.3922,-1.2119,-0.6906,-0.4252,-0.546,-1.2271,-0.5477,-0.4035,-1.0749,-0.9049,-1.9226,-2.1497,-1.4296,-0.5866,0.0176,0.4982,1.1016,1.3665,1.1583,0.9548,0.8783,-0.0,-0.0,1.6468,1.7166,1.8231,1.9263,1.962,1.9199,1.8753,1.8498,1.8291,1.8193,1.8144,1.751,1.6913,1.756,1.7033,1.6018,1.6564,1.7549,1.8495,1.7956,1.7679,1.846,1.809,1.8169,1.7833,1.6918,1.6746,1.658,1.6032,1.447,1.2893,1.1966,1.1517,1.1218,1.1216,1.1265,1.15,1.1662,1.1682,1.1618,1.1588,1.1558,1.1817,1.2158,1.201,1.1682,1.0958,1.0009,0.8787,0.7411,0.6597,0.6671,0.6709,0.6798,0.6258,0.5314,0.3596,0.2731,-0.0,-0.0,-0.0,-0.0,-0.0,-0.0,-0.0,-0.0,-0.0,-0.0,-0.0,-0.0,-0.0,-0.0,-0.0,-0.0,-0.5999,-0.6061,-0.597,-0.6207,-0.6271,-0.621,-0.6142,2.9764,1.9835,1.6665,0.4914,-1.0278,-1.9346,-2.1563,-2.0789,-2.1772,-2.2468,-2.1688,-2.1419,-2.0595,-1.66,-1.0866,-1.3361,-1.7168,-1.4484,-1.4962,-2.818,-2.402,-2.7327,-2.4216,-1.8487,-1.3668,-1.0959,-0.6529,0.0827,0.9453,-0.0,-0.0,-0.0,-0.0,-0.0,1.1676,1.5314,1.6849,1.7036,1.7789,1.7944,1.7797,1.7845,1.8163,1.8457,1.8133,1.7647,1.7257,1.7279,1.7562,1.7252,1.7668,1.8861,1.9877,2.0944,2.1055,2.0554,1.9869,1.9578,1.9175,1.8338,1.8064,1.7746,1.7171,1.6606,1.5518,1.3751,1.2956,1.2674,1.2679,1.2468,1.2556,1.2782,1.282,1.28,1.276,1.2714,1.2733,1.2893,1.2767,1.2266,1.1133,1.0075,0.8844,0.7522,0.6732,0.6763,0.6793,0.6878,0.6525,0.5526,0.4264,0.2207,-0.0,-0.0,-0.0,-0.0,-0.0,-0.0,-0.0,-0.0,-0.0,-0.0,-0.0,-0.0,-0.0,-0.0,-0.0,-0.0,-0.0,-0.4945,-0.5098,-0.6058,-0.6285,-0.6268,-0.6257,3.4389,2.918,0.5561,-1.0621,-1.8924,-1.9298,-1.9905,-2.0462,-1.953,-2.0083,-2.093,-2.096,-2.0992,-1.9845,-1.7283,-1.926,-2.0335,-2.0497,-2.1354,-2.4016,-2.5787,-2.594,-2.54,-2.2334,-2.1393,-2.1964,-1.7774,-0.9464,0.0759,-0.0,-0.0,-0.0,-0.0,-0.0,0.8538,1.3094,1.5761,1.5602,1.5937,1.6911,1.7456,1.8015,1.8521,1.8494,1.8222,1.8018,1.794,1.8422,1.8726,1.8793,1.9916,2.086,2.1625,2.2833,2.2821,2.2018,2.1325,2.1,2.0502,1.9836,1.9464,1.9383,1.9081,1.865,1.7535,1.5561,1.4408,1.4288,1.4017,1.3716,1.3572,1.3745,1.3871,1.382,1.3847,1.3704,1.3555,1.3535,1.351,1.2439,1.1288,1.0037,0.8867,0.7889,0.7168,0.682,0.683,0.6929,0.697,0.642,0.637,0.4387,0.1499,-0.0,-0.0,-0.0,-0.0,-0.0,-0.0,-0.0,-0.0,-0.0,-0.0,-0.0,-0.0,-0.0,-0.0,-0.0,-0.0,-0.0,-0.4077,-0.4875,-0.5999,-0.6308,-0.6312,3.3589,3.2077,0.4359,-1.0061,-1.3946,-1.8135,-2.0227,-1.9781,-1.8578,-1.8543,-1.953,-2.0204,-2.0635,-2.0747,-2.1009,-2.1483,-2.2076,-2.1913,-2.1641,-2.2337,-2.3371,-2.3136,-2.3378,-2.3829,-2.2834,-2.3371,-2.2356,-1.5586,-0.622,-0.0,-0.0,-0.0,-0.0,0.2198,0.6861,1.1824,1.5031,1.4669,1.4808,1.5779,1.7141,1.7728,1.8518,1.8524,1.8574,1.8478,1.9059,1.9631,2.0369,2.1216,2.2542,2.3214,2.3874,2.4627,2.4384,2.3579,2.2831,2.2413,2.1873,2.1335,2.0862,2.0765,2.0313,1.9712,1.945,1.7614,1.6071,1.5717,1.5025,1.474,1.4061,1.4001,1.4028,1.3964,1.3971,1.3899,1.3906,1.3899,1.336,1.2474,1.1252,1.0129,0.8966,0.7842,0.7118,0.6944,0.7027,0.7014,0.6964,0.6967,0.7097,0.6605,0.3676,-0.0,-0.0,-0.0,-0.0,-0.0,-0.0,-0.0,-0.0,-0.0,-0.0,-0.0,-0.0,-0.0,-0.0,-0.0,-0.0,-0.0,-0.2511,-0.3696,-0.4813,-0.5617,-0.505,2.983,3.1812,0.8162,-0.2533,-0.4167,-1.701,-2.1768,-1.9771,-1.8522,-1.8128,-1.859,-2.0118,-2.0586,-2.085,-2.1504,-2.2078,-2.2403,-2.2356,-2.1863,-2.1954,-2.2764,-2.2469,-2.214,-2.1942,-2.2157,-2.1907,-2.1145,-1.8213,-1.2557,-0.0,-0.0,-0.0,-0.0,0.1814,0.6076,1.0701,1.4068,1.4493,1.4924,1.5576,1.6397,1.7192,1.8359,1.8947,1.9056,1.9224,1.9802,2.0774,2.1784,2.2941,2.4247,2.5353,2.5792,2.6207,2.5855,2.5261,2.4854,2.4196,2.3362,2.2612,2.2282,2.1922,2.1268,2.0837,2.0633,1.9681,1.817,1.7025,1.6337,1.554,1.4853,1.4314,1.4321,1.4088,1.4088,1.4088,1.4088,1.4082,1.3288,1.2413,1.1203,1.0086,0.879,0.7658,0.7309,0.7139,0.7139,0.7139,0.7132,0.7112,0.7082,0.7142,0.5854,-0.0,-0.0,-0.0,-0.0,-0.0,-0.0,-0.0,-0.0,-0.0,-0.0,-0.0,-0.0,-0.0,-0.0,-0.0,-0.0,-0.0,-0.0,-0.0,-0.299,-0.3544,-0.2912,2.6102,3.3981,1.1367,0.01,-0.4773,-1.7389,-2.2434,-2.1116,-1.9026,-1.8332,-1.9391,-2.0432,-2.0952,-2.0325,-2.1621,-2.2319,-2.2634,-2.2683,-2.2826,-2.284,-2.3125,-2.2566,-2.2012,-2.1852,-2.2215,-2.1661,-2.0896,-1.9767,-1.5498,-0.0,-0.0,-0.0,-0.0,-0.0,0.2176,0.7563,1.324,1.3881,1.4421,1.4908,1.6047,1.7209,1.8887,1.9418,1.959,1.9466,1.9747,2.101,2.1753,2.2796,2.4509,2.6453,2.7384,2.7678,2.7394,2.7178,2.6778,2.6552,2.5735,2.468,2.4271,2.3341,2.2829,2.2392,2.1993,2.1403,2.0029,1.8691,1.784,1.6672,1.5936,1.5372,1.522,1.4412,1.4088,1.4088,1.4088,1.3815,1.3372,1.2151,1.0935,0.9561,0.8101,0.7401,0.7224,0.7139,0.7139,0.7139,0.7139,0.7139,0.7139,0.7122,0.7099,-0.0,-0.0,-0.0,-0.0,-0.0,-0.0,-0.0,-0.0,-0.0,-0.0,-0.0,-0.0,-0.0,-0.0,-0.0,-0.0,-0.0,-0.0,-0.0,-0.0,-0.0,-0.0]},{"header":{"parameterUnit":"m.s-1","parameterCategory":1,"la1":31.0,"la2":29.5877,"lo1":-88.7671,"lo2":-86.6584,"dy":0.0162,"dx":0.0185,"nx":115,"ny":88,"refTime":"2026-05-09T12:00:00:Z","depth":0,"parameterNumber":3,"parameterNumberName":"V-component_of_WINDS"},"data":[0.0,0.0,0.0,0.0,0.0,0.0,0.0,0.0,0.0,0.0,0.0,0.0,0.0,0.0,0.0,0.0,0.0,0.0,0.0,0.0,0.0,0.0,0.0,0.0,0.0,0.0,0.0,0.0,0.0,0.0,0.0,0.0,0.0,0.0,0.0,0.0,0.0,0.0,0.0,0.0,0.0,0.0,0.0,0.0,0.0,0.0,0.0,0.0,0.0,0.0,0.0,0.0,0.0,0.0,0.0,0.0,0.0,0.0,0.0,0.0,0.0,0.0,0.0,0.0,0.0,0.0,0.0,0.0,0.0,0.0,0.0,0.0,0.0,0.0,0.0,0.0,0.0,0.0,0.0,0.0,0.0,0.0,0.0,0.0,0.0,0.0,0.0,0.0,0.0,0.0,0.0,0.0,0.0,0.0,0.0,0.0,0.0,0.0,0.0,0.0,0.0,0.0,0.0,0.0,0.0,0.0,0.0,0.0,0.0,0.0,0.0,0.0,0.0,0.0,0.0,0.0,0.0,0.0,0.0,0.0,0.0,0.0,0.0,0.0,0.0,0.0,0.0,0.0,0.0,0.0,0.0,0.0,0.0,0.0,0.0,0.0,0.0,0.0,0.0,0.0,0.0,0.0,0.0,0.0,0.0,0.0,0.0,0.0,0.0,0.0,0.0,0.0,0.0,0.0,0.0,0.0,0.0,0.0,0.0,0.0,0.0,0.0,0.0,0.0,0.0,0.0,0.0,0.0,0.0,0.0,0.0,0.0,0.0,0.0,0.0,0.0,0.0,0.0,0.0,0.0,0.0,0.0,0.0,0.0,0.0,0.0,0.0,0.0,0.0,0.0,0.0,0.0,0.0,0.0,0.0,0.0,0.0,0.0,0.0,0.0,0.0,0.0,0.0,0.0,0.0,0.0,0.0,0.0,0.0,0.0,0.0,0.0,0.0,0.0,0.0,0.0,0.0,0.0,0.0,0.0,0.0,0.0,0.0,0.0,0.0,0.0,0.0,0.0,0.0,0.0,0.0,0.0,0.0,0.0,0.0,0.0,0.0,0.0,0.0,0.0,0.0,0.0,0.0,0.0,0.0,0.0,0.0,0.0,0.0,0.0,0.0,0.0,0.0,0.0,0.0,0.0,0.0,0.0,0.0,0.0,0.0,0.0,0.0,0.0,0.0,0.0,0.0,0.0,0.0,0.0,0.0,0.0,0.0,0.0,0.0,0.0,0.0,0.0,0.0,0.0,0.0,0.0,0.0,0.0,0.0,0.0,0.0,0.0,0.0,0.0,0.0,0.0,0.0,0.0,0.0,0.0,0.0,0.0,0.0,0.0,0.0,0.0,0.0,0.0,0.0,0.0,0.0,0.0,0.0,0.0,0.0,0.0,0.0,0.0,0.0,0.0,0.0,0.0,0.0,0.0,0.0,0.0,0.0,0.0,0.0,0.0,0.0,0.0,0.0,0.0,0.0,0.0,0.0,0.0,0.0,0.0,0.0,0.0,0.0,0.0,0.0,0.0,0.0,0.0,0.0,0.0,0.0,0.0,0.0,0.0,0.0,0.0,0.0,0.0,0.0,0.0,0.0,0.0,0.0,0.0,0.0,0.0,0.0,0.0,0.0,0.0,0.0,0.0,0.0,0.0,0.0,0.0,0.0,0.0,0.0,0.0,0.0,0.0,0.0,0.0,0.0,0.0,0.0,0.0,0.0,0.0,0.0,0.0,0.0,0.0,0.0,0.0,0.0,0.0,0.0,0.0,0.0,0.0,0.0,0.0,0.0,0.0,0.0,0.0,0.0,0.0,0.0,0.0,0.0,0.0,0.0,0.0,0.0,0.0,0.0,0.0,0.0,0.0,0.0,0.0,0.0,0.0,0.0,0.0,0.0,0.0,0.0,0.0,0.0,0.0,0.0,0.0,0.0,0.0,0.0,0.0,0.0,0.0,0.0,0.0,0.0,0.0,0.0,0.0,0.0,0.0,0.0,0.0,0.0,0.0,0.0,0.0,0.0,0.0,0.0,0.0,0.0,0.0,0.0,0.0,0.0,0.0,0.0,0.0,0.0,0.0,0.0,0.0,0.0,0.0,0.0,0.0,0.0,0.0,0.0,0.0,0.0,0.0,0.0,0.0,0.0,0.0,0.0,0.0,0.0,0.0,0.0,0.0,0.0,0.0,0.0,0.0,0.0,0.0,0.0,0.0,0.0,0.0,0.0,0.0,0.0,0.0,0.0,0.0,0.0,0.0,0.0,0.0,0.0,0.0,0.0,0.0,0.0,0.0,0.0,0.0,0.0,0.0,0.0,0.0,0.0,0.0,0.0,0.0,0.0,0.0,0.0,0.0,0.0,0.0,0.0,0.0,0.0,0.0,0.0,0.0,0.0,0.0,0.0,0.0,0.0,0.0,0.0,0.0,0.0,0.0,0.0,0.0,0.0,0.0,0.0,0.0,0.0,0.0,0.0,0.0,0.0,0.0,0.0,0.0,0.0,0.0,0.0,0.0,0.0,0.0,0.0,0.0,0.0,0.0,0.0,0.0,0.0,0.0,0.0,0.0,0.0,0.0,0.0,0.0,0.0,0.0,0.0,0.0,0.0,0.0,0.0,0.0,0.0,0.0,0.0,0.0,0.0,0.0,0.0,0.0,0.0,0.0,0.0,0.0,0.0,0.0,0.0,0.0,0.0,0.0,0.0,0.0,0.0,0.0,0.0,0.0,0.0,0.0,0.0,0.0,0.0,0.0,0.0,0.0,0.0,0.0,0.0,0.0,0.0,0.0,0.0,0.0,0.0,0.0,0.0,0.0,0.0,0.0,0.0,0.0,0.0,0.0,0.0,0.0,0.0,0.0,0.0,0.0,0.0,0.0,0.0,0.0,0.0,0.0,0.0,0.0,0.0,0.0,0.0,0.0,0.0,0.0,0.0,0.0,0.0,0.0,0.0,0.0,0.0,0.0,0.0,0.0,0.0,0.0,0.0,0.0,0.0,0.0,0.0,0.0,0.0,0.0,0.0,0.0,0.0,0.0,0.0,0.0,0.0,0.0,0.0,0.0,0.0,0.0,0.0,0.0,0.0,0.0,0.0,0.0,0.0,0.0,0.0,0.0,0.0,0.0,0.0,0.0,0.0,0.0,0.0,0.0,0.0,0.0,0.0,0.0,0.0,0.0,0.0,0.0,0.0,0.0,0.0,0.0,0.0,0.0,0.0,0.0,0.0,0.0,0.0,0.0,0.0,0.0,0.0,0.0,0.0,0.0,0.0,0.0,0.0,0.0,0.0,0.0,0.0,0.0,0.0,0.0,0.0,0.0,0.0,0.0,0.0,0.0,0.0,0.0,0.0,0.0,0.0,0.0,0.0,0.0,0.0,0.0,0.0,0.0,0.0,0.0,0.0,0.0,0.0,0.0,0.0,0.0,0.0,0.0,0.0,0.0,0.0,0.0,0.0,0.0,0.0,0.0,0.0,0.0,0.0,0.0,0.0,0.0,0.0,0.0,0.0,0.0,0.0,0.0,0.0,0.0,0.0,0.0,0.0,0.0,0.0,0.0,0.0,0.0,0.0,0.0,0.0,0.0,0.0,0.0,0.0,0.0,0.0,0.0,0.0,0.0,0.0,0.0,0.0,0.0,0.0,0.0,0.0,0.0,0.0,0.0,0.0,0.0,0.0,0.0,0.0,0.0,0.0,0.0,0.0,0.0,0.0,0.0,0.0,0.0,0.0,0.0,0.0,0.0,0.0,0.0,0.0,0.0,0.0,0.0,0.0,0.0,0.0,0.0,0.0,0.0,0.0,0.0,0.0,0.0,0.0,0.0,0.0,0.0,0.0,0.0,0.0,0.0,0.0,0.0,0.0,0.0,0.0,0.0,0.0,0.0,0.0,0.0,0.0,0.0,0.0,0.0,0.0,0.0,0.0,0.0,0.0,0.0,0.0,0.0,0.0,0.0,0.0,0.0,0.0,0.0,0.0,0.0,0.0,0.0,0.0,0.0,0.0,0.0,0.0,0.0,0.0,0.0,0.0,0.0,0.0,0.0,0.0,0.0,0.0,0.0,0.0,0.0,0.0,0.0,0.0,0.0,0.0,0.0,0.0,0.0,0.0,0.0,0.0,0.0,0.0,0.0,0.0,0.0,0.0,0.0,0.0,0.0,0.0,0.0,0.0,0.0,0.0,0.0,0.0,0.0,0.0,0.0,0.0,0.0,0.0,0.0,0.0,0.0,0.0,0.0,0.0,0.0,0.0,0.0,0.0,0.0,0.0,0.0,0.0,0.0,0.0,0.0,-2.9008,0.0,0.0,0.0,0.0,0.0,0.0,0.0,0.0,0.0,0.0,0.0,0.0,0.0,0.0,0.0,0.0,0.0,0.0,0.0,0.0,0.0,0.0,0.0,0.0,0.0,0.0,0.0,0.0,0.0,0.0,0.0,0.0,0.0,0.0,0.0,0.0,0.0,0.0,0.0,0.0,0.0,0.0,0.0,0.0,0.0,0.0,0.0,0.0,0.0,0.0,0.0,0.0,0.0,0.0,0.0,0.0,0.0,0.0,0.0,0.0,0.0,0.0,0.0,0.0,0.0,0.0,0.0,0.0,0.0,0.0,0.0,0.0,0.0,0.0,0.0,0.0,0.0,0.0,0.0,0.0,0.0,0.0,0.0,0.0,0.0,0.0,0.0,0.0,0.0,0.0,0.0,0.0,0.0,0.0,0.0,0.0,0.0,0.0,0.0,0.0,0.0,0.0,0.0,0.0,0.0,0.0,0.0,0.0,0.0,0.0,-3.0107,-3.0142,-3.0448,-3.0002,-2.8679,0.0,0.0,0.0,0.0,0.0,0.0,0.0,0.0,0.0,0.0,0.0,0.0,0.0,0.0,0.0,0.0,0.0,0.0,0.0,0.0,0.0,0.0,0.0,0.0,0.0,0.0,0.0,0.0,0.0,0.0,0.0,0.0,0.0,0.0,0.0,0.0,0.0,0.0,0.0,0.0,0.0,0.0,0.0,0.0,0.0,0.0,0.0,0.0,0.0,0.0,0.0,0.0,0.0,0.0,0.0,0.0,0.0,0.0,0.0,0.0,0.0,0.0,0.0,0.0,0.0,0.0,0.0,0.0,0.0,0.0,0.0,0.0,0.0,0.0,0.0,0.0,0.0,0.0,0.0,0.0,0.0,0.0,0.0,0.0,0.0,0.0,0.0,0.0,0.0,0.0,0.0,0.0,0.0,0.0,0.0,0.0,0.0,0.0,0.0,0.0,0.0,0.0,0.0,0.0,0.0,0.0,0.0,0.0,0.0,0.0,0.0,0.0,-3.0075,-2.9589,-2.7921,0.0,0.0,0.0,0.0,0.0,0.0,0.0,0.0,0.0,0.0,0.0,0.0,0.0,0.0,0.0,0.0,0.0,0.0,0.0,0.0,0.0,0.0,0.0,0.0,0.0,0.0,0.0,0.0,0.0,0.0,0.0,0.0,0.0,0.0,0.0,0.0,0.0,0.0,0.0,0.0,0.0,0.0,0.0,0.0,0.0,0.0,0.0,0.0,0.0,0.0,0.0,0.0,0.0,0.0,0.0,0.0,0.0,0.0,0.0,0.0,0.0,0.0,0.0,0.0,0.0,0.0,0.0,0.0,0.0,0.0,0.0,0.0,0.0,0.0,0.0,0.0,0.0,0.0,0.0,0.0,0.0,0.0,0.0,0.0,0.0,0.0,0.0,0.0,0.0,0.0,0.0,0.0,0.0,0.0,0.0,0.0,0.0,0.0,0.0,0.0,0.0,0.0,0.0,0.0,0.0,0.0,0.0,0.0,0.0,0.0,-2.8755,-2.8706,-2.8547,0.0,-2.6347,0.0,0.0,0.0,0.0,0.0,0.0,0.0,0.0,0.0,0.0,0.0,0.0,0.0,0.0,0.0,0.0,0.0,0.0,0.0,0.0,0.0,0.0,0.0,0.0,0.0,0.0,0.0,0.0,0.0,0.0,0.0,0.0,0.0,0.0,0.0,0.0,0.0,0.0,0.0,0.0,0.0,0.0,0.0,0.0,0.0,0.0,0.0,0.0,0.0,0.0,0.0,0.0,0.0,0.0,0.0,0.0,0.0,0.0,0.0,0.0,0.0,0.0,0.0,0.0,0.0,0.0,0.0,0.0,0.0,0.0,0.0,0.0,0.0,0.0,0.0,0.0,0.0,0.0,0.0,0.0,0.0,0.0,0.0,0.0,0.0,0.0,0.0,0.0,0.0,0.0,0.0,0.0,0.0,0.0,0.0,0.0,0.0,0.0,0.0,0.0,0.0,0.0,0.0,0.0,0.0,0.0,0.0,0.0,0.0,0.0,-2.8349,-2.8182,-2.7663,-2.6824,0.0,0.0,0.0,0.0,0.0,0.0,0.0,0.0,0.0,0.0,0.0,0.0,0.0,0.0,0.0,0.0,0.0,0.0,0.0,0.0,0.0,0.0,0.0,0.0,0.0,0.0,0.0,0.0,0.0,0.0,0.0,0.0,0.0,0.0,0.0,0.0,0.0,0.0,0.0,0.0,0.0,0.0,0.0,0.0,0.0,0.0,0.0,0.0,0.0,0.0,0.0,0.0,0.0,0.0,0.0,0.0,0.0,0.0,0.0,0.0,0.0,0.0,0.0,0.0,0.0,0.0,0.0,0.0,0.0,0.0,0.0,0.0,0.0,0.0,0.0,0.0,0.0,0.0,0.0,0.0,0.0,0.0,0.0,0.0,0.0,0.0,0.0,0.0,0.0,0.0,0.0,0.0,0.0,0.0,0.0,0.0,0.0,0.0,0.0,0.0,0.0,0.0,0.0,0.0,0.0,0.0,0.0,0.0,0.0,0.0,-2.8222,-2.7763,-2.7374,-2.6941,-2.6216,-2.5174,0.0,0.0,0.0,0.0,0.0,0.0,0.0,0.0,0.0,0.0,0.0,0.0,0.0,0.0,0.0,0.0,0.0,0.0,0.0,0.0,0.0,0.0,0.0,0.0,0.0,0.0,0.0,0.0,0.0,0.0,0.0,0.0,0.0,0.0,0.0,0.0,0.0,0.0,0.0,0.0,0.0,0.0,0.0,0.0,0.0,0.0,0.0,0.0,0.0,0.0,0.0,0.0,0.0,0.0,0.0,0.0,0.0,0.0,0.0,0.0,0.0,0.0,0.0,0.0,0.0,0.0,0.0,0.0,0.0,0.0,0.0,0.0,0.0,0.0,0.0,0.0,0.0,0.0,0.0,0.0,0.0,0.0,0.0,0.0,0.0,0.0,0.0,0.0,0.0,0.0,0.0,0.0,0.0,0.0,0.0,0.0,0.0,0.0,0.0,0.0,0.0,0.0,0.0,0.0,0.0,0.0,0.0,0.0,0.0,-2.763,-2.6922,-2.6145,-2.6335,-2.5824,0.0,0.0,0.0,0.0,0.0,0.0,0.0,0.0,0.0,0.0,0.0,0.0,0.0,0.0,0.0,0.0,0.0,0.0,0.0,0.0,0.0,0.0,0.0,0.0,0.0,0.0,0.0,0.0,0.0,0.0,0.0,0.0,0.0,0.0,0.0,0.0,0.0,0.0,0.0,0.0,0.0,0.0,0.0,0.0,0.0,0.0,0.0,0.0,0.0,0.0,0.0,0.0,0.0,0.0,0.0,0.0,0.0,0.0,0.0,0.0,0.0,0.0,0.0,0.0,0.0,0.0,0.0,0.0,0.0,0.0,0.0,0.0,0.0,0.0,0.0,0.0,0.0,0.0,0.0,0.0,0.0,0.0,0.0,0.0,0.0,0.0,0.0,0.0,0.0,0.0,0.0,0.0,0.0,0.0,0.0,0.0,0.0,0.0,0.0,0.0,0.0,0.0,0.0,0.0,0.0,0.0,0.0,0.0,0.0,-2.7157,-2.6337,-2.5811,-2.5477,-2.4713,-2.4043,0.0,0.0,0.0,0.0,0.0,0.0,0.0,0.0,0.0,0.0,0.0,0.0,0.0,0.0,0.0,0.0,0.0,0.0,0.0,0.0,0.0,0.0,0.0,0.0,0.0,0.0,0.0,0.0,0.0,0.0,0.0,0.0,0.0,0.0,0.0,0.0,0.0,0.0,0.0,0.0,0.0,0.0,0.0,0.0,0.0,0.0,0.0,0.0,0.0,0.0,0.0,0.0,0.0,0.0,0.0,0.0,0.0,0.0,0.0,0.0,0.0,0.0,0.0,0.0,0.0,0.0,0.0,0.0,0.0,0.0,0.0,0.0,0.0,0.0,0.0,0.0,0.0,0.0,0.0,0.0,0.0,0.0,0.0,0.0,0.0,0.0,0.0,0.0,0.0,0.0,0.0,0.0,0.0,0.0,0.0,0.0,0.0,0.0,0.0,0.0,0.0,0.0,0.0,0.0,0.0,0.0,0.0,0.0,0.0,-2.5592,0.0,-2.4415,0.0,-2.3507,-2.2907,0.0,0.0,0.0,0.0,0.0,0.0,0.0,0.0,0.0,0.0,0.0,0.0,0.0,0.0,0.0,0.0,0.0,0.0,0.0,0.0,0.0,0.0,0.0,0.0,0.0,0.0,0.0,0.0,0.0,0.0,0.0,0.0,0.0,0.0,0.0,0.0,0.0,0.0,0.0,0.0,0.0,0.0,0.0,0.0,0.0,0.0,0.0,0.0,0.0,0.0,0.0,0.0,0.0,0.0,0.0,0.0,0.0,0.0,0.0,0.0,0.0,0.0,0.0,0.0,0.0,0.0,0.0,0.0,0.0,0.0,0.0,0.0,0.0,0.0,0.0,0.0,0.0,0.0,0.0,0.0,0.0,0.0,0.0,0.0,0.0,0.0,0.0,0.0,0.0,0.0,0.0,0.0,0.0,0.0,0.0,0.0,0.0,0.0,0.0,0.0,0.0,0.0,0.0,0.0,0.0,0.0,0.0,0.0,-2.6118,-2.3497,-2.2812,-2.2805,-2.3432,-2.2832,-2.242,0.0,0.0,0.0,0.0,0.0,0.0,0.0,0.0,0.0,0.0,0.0,0.0,0.0,0.0,0.0,0.0,0.0,0.0,0.0,0.0,0.0,0.0,0.0,0.0,0.0,0.0,0.0,0.0,0.0,0.0,0.0,0.0,0.0,0.0,0.0,0.0,0.0,0.0,0.0,0.0,0.0,0.0,0.0,0.0,0.0,0.0,0.0,0.0,0.0,0.0,0.0,0.0,0.0,0.0,0.0,0.0,0.0,0.0,0.0,0.0,0.0,0.0,0.0,0.0,0.0,0.0,0.0,0.0,0.0,0.0,0.0,0.0,0.0,0.0,0.0,0.0,0.0,0.0,0.0,0.0,0.0,0.0,0.0,0.0,0.0,0.0,0.0,0.0,0.0,0.0,0.0,0.0,0.0,0.0,0.0,0.0,0.0,0.0,0.0,0.0,0.0,0.0,0.0,0.0,0.0,0.0,0.0,0.0,0.0,-2.1005,-2.1237,-2.1682,-2.2246,-2.2076,-2.171,0.0,0.0,0.0,0.0,0.0,0.0,0.0,0.0,0.0,0.0,0.0,0.0,0.0,0.0,0.0,0.0,0.0,0.0,0.0,0.0,0.0,0.0,0.0,0.0,0.0,0.0,0.0,0.0,0.0,0.0,0.0,0.0,0.0,0.0,0.0,0.0,0.0,0.0,0.0,0.0,0.0,0.0,0.0,0.0,0.0,0.0,0.0,0.0,0.0,0.0,0.0,0.0,0.0,0.0,0.0,0.0,0.0,0.0,0.0,0.0,0.0,0.0,0.0,0.0,0.0,0.0,0.0,0.0,0.0,0.0,0.0,0.0,0.0,0.0,0.0,0.0,0.0,0.0,0.0,0.0,0.0,0.0,0.0,0.0,0.0,0.0,0.0,0.0,0.0,0.0,0.0,0.0,0.0,0.0,0.0,0.0,0.0,0.0,0.0,0.0,0.0,0.0,0.0,0.0,0.0,0.0,0.0,0.0,0.0,-1.8053,-1.9383,-2.0556,-2.1322,-2.115,-2.0912,-2.0707,0.0,0.0,0.0,0.0,0.0,0.0,0.0,0.0,0.0,0.0,0.0,0.0,0.0,0.0,0.0,0.0,0.0,0.0,0.0,0.0,0.0,0.0,0.0,0.0,0.0,0.0,0.0,0.0,0.0,0.0,0.0,0.0,0.0,0.0,0.0,0.0,0.0,0.0,0.0,0.0,0.0,0.0,0.0,0.0,0.0,0.0,0.0,0.0,0.0,0.0,0.0,0.0,0.0,0.0,0.0,0.0,0.0,0.0,0.0,0.0,0.0,0.0,0.0,0.0,0.0,0.0,0.0,0.0,0.0,0.0,0.0,0.0,0.0,0.0,0.0,0.0,0.0,0.0,0.0,0.0,0.0,0.0,0.0,0.0,0.0,0.0,0.0,0.0,0.0,0.0,0.0,0.0,0.0,0.0,0.0,0.0,0.0,0.0,0.0,0.0,0.0,0.0,0.0,0.0,0.0,0.0,0.0,0.0,-1.4631,-1.7379,-1.9406,-2.0571,-2.0097,-2.0102,0.0,0.0,0.0,0.0,0.0,0.0,0.0,0.0,0.0,0.0,0.0,0.0,0.0,0.0,0.0,0.0,0.0,0.0,0.0,0.0,0.0,0.0,0.0,0.0,0.0,0.0,0.0,0.0,0.0,0.0,0.0,0.0,0.0,0.0,0.0,0.0,0.0,0.0,0.0,0.0,0.0,0.0,0.0,0.0,0.0,0.0,0.0,0.0,0.0,0.0,0.0,0.0,0.0,0.0,0.0,0.0,0.0,0.0,0.0,0.0,0.0,0.0,0.0,0.0,0.0,0.0,0.0,0.0,0.0,0.0,0.0,0.0,0.0,0.0,0.0,0.0,0.0,0.0,0.0,0.0,0.0,0.0,0.0,0.0,0.0,0.0,0.0,0.0,0.0,0.0,0.0,0.0,0.0,0.0,0.0,0.0,0.0,0.0,0.0,0.0,0.0,0.0,0.0,0.0,0.0,0.0,0.0,0.0,0.0,-1.3631,-1.5686,-1.7509,-1.8746,-1.9387,-2.007,0.0,0.0,0.0,0.0,0.0,0.0,0.0,0.0,0.0,0.0,0.0,0.0,0.0,0.0,0.0,0.0,0.0,0.0,0.0,0.0,0.0,0.0,0.0,0.0,0.0,0.0,0.0,0.0,0.0,0.0,0.0,0.0,0.0,0.0,0.0,0.0,0.0,0.0,0.0,0.0,0.0,0.0,0.0,0.0,0.0,0.0,0.0,0.0,0.0,0.0,0.0,0.0,0.0,0.0,0.0,0.0,0.0,0.0,0.0,0.0,0.0,0.0,0.0,0.0,0.0,0.0,0.0,0.0,0.0,0.0,0.0,0.0,0.0,0.0,0.0,0.0,0.0,0.0,0.0,0.0,0.0,0.0,0.0,0.0,0.0,0.0,0.0,0.0,0.0,0.0,0.0,0.0,0.0,0.0,0.0,0.0,0.0,0.0,0.0,0.0,0.0,0.0,0.0,0.0,0.0,0.0,0.0,0.0,-1.6622,-1.2998,-1.4307,-1.5807,-1.7319,-1.861,-1.9779,0.0,0.0,0.0,0.0,0.0,0.0,0.0,0.0,0.0,0.0,0.0,0.0,0.0,0.0,0.0,0.0,0.0,0.0,0.0,0.0,0.0,0.0,0.0,0.0,0.0,0.0,0.0,0.0,0.0,0.0,0.0,0.0,0.0,0.0,0.0,0.0,0.0,0.0,0.0,0.0,0.0,0.0,0.0,0.0,0.0,0.0,0.0,0.0,0.0,0.0,0.0,0.0,0.0,0.0,0.0,0.0,0.0,0.0,0.0,0.0,0.0,0.0,0.0,0.0,0.0,0.0,0.0,0.0,0.0,0.0,0.0,0.0,0.0,0.0,0.0,0.0,0.0,0.0,0.0,0.0,0.0,0.0,0.0,0.0,0.0,0.0,0.0,0.0,0.0,0.0,0.0,0.0,0.0,0.0,0.0,0.0,0.0,0.0,0.0,0.0,0.0,0.0,0.0,0.0,0.0,0.0,0.0,0.0,-1.5894,-1.2963,-1.3282,-1.4399,-1.6227,-1.776,-1.9257,0.0,0.0,0.0,0.0,0.0,0.0,0.0,0.0,0.0,0.0,0.0,0.0,0.0,0.0,0.0,0.0,0.0,0.0,0.0,0.0,0.0,0.0,0.0,0.0,0.0,0.0,0.0,0.0,0.0,0.0,0.0,0.0,0.0,0.0,0.0,0.0,0.0,0.0,0.0,0.0,0.0,0.0,0.0,0.0,0.0,0.0,0.0,0.0,0.0,0.0,0.0,0.0,0.0,0.0,0.0,0.0,0.0,0.0,0.0,0.0,0.0,0.0,0.0,0.0,0.0,0.0,0.0,0.0,0.0,0.0,0.0,0.0,0.0,0.0,0.0,0.0,0.0,0.0,0.0,0.0,0.0,0.0,0.0,0.0,0.0,0.0,0.0,0.0,0.0,0.0,0.0,0.0,0.0,0.0,0.0,0.0,0.0,0.0,0.0,0.0,0.0,0.0,0.0,0.0,0.0,0.0,0.0,0.0,-1.5875,-1.3023,-1.3366,-1.4228,-1.5431,-1.67,-1.8427,0.0,0.0,0.0,0.0,0.0,0.0,0.0,0.0,0.0,0.0,0.0,0.0,0.0,0.0,0.0,0.0,0.0,0.0,0.0,0.0,0.0,0.0,0.0,0.0,0.0,0.0,0.0,0.0,0.0,0.0,0.0,0.0,0.0,0.0,0.0,0.0,0.0,0.0,0.0,0.0,0.0,0.0,0.0,0.0,0.0,0.0,0.0,0.0,-2.3152,0.0,0.0,0.0,0.0,0.0,0.0,0.0,0.0,0.0,0.0,0.0,0.0,0.0,0.0,0.0,0.0,0.0,0.0,0.0,0.0,0.0,0.0,0.0,0.0,0.0,0.0,0.0,0.0,0.0,0.0,0.0,0.0,0.0,0.0,0.0,0.0,0.0,0.0,0.0,0.0,0.0,0.0,0.0,0.0,0.0,0.0,0.0,0.0,0.0,0.0,0.0,0.0,0.0,0.0,0.0,0.0,0.0,0.0,0.0,-1.5292,-1.2535,-1.3261,-1.4175,-1.5174,-1.6345,-1.8019,0.0,0.0,0.0,0.0,0.0,0.0,0.0,0.0,0.0,0.0,0.0,0.0,0.0,0.0,0.0,0.0,0.0,0.0,0.0,0.0,0.0,0.0,0.0,0.0,0.0,0.0,0.0,0.0,0.0,0.0,0.0,0.0,0.0,0.0,0.0,0.0,0.0,0.0,0.0,0.0,0.0,0.0,0.0,0.0,0.0,0.0,0.0,0.0,0.0,0.0,0.0,0.0,0.0,0.0,0.0,0.0,0.0,0.0,0.0,0.0,0.0,0.0,0.0,0.0,0.0,0.0,0.0,0.0,0.0,0.0,0.0,0.0,0.0,0.0,0.0,0.0,0.0,0.0,0.0,0.0,0.0,0.0,0.0,0.0,0.0,0.0,0.0,0.0,0.0,0.0,0.0,0.0,0.0,0.0,0.0,0.0,0.0,0.0,0.0,0.0,0.0,0.0,0.0,0.0,0.0,0.0,0.0,-1.53,-1.4232,-1.1986,-1.2959,-1.4108,-1.5174,-1.6376,-1.7808,-1.9486,0.0,0.0,0.0,0.0,0.0,0.0,0.0,0.0,0.0,0.0,0.0,0.0,0.0,0.0,0.0,0.0,0.0,0.0,0.0,0.0,0.0,0.0,0.0,0.0,0.0,0.0,0.0,0.0,0.0,0.0,0.0,0.0,0.0,0.0,0.0,0.0,0.0,0.0,-2.3093,-2.3424,0.0,0.0,0.0,0.0,0.0,0.0,0.0,0.0,-2.2327,0.0,0.0,0.0,0.0,0.0,0.0,0.0,0.0,0.0,0.0,0.0,0.0,0.0,0.0,0.0,0.0,0.0,0.0,0.0,0.0,0.0,0.0,0.0,0.0,0.0,0.0,0.0,0.0,0.0,0.0,0.0,0.0,0.0,0.0,0.0,0.0,0.0,0.0,0.0,0.0,0.0,0.0,0.0,0.0,0.0,0.0,0.0,0.0,0.0,0.0,0.0,0.0,0.0,0.0,0.0,0.0,-1.4383,-1.3283,-1.2439,-1.1841,-1.2619,-1.3698,-1.5174,-1.6387,-1.7591,-1.8884,0.0,0.0,0.0,0.0,0.0,0.0,0.0,0.0,0.0,0.0,0.0,0.0,0.0,0.0,0.0,0.0,0.0,0.0,0.0,0.0,0.0,0.0,0.0,0.0,0.0,0.0,0.0,0.0,0.0,0.0,0.0,0.0,0.0,0.0,0.0,0.0,0.0,0.0,0.0,-2.2524,-2.2615,0.0,0.0,0.0,0.0,0.0,0.0,0.0,0.0,-2.2575,0.0,0.0,0.0,0.0,0.0,0.0,0.0,0.0,0.0,0.0,0.0,0.0,0.0,0.0,0.0,0.0,0.0,0.0,0.0,0.0,0.0,0.0,0.0,0.0,0.0,0.0,0.0,0.0,0.0,0.0,0.0,0.0,0.0,0.0,0.0,0.0,0.0,0.0,0.0,0.0,0.0,0.0,0.0,0.0,0.0,0.0,0.0,0.0,0.0,0.0,0.0,0.0,0.0,0.0,0.0,-1.2892,-1.2351,-1.1817,-1.1351,-1.2346,-1.3474,-1.4786,-1.6497,-1.7725,0.0,0.0,0.0,0.0,0.0,0.0,0.0,0.0,0.0,0.0,0.0,0.0,0.0,0.0,0.0,0.0,0.0,0.0,0.0,0.0,0.0,0.0,0.0,0.0,0.0,0.0,0.0,0.0,0.0,0.0,0.0,0.0,0.0,0.0,0.0,0.0,0.0,0.0,0.0,0.0,-2.2106,-2.1945,-2.1936,0.0,0.0,0.0,0.0,0.0,0.0,-2.1748,-2.2145,0.0,0.0,0.0,0.0,0.0,0.0,0.0,0.0,0.0,0.0,0.0,0.0,0.0,0.0,0.0,0.0,0.0,0.0,0.0,0.0,0.0,0.0,0.0,0.0,0.0,0.0,0.0,0.0,0.0,0.0,0.0,0.0,0.0,0.0,0.0,0.0,0.0,0.0,0.0,0.0,0.0,0.0,0.0,0.0,0.0,0.0,0.0,0.0,0.0,0.0,0.0,0.0,0.0,0.0,0.0,-1.1842,-1.199,-1.1704,-1.0913,-1.2323,-1.364,-1.4609,-1.665,-1.7869,0.0,0.0,0.0,0.0,0.0,0.0,0.0,0.0,0.0,0.0,0.0,0.0,0.0,0.0,0.0,0.0,0.0,0.0,0.0,0.0,0.0,0.0,0.0,0.0,0.0,0.0,0.0,0.0,0.0,0.0,0.0,0.0,0.0,0.0,0.0,0.0,0.0,0.0,0.0,0.0,0.0,-2.1587,-2.1596,-2.1413,0.0,0.0,0.0,0.0,-2.1039,-2.1212,0.0,0.0,0.0,0.0,0.0,0.0,0.0,0.0,0.0,0.0,0.0,0.0,0.0,0.0,0.0,0.0,0.0,0.0,0.0,0.0,0.0,0.0,0.0,0.0,0.0,0.0,0.0,0.0,0.0,0.0,0.0,0.0,0.0,0.0,0.0,0.0,0.0,0.0,0.0,0.0,0.0,0.0,0.0,0.0,0.0,0.0,0.0,0.0,0.0,0.0,0.0,0.0,0.0,0.0,0.0,0.0,-1.2477,-1.2219,-1.1693,-1.093,-1.2859,-1.4399,-1.5352,-1.6485,-1.7823,0.0,0.0,0.0,0.0,0.0,0.0,0.0,0.0,0.0,0.0,0.0,0.0,0.0,0.0,0.0,0.0,0.0,0.0,0.0,0.0,0.0,0.0,0.0,0.0,0.0,0.0,0.0,0.0,0.0,0.0,0.0,0.0,0.0,0.0,0.0,0.0,0.0,0.0,0.0,0.0,0.0,-2.1624,-2.16,-2.0798,-2.0379,0.0,0.0,-2.0379,-2.0895,-2.1215,0.0,0.0,0.0,0.0,0.0,0.0,0.0,0.0,0.0,0.0,0.0,0.0,0.0,0.0,0.0,0.0,0.0,0.0,0.0,0.0,0.0,0.0,0.0,0.0,0.0,0.0,0.0,0.0,0.0,0.0,0.0,0.0,0.0,0.0,0.0,0.0,0.0,0.0,0.0,0.0,0.0,0.0,0.0,0.0,0.0,0.0,0.0,0.0,0.0,0.0,0.0,0.0,0.0,0.0,0.0,-1.22,-1.1592,-1.1438,-1.1316,-1.1299,-1.3957,-1.5571,-1.5874,-1.735,-1.8618,0.0,0.0,0.0,0.0,0.0,0.0,0.0,0.0,0.0,0.0,0.0,0.0,0.0,0.0,0.0,0.0,0.0,0.0,0.0,0.0,0.0,0.0,0.0,0.0,0.0,0.0,0.0,0.0,0.0,0.0,0.0,0.0,0.0,0.0,0.0,0.0,0.0,0.0,0.0,0.0,0.0,0.0,-2.0898,-2.0452,0.0,0.0,0.0,-1.9797,-2.0218,0.0,0.0,0.0,0.0,0.0,0.0,0.0,0.0,0.0,0.0,0.0,0.0,0.0,0.0,0.0,0.0,0.0,0.0,0.0,0.0,0.0,0.0,0.0,0.0,0.0,0.0,0.0,0.0,0.0,0.0,0.0,0.0,0.0,0.0,0.0,0.0,0.0,0.0,0.0,0.0,0.0,0.0,0.0,0.0,0.0,0.0,0.0,0.0,0.0,0.0,0.0,0.0,0.0,0.0,0.0,0.0,0.0,-1.0813,-1.0485,-1.0707,-1.1619,-1.4676,-1.6287,-1.6296,-1.7831,0.0,0.0,0.0,0.0,0.0,0.0,0.0,0.0,0.0,0.0,0.0,0.0,0.0,0.0,0.0,0.0,0.0,0.0,0.0,0.0,0.0,0.0,0.0,0.0,0.0,0.0,0.0,-1.823,0.0,0.0,0.0,0.0,0.0,0.0,0.0,0.0,0.0,0.0,0.0,0.0,0.0,0.0,-2.0693,-2.035,-2.0085,-1.9836,0.0,0.0,-1.9336,-1.9656,-1.973,-2.0033,0.0,0.0,0.0,0.0,0.0,0.0,0.0,0.0,0.0,0.0,0.0,0.0,0.0,0.0,0.0,0.0,0.0,0.0,0.0,0.0,0.0,0.0,0.0,0.0,0.0,0.0,0.0,0.0,0.0,0.0,0.0,0.0,0.0,0.0,0.0,0.0,0.0,0.0,0.0,0.0,0.0,0.0,0.0,0.0,0.0,0.0,0.0,0.0,0.0,0.0,0.0,0.0,0.0,0.0,0.0,-1.0762,-0.9563,-0.9855,-1.1715,-1.4528,-1.6143,-1.6411,-1.7367,-1.8617,0.0,0.0,0.0,0.0,0.0,0.0,0.0,0.0,0.0,0.0,0.0,0.0,0.0,0.0,0.0,0.0,0.0,0.0,0.0,0.0,0.0,0.0,0.0,0.0,0.0,0.0,0.0,0.0,0.0,0.0,0.0,0.0,0.0,0.0,0.0,0.0,0.0,0.0,0.0,0.0,0.0,-2.0354,-2.0294,-1.9456,-1.9021,0.0,0.0,-1.8961,-1.9621,-1.9696,-1.9844,-2.0323,0.0,0.0,0.0,0.0,0.0,0.0,0.0,0.0,0.0,0.0,0.0,0.0,0.0,0.0,0.0,0.0,0.0,0.0,0.0,0.0,0.0,0.0,0.0,0.0,0.0,0.0,0.0,0.0,0.0,0.0,0.0,0.0,0.0,0.0,0.0,0.0,0.0,0.0,0.0,0.0,0.0,0.0,0.0,0.0,0.0,0.0,0.0,0.0,0.0,0.0,0.0,0.0,0.0,-1.1423,-1.0813,-1.0023,-1.0458,-1.2163,-1.4836,-1.6598,-1.7314,-1.8053,-1.9188,0.0,0.0,0.0,0.0,0.0,0.0,0.0,0.0,0.0,0.0,0.0,0.0,0.0,0.0,0.0,0.0,0.0,0.0,0.0,0.0,0.0,0.0,0.0,0.0,0.0,0.0,0.0,0.0,-1.9018,-1.8875,-1.9502,0.0,0.0,0.0,0.0,0.0,0.0,0.0,0.0,0.0,0.0,-2.0224,-1.9974,-1.9561,0.0,0.0,-1.9465,-1.939,-1.9645,-1.9,-1.8802,-1.9783,-1.9783,0.0,0.0,0.0,0.0,0.0,0.0,0.0,0.0,0.0,0.0,0.0,0.0,0.0,0.0,0.0,0.0,0.0,0.0,0.0,0.0,0.0,0.0,0.0,0.0,0.0,0.0,0.0,0.0,0.0,0.0,0.0,0.0,0.0,0.0,0.0,0.0,0.0,0.0,0.0,0.0,0.0,0.0,0.0,0.0,0.0,0.0,0.0,0.0,0.0,0.0,0.0,0.0,-1.1603,-1.0813,-1.0386,-1.0964,-1.2443,-1.5059,-1.69,-1.7932,-1.8727,-1.9701,0.0,0.0,0.0,0.0,0.0,0.0,0.0,0.0,0.0,0.0,0.0,0.0,0.0,0.0,0.0,0.0,0.0,0.0,0.0,0.0,0.0,0.0,0.0,0.0,0.0,0.0,0.0,0.0,-1.9301,-1.9198,-1.9917,0.0,0.0,0.0,0.0,0.0,0.0,0.0,0.0,0.0,0.0,-2.0019,-1.9747,-1.9705,-1.9705,-1.9705,-1.9705,-1.9705,-1.9705,-1.8921,-1.863,-1.9528,0.0,0.0,0.0,0.0,0.0,0.0,0.0,0.0,0.0,0.0,0.0,0.0,0.0,0.0,0.0,0.0,0.0,0.0,0.0,0.0,0.0,0.0,0.0,0.0,0.0,0.0,0.0,-2.5226,0.0,0.0,-2.3314,0.0,0.0,0.0,0.0,0.0,0.0,0.0,0.0,0.0,0.0,0.0,0.0,0.0,0.0,0.0,0.0,0.0,0.0,0.0,0.0,0.0,0.0,-1.2009,-1.0805,-1.0436,-1.1048,-1.2683,-1.5119,-1.6952,-1.8072,-1.9064,-2.0024,-2.0943,0.0,0.0,0.0,0.0,0.0,0.0,0.0,0.0,0.0,0.0,0.0,0.0,0.0,0.0,0.0,0.0,0.0,0.0,0.0,0.0,0.0,0.0,0.0,0.0,0.0,0.0,-1.9094,-1.891,-1.9198,0.0,0.0,0.0,0.0,0.0,0.0,0.0,0.0,0.0,0.0,-1.9955,-1.9726,-1.9705,-1.9705,-1.9771,-1.9735,-1.975,-1.9735,-1.975,-1.9708,-1.9685,0.0,0.0,0.0,0.0,0.0,0.0,0.0,0.0,0.0,0.0,0.0,0.0,0.0,0.0,0.0,0.0,0.0,0.0,0.0,0.0,0.0,0.0,0.0,0.0,0.0,0.0,0.0,-2.3905,-2.4768,0.0,0.0,0.0,0.0,0.0,0.0,0.0,0.0,0.0,0.0,0.0,-1.8121,-1.6861,0.0,0.0,0.0,0.0,0.0,0.0,0.0,0.0,0.0,0.0,0.0,0.0,-1.1229,-1.0475,-1.0946,-1.1937,-1.3414,-1.5354,-1.7284,-1.902,-1.9419,-1.9853,-2.0441,0.0,0.0,0.0,0.0,0.0,0.0,0.0,0.0,0.0,0.0,0.0,0.0,0.0,0.0,0.0,0.0,0.0,0.0,0.0,0.0,0.0,0.0,0.0,0.0,0.0,-2.13,0.0,0.0,0.0,0.0,0.0,0.0,0.0,0.0,0.0,0.0,0.0,-2.0215,-1.9932,-1.9793,-1.9878,-2.0315,-2.037,-2.0528,0.0,0.0,0.0,0.0,0.0,0.0,0.0,0.0,0.0,0.0,0.0,0.0,0.0,0.0,-2.2834,-2.1869,-2.1695,-2.1695,-2.1695,0.0,0.0,0.0,0.0,0.0,0.0,0.0,0.0,0.0,0.0,0.0,0.0,0.0,0.0,-2.2661,0.0,-2.1692,0.0,0.0,0.0,0.0,0.0,0.0,0.0,0.0,-1.848,-1.7855,-1.751,-1.6131,-1.5163,0.0,-1.5886,-1.7234,0.0,0.0,0.0,0.0,0.0,0.0,0.0,0.0,-1.1143,-1.0808,-1.1558,-1.2659,-1.4023,-1.5815,-1.7616,-1.9253,-1.9704,-2.0118,-2.0622,-2.2126,-2.2227,0.0,0.0,0.0,0.0,0.0,0.0,0.0,0.0,0.0,0.0,0.0,0.0,0.0,0.0,0.0,0.0,0.0,0.0,0.0,0.0,0.0,0.0,0.0,-2.1302,0.0,0.0,0.0,0.0,0.0,0.0,0.0,0.0,0.0,-2.0104,-2.0089,-2.0,-1.9747,-1.9705,-1.9878,-2.03,0.0,0.0,0.0,0.0,0.0,0.0,0.0,-2.162,-2.1395,-2.1892,-2.2449,-2.269,-2.3197,-2.3549,-2.3335,0.0,0.0,-2.2503,-2.2353,-2.2353,-2.2368,-2.2712,-2.2862,-2.2443,-2.2697,-2.2877,0.0,0.0,0.0,0.0,0.0,0.0,0.0,0.0,-2.162,-2.1349,0.0,-1.9809,0.0,0.0,0.0,0.0,0.0,-1.8208,0.0,0.0,-1.7317,-1.6817,-1.7255,-1.6814,-1.606,-1.5154,-1.6095,-1.656,-1.6603,-1.7498,0.0,0.0,0.0,0.0,0.0,0.0,-1.1809,-1.1813,-1.2368,-1.3263,-1.4552,-1.6489,-1.7981,-1.8872,-1.993,-2.0791,-2.1462,-2.1625,-2.1456,-2.1092,-2.2652,0.0,0.0,0.0,0.0,0.0,0.0,0.0,0.0,0.0,0.0,0.0,0.0,0.0,0.0,0.0,0.0,0.0,0.0,0.0,0.0,-2.0931,0.0,0.0,0.0,0.0,0.0,0.0,0.0,0.0,0.0,0.0,-1.9726,-1.9741,-1.9705,-1.9705,0.0,0.0,0.0,0.0,-1.9735,-1.9794,-2.0348,-2.0797,-2.0782,-2.1321,-2.1554,-2.0872,0.0,0.0,-2.2825,-2.3233,-2.3458,-2.2873,-2.3221,-2.3595,-2.3565,-2.352,-2.3535,-2.3535,-2.3535,-2.358,-2.358,-2.3505,-2.3535,-2.0816,0.0,0.0,0.0,0.0,-2.0331,-2.0187,-2.0528,-2.0193,-1.9634,-1.8897,-1.8692,0.0,0.0,0.0,0.0,0.0,0.0,-1.804,-1.874,-1.8001,-1.7712,-1.7882,-1.7956,-1.8127,-1.8313,-1.7608,-1.7023,-1.656,-1.7116,-1.7247,-1.6793,0.0,0.0,0.0,0.0,-1.259,-1.2623,-1.3873,-1.4845,-1.5478,-1.7437,-1.8936,-1.9915,-2.1357,-2.199,-2.1734,-2.3092,-2.3257,-2.2023,-2.3613,0.0,0.0,0.0,0.0,0.0,0.0,0.0,0.0,0.0,0.0,0.0,0.0,0.0,0.0,0.0,0.0,0.0,0.0,0.0,-2.2321,-2.1431,-2.0716,0.0,0.0,0.0,0.0,0.0,0.0,0.0,0.0,0.0,-1.9705,-1.9705,-1.9705,0.0,0.0,-1.9884,-2.0333,-2.0415,-2.0587,-2.1051,-2.168,0.0,-2.1485,-2.2343,-2.269,-2.1609,-2.2551,-2.3284,-2.2795,-2.3498,-2.3978,-2.3428,-2.3475,-2.3595,-2.3595,-2.3595,-2.3595,-2.3595,-2.3595,-2.3595,-2.3595,-2.3595,-2.3595,-2.1503,-1.9987,-2.0176,-2.0342,-2.042,-1.9958,-1.9909,-2.0086,-1.9472,-1.8912,-1.8458,-1.782,-1.7185,-1.6568,-1.7784,0.0,0.0,0.0,-1.7738,-1.8193,-1.792,-1.7894,-1.8066,-1.8179,-1.849,-1.9002,-1.7769,-1.7143,-1.7156,-1.6955,-1.6921,-1.6958,0.0,0.0,-1.5133,-1.4352,-1.3871,-1.3819,-1.5426,-1.6462,-1.6924,-1.8696,-2.0092,-2.1016,-2.2136,-2.273,-2.269,-2.3822,-2.3991,-2.3012,-2.4255,-2.4484,0.0,0.0,0.0,0.0,0.0,0.0,0.0,0.0,0.0,0.0,0.0,-2.2392,-2.0336,0.0,0.0,0.0,-2.2427,-2.2337,-2.184,-2.1278,0.0,0.0,0.0,0.0,0.0,0.0,0.0,-2.0681,-2.0146,-1.9705,-1.9705,-1.9705,-1.9705,-1.9705,-1.9705,-1.9854,-2.0229,0.0,-2.0453,-2.0842,-2.147,-2.1769,-2.138,-2.2185,-2.2532,-2.1576,-2.2041,-2.2592,-2.2586,-2.3122,-2.3475,-2.331,-2.3225,-2.3301,-2.358,-2.34,-2.334,-2.355,-2.3595,-2.3595,-2.3595,-2.3595,-2.3535,-2.2787,-2.2025,-2.1282,-2.0743,-2.0433,-2.0721,-2.0829,-2.0799,-1.9329,-1.9028,-1.9384,-1.7302,-1.6402,-1.6559,-1.709,0.0,-1.5295,-1.66,-1.7201,-1.7227,-1.7284,-1.7571,-1.8014,-1.7757,-1.7763,-1.796,-1.6999,-1.7115,-1.8125,-1.7012,-1.6908,-1.7963,-1.7068,-1.6599,-1.6472,-1.5934,-1.563,-1.5532,-1.7007,-1.8027,-1.861,-2.0102,-2.1223,-2.1935,-2.2507,-2.3179,-2.3956,-2.4021,-2.4013,-2.4043,-2.467,-2.4965,-2.487,0.0,0.0,0.0,0.0,0.0,0.0,0.0,0.0,0.0,0.0,0.0,0.0,0.0,0.0,0.0,-2.1566,0.0,-2.1071,-2.0705,0.0,0.0,0.0,-1.9689,-1.9269,-1.9795,-2.0028,-1.9732,0.0,0.0,-1.9705,-1.9705,-1.9705,-1.9705,-1.9705,-1.9705,-1.9705,-1.972,-1.9705,-1.9765,-2.0303,-2.0692,-2.0662,-2.1197,-2.1498,-2.1116,-2.1244,-2.1703,-2.2123,-2.2475,-2.25,-2.2581,-2.2649,-2.2801,-2.3342,-2.2936,-2.2813,-2.3281,-2.346,-2.3505,-2.349,-2.3475,-2.331,-2.2769,-2.2114,-2.2205,-2.1524,-2.04,-2.0207,-2.0081,-1.9971,-1.96,-1.9067,-1.843,-1.7451,-1.6802,-1.6446,-1.5724,-1.5192,-1.4888,-1.5636,-1.6237,-1.6622,-1.707,-1.7376,-1.7505,-1.7841,-1.7571,-1.6916,-1.6962,-1.7754,-1.9211,-1.7899,-1.7146,-1.7078,-1.8027,-1.841,-1.8212,-1.8072,-1.8075,-1.8258,-1.877,-1.9215,-1.9567,-2.039,-2.1078,-2.1604,-2.2912,-2.3813,-2.4213,-2.4744,-2.5053,-2.5034,-2.5206,-2.5262,-2.5186,-2.3964,0.0,0.0,0.0,0.0,0.0,0.0,0.0,0.0,0.0,-2.1128,-1.9903,0.0,-2.1184,0.0,-2.0256,-2.0495,-2.0959,-2.0942,0.0,0.0,-1.9811,-1.9522,-1.9587,-1.9275,-1.926,-1.9651,-1.9705,-1.9705,-1.9705,-1.9705,-1.9705,-1.9705,-1.9705,-1.9705,-1.9705,-1.9705,-1.9705,-1.975,-2.0258,-2.0528,-2.0085,-2.032,-2.0744,-2.098,-2.176,-2.2198,-2.1646,-2.2577,-2.3056,-2.2194,-2.2209,-2.2329,-2.2229,-2.2009,-2.1979,-2.2143,-2.2547,-2.2892,-2.2892,-2.2892,-2.2742,-2.3674,-2.3288,-2.3129,-2.2447,-2.1472,-2.1117,-2.0701,-2.0289,-2.0039,-1.9528,-1.866,-1.6342,-1.5358,-1.536,-1.4754,-1.4242,-1.3979,-1.4835,-1.5379,-1.5641,-1.5976,-1.6151,-1.6163,-1.6469,-1.6796,-1.7196,-1.7027,-1.7301,-1.7919,-1.7565,-1.7409,-1.7485,-1.8068,-1.8778,-1.9495,-1.9303,-1.8979,-1.8592,-1.9527,-2.009,-2.0341,-2.118,-2.1761,-2.2143,-2.3707,-2.4666,-2.4888,-2.5253,-2.5457,-2.5456,-2.5427,-2.537,-2.5284,-2.435,-2.3417,0.0,0.0,0.0,0.0,0.0,0.0,0.0,0.0,0.0,0.0,0.0,-2.1351,-2.0527,-2.0004,-1.9889,-2.04,-2.0581,-2.0516,-2.0104,-1.9714,-1.96,-1.9681,-1.9375,-1.9271,-1.9681,-1.9705,-1.9705,-1.9705,-1.9705,-1.9705,-1.9705,-1.9705,-1.9705,-1.9705,-1.9705,-1.9705,-1.972,-2.0004,-2.0167,-1.9733,-2.0047,-2.0626,-2.1424,-2.1905,-2.2033,-2.1534,-2.216,-2.2566,-2.1982,-2.2009,-2.2133,-2.2003,-2.169,-2.1561,-2.1659,-2.1739,-2.1904,-2.2188,-2.2274,-2.2058,-2.479,-2.4697,-2.3895,-2.3329,-2.2912,-2.251,-2.1844,-2.0959,-2.0438,-1.9858,-1.9016,-1.4778,-1.3297,-1.3926,-1.3928,-1.3543,-1.3007,-1.4068,-1.4619,-1.471,-1.4937,-1.501,-1.5048,-1.523,-1.6143,-1.7587,-1.7088,-1.6564,-1.6068,-1.6858,-1.7556,-1.8146,-1.7726,-1.8457,-2.0245,-1.9994,-1.9299,-1.827,-1.9923,-2.0811,-2.0864,-2.2006,-2.2704,-2.2929,-2.4531,-2.5446,-2.5543,-2.5504,-2.5484,-2.5483,-2.5445,-2.539,-2.5313,-2.5197,-2.4368,0.0,-2.3241,0.0,0.0,0.0,0.0,0.0,0.0,0.0,0.0,-2.1997,-2.1923,-2.1071,-2.0208,-1.9734,-1.9717,-2.0035,-2.0104,-1.9762,-1.9705,-1.9705,-1.969,-1.9705,-1.9705,-1.9705,-1.9705,-1.9705,-1.9705,-1.9777,-1.9863,-1.9818,-1.9925,-1.9945,-1.9889,-1.9797,-1.9711,-1.9747,-1.9854,-1.9969,-1.9802,-2.0146,-2.0909,-2.196,-2.2032,-2.1697,-2.1601,-2.1713,-2.1739,-2.1818,-2.1891,-2.1955,-2.2118,-2.16,-2.1249,-2.1394,-2.1113,-2.0991,-2.1425,-2.1575,-2.138,-2.47,-2.4526,-2.4081,-2.3629,-2.3106,-2.277,-2.199,-2.0959,-2.0501,-1.9016,-1.6788,-1.4103,-1.2971,-1.3104,-1.3132,-1.3016,-1.2967,-1.3627,-1.42,-1.466,-1.61,-1.6718,-1.6811,-1.8143,-1.7572,-1.5518,-1.6821,-1.7482,-1.7417,-1.7072,-1.6965,-1.7122,-1.817,-1.8962,-1.9545,0.0,0.0,0.0,-2.1423,-2.1391,-2.0589,-2.2029,-2.2801,-2.2777,-2.4471,0.0,-2.5284,-2.544,-2.5478,-2.5421,-2.5449,0.0,0.0,0.0,0.0,0.0,0.0,0.0,0.0,0.0,0.0,0.0,-2.2122,-2.1832,-2.1547,-2.1982,-2.1937,-2.1071,-2.0218,-1.9713,-1.9726,-1.9747,-1.9782,-1.9726,-1.9705,-1.9705,-1.9705,-1.9705,-1.9705,-1.9705,-1.9705,-1.9726,-1.9777,-2.0319,-2.0578,-2.0258,-2.0499,-2.0747,-2.0731,-2.0139,-1.9839,-2.0124,-2.0465,-2.0443,-1.9794,-2.0607,-2.1481,-2.2142,-2.2249,-2.2007,-2.1721,-2.191,-2.1878,-2.1423,-2.1428,-2.1576,-2.131,-2.0816,-2.0593,-2.0562,-2.0652,-2.0752,-2.0872,-2.0902,-2.0873,-2.5018,0.0,-2.4356,-2.3878,0.0,-2.2867,-2.2353,-2.1744,-2.0975,-1.9024,-1.6258,-1.5453,-1.4293,-1.2946,-1.4074,-1.4552,-1.4597,-1.4914,-1.5165,-1.5504,-1.6342,-1.6766,-1.677,-1.7632,-1.7142,-1.5585,-1.7185,-1.7546,-1.6866,-1.7316,-1.7478,-1.7311,-1.8535,-1.9309,-1.9687,-2.1515,-2.2256,-2.1904,-2.1771,-2.1552,-2.135,-2.2229,-2.2851,-2.3144,-2.44,0.0,0.0,0.0,0.0,0.0,0.0,0.0,0.0,0.0,0.0,-2.5049,-2.4151,-2.3507,-2.3247,-2.3134,-2.3033,-2.2851,-2.2529,-2.2216,-2.1909,-2.2139,-2.194,-2.1055,-2.0224,-1.9705,-1.9705,-1.9705,-1.9705,-1.9705,-1.9705,-1.9705,-1.9705,-1.9705,-1.9782,-1.9949,-1.9823,-1.9847,-2.0311,-2.0675,-2.0905,-2.0681,-2.0829,-2.1007,-2.0959,-2.0632,-2.0431,-2.0632,-2.0829,-2.0831,-2.051,-2.0998,-2.1751,-2.217,-2.2327,-2.2225,-2.2003,-2.2152,-2.2152,-2.1751,-2.1811,-2.1807,-2.1397,-2.1102,-2.0878,-2.0697,-2.0639,-2.0606,-2.0537,-2.0602,-2.0708,-2.536,-2.5084,-2.4695,-2.416,-2.348,-2.3059,-2.2524,-2.1969,0.0,0.0,0.0,-1.7075,-1.5886,-1.3872,-1.5404,-1.6228,-1.6498,-1.6498,-1.6409,-1.6327,-1.6517,-1.6652,-1.6683,-1.6928,-1.6968,-1.6956,-1.7998,-1.7976,-1.7022,-1.802,-1.8368,-1.8178,-1.9083,-1.9975,-2.0792,-2.2784,-2.353,-2.2935,-2.2074,-2.1813,-2.2199,-2.2448,-2.2827,-2.3358,-2.4228,-2.4793,-2.4949,-2.5119,-2.5265,-2.5485,-2.6157,-2.6323,-2.581,-2.6158,-2.6047,-2.5336,-2.5002,-2.4716,-2.4512,-2.4321,-2.4016,-2.3631,-2.3014,-2.2537,-2.2338,-2.2314,-2.1924,-2.1087,-2.0208,-1.9705,-1.9705,-1.9705,-1.9705,-1.9705,-1.9705,-1.9705,-1.9705,-1.9705,-1.9839,-2.0181,-2.0088,-2.0195,-2.0862,-2.1167,-2.1183,-2.115,-2.1229,-2.1229,-2.1229,-2.115,-2.1055,-2.1086,-2.1229,-2.1272,-2.1292,-2.1493,-2.1882,-2.2225,-2.2299,-2.2327,-2.2327,-2.2327,-2.2327,-2.2254,-2.2299,-2.2135,-2.1823,-2.1628,-2.1491,-2.1181,-2.0962,-2.0756,-2.0534,-2.085,-2.1135,-2.5374,-2.5175,-2.5119,-2.4509,-2.3607,-2.351,-2.2068,-1.9798,-1.9773,-1.9336,-1.8549,-1.7076,-1.6583,-1.6718,-1.5745,-1.5989,-1.7242,-1.7255,-1.691,-1.6355,-1.7288,-1.795,-1.8329,-1.9284,-1.9553,-1.9264,-1.9577,-2.0315,-2.1122,-1.9772,-1.8985,-1.9154,-2.0291,-2.175,-2.3379,-2.4289,-2.4666,-2.4519,-2.3409,-2.2625,-2.2216,-2.2405,-2.2609,-2.2846,-2.3847,-2.4385,-2.4418,-2.4862,-2.5229,-2.5411,-2.5535,-2.6178,-2.7402,-2.6217,-2.5425,-2.5309,-2.4977,-2.4716,-2.4493,-2.4321,-2.3937,-2.3323,-2.2695,-2.2349,-2.2299,-2.2314,-2.1924,-2.1071,-2.0243,-1.9705,-1.9705,-1.9726,-1.9726,-1.9726,-1.9741,-1.9705,-1.9726,-1.9726,-1.9874,-2.028,-2.0618,-2.0821,-2.1071,-2.1642,-2.1892,-2.1664,-2.1781,-2.2077,-2.1974,-2.1764,-2.1552,-2.1568,-2.1869,-2.2089,-2.2039,-2.2147,-2.2209,-2.2282,-2.2327,-2.2327,-2.2327,-2.2327,-2.2327,-2.2327,-2.2327,-2.2254,-2.218,-2.1869,-2.1658,-2.1524,-2.1585,-2.1496,-2.1037,-2.1877,-2.2571,-2.5071,-2.47,-2.508,-2.4818,-2.4071,-2.3615,-2.27,-2.1469,-2.0935,-1.9154,-1.669,-1.6396,-1.6237,-1.6144,-1.6286,-1.6917,-1.7944,-1.8754,-1.902,-1.8917,-1.9383,-1.9718,-1.9923,-2.0445,-2.059,-2.0415,-2.0647,-2.0969,-2.1292,-2.0759,-2.046,-2.0464,-2.1244,-2.259,-2.4333,-2.4154,-2.4169,-2.4469,-2.305,-2.2282,-2.2235,-2.1913,-2.2128,-2.2944,-2.3648,-2.4081,-2.4284,-2.4701,-2.5091,-2.5427,-2.5879,-2.626,-2.6554,-2.6217,-2.5802,-2.5343,-2.505,-2.4836,-2.467,-2.4192,-2.3714,-2.3236,-2.2781,-2.248,-2.231,-2.2315,-2.2013,-2.1386,-2.0764,-2.0314,-2.0062,-2.0039,-2.0019,-2.0028,-1.9859,-1.9782,-1.9965,-1.9818,-1.9929,-2.0565,-2.0875,-2.1183,-2.1678,-2.2061,-2.2245,-2.202,-2.2209,-2.2327,-2.2327,-2.2135,-2.1974,-2.2003,-2.2152,-2.2282,-2.2327,-2.2327,-2.2327,-2.2327,-2.2327,-2.2327,-2.2327,-2.2327,-2.2327,-2.2327,-2.2327,-2.2327,-2.2327,-2.2152,-2.2003,-2.1995,-2.203,-2.1875,-2.1616,-2.2085,-2.2639,-2.4778,-2.428,-2.4924,-2.4905,-2.4435,-2.4053,-2.3358,-2.2437,-2.1724,-1.8642,-1.4519,-1.6093,-1.6725,-1.623,-1.6886,-1.7669,-1.8717,-2.0054,-2.0816,-2.1004,-2.1043,-2.1199,-2.1501,-2.1552,-2.144,-2.1371,-2.1678,-2.1803,-2.1781,-2.1936,-2.2024,-2.2083,-2.2257,-2.3228,-2.4848,-2.3727,-2.3494,-2.4037,-2.2381,-2.147,-2.152,-2.1401,-2.1892,-2.288,-2.3369,-2.379,-2.4186,-2.4591,-2.5018,-2.5457,-2.6076,-2.6123,-2.5592,-2.6025,-2.6033,-2.5369,-2.5118,-2.4911,-2.4712,-2.408,-2.3544,-2.323,-2.288,-2.2599,-2.2338,-2.2295,-2.2089,-2.1678,-2.1421,-2.107,-2.0599,-2.0467,-2.0467,-2.0436,-2.0177,-2.0158,-2.0382,-2.0174,-2.0277,-2.0991,-2.1102,-2.1399,-2.2077,-2.2327,-2.2299,-2.2299,-2.2327,-2.2327,-2.2327,-2.2327,-2.2327,-2.2327,-2.2327,-2.2327,-2.2327,-2.2327,-2.2327,-2.2327,-2.2327,-2.2327,-2.2327,-2.2327,-2.2327,-2.2327,-2.2327,-2.2327,-2.2327,-2.2299,-2.2282,-2.2259,-2.2249,-2.2186,-2.1889,-2.2146,-2.278,-2.4529,-2.4581,-2.4757,-2.4704,-2.4467,-2.5152,-2.3358,-2.0299,-2.0513,-1.7329,-1.252,-1.7103,-1.9229,-1.8994,-1.7208,-1.7576,-1.9581,-2.0538,-2.1095,-2.1245,-2.1186,-2.1873,-2.3056,-2.3157,-2.282,-2.2327,-2.2869,-2.377,-2.4809,-2.3505,-2.3217,-2.3961,-2.3683,-2.391,-2.4667,-2.3599,-2.3343,-2.4133,-2.2064,-2.0367,-1.9328,-2.1143,-2.2184,-2.2173,-2.2888,-2.3418,-2.3879,-2.4476,-2.5,-2.537,-2.5498,-2.5526,-2.5512,-2.5519,-2.5466,-2.5322,-2.5118,-2.4872,-2.4543,-2.4002,-2.3566,-2.3212,-2.2898,-2.2599,-2.2349,-2.2316,-2.2111,-2.1784,-2.1951,-2.1779,-2.1049,-2.0957,-2.0942,-2.0923,-2.086,-2.0894,-2.0894,-2.0894,-2.1055,-2.1507,-2.1395,-2.1589,-2.2163,-2.2327,-2.2327,-2.2327,-2.2327,-2.2327,-2.2327,-2.2327,-2.2327,-2.2327,-2.2327,-2.231,-2.2338,-2.2327,-2.231,-2.231,-2.2293,-2.2215,-2.2181,-2.2215,-2.2282,-2.2102,-2.2282,-2.2282,-2.2327,-2.2327,-2.2327,-2.2327,-2.231,-2.2286,-2.2316,-2.2655,-2.3414,-2.2211,-2.2246,-2.3484,-2.4639,-2.5301,-2.3167,-2.1134,-1.9567,-1.8645,-1.5579,-1.2206,-1.7571,-1.8585,-1.5772,-1.6048,-1.7917,-2.0784,-2.165,-2.2329,-2.282,-2.2857,-2.3179,-2.3695,-2.375,-2.3578,-2.3337,-2.3613,-2.4433,-2.5293,-2.4405,-2.3926,-2.4159,-2.4142,-2.4321,-2.4632,-2.3828,-2.3364,-2.3232,-2.2727,-2.1892,-2.0944,-2.1311,-2.1912,-2.246,-2.293,-2.3484,-2.4062,-2.4561,-2.4987,-2.536,-2.5399,-2.5463,-2.5606,-2.5515,-2.5409,-2.5303,-2.5111,-2.4892,-2.4682,-2.4192,-2.3746,-2.3504,-2.2996,-2.2634,-2.2537,-2.2388,-2.226,-2.2265,-2.2274,-2.2026,-2.1488,-2.1334,-2.1352,-2.1301,-2.1148,-2.1103,-2.1337,-2.1166,-2.115,-2.1505,-2.1469,-2.1619,-2.2163,-2.2327,-2.2327,-2.2327,-2.231,-2.2338,-2.2327,-2.2327,-2.2327,-2.2327,-2.2327,-2.2405,-2.2559,-2.2449,-2.2432,-2.2473,-2.2058,-2.1684,-2.1743,-2.167,-2.1625,-2.1715,-2.2051,-2.2276,-2.2327,-2.2327,-2.2327,-2.2327,-2.2327,-2.2316,-2.2298,-2.2541,-2.3064,-2.0224,-2.0242,-2.2455,-2.4825,-2.67,-2.3919,-2.0188,-1.6318,-1.4858,-1.2533,-1.0428,-1.5996,-1.6239,-1.3043,-1.6195,-1.9402,-2.1485,-2.2898,-2.3435,-2.3482,-2.3412,-2.3553,-2.3803,-2.3831,-2.4071,-2.4408,-2.4465,-2.4888,-2.5579,-2.5023,-2.4589,-2.448,-2.4325,-2.441,-2.456,-2.378,-2.3174,-2.3076,-2.3106,-2.2832,-2.2331,-2.181,-2.1837,-2.2496,-2.2972,-2.3545,-2.4273,-2.4625,-2.4987,-2.538,-2.5415,-2.5495,-2.5625,-2.5556,-2.5447,-2.5312,-2.5111,-2.4956,-2.4785,-2.4385,-2.4024,-2.3696,-2.3212,-2.2923,-2.2805,-2.2513,-2.2417,-2.2652,-2.2781,-2.262,-2.1978,-2.1828,-2.1782,-2.1776,-2.15,-2.1477,-2.1735,-2.1524,-2.1507,-2.1718,-2.1744,-2.1828,-2.2298,-2.2426,-2.2453,-2.2576,-2.2552,-2.2525,-2.2559,-2.2569,-2.2588,-2.2561,-2.2561,-2.2642,-2.2834,-2.2546,-2.2554,-2.2747,-2.234,-2.1876,-2.1749,-2.1773,-2.1776,-2.2375,-2.2388,-2.2364,-2.2436,-2.2426,-2.2321,-2.231,-2.2338,-2.2338,-2.2316,-2.2344,-2.2508,-1.9376,-1.9074,-2.216,-2.4756,-2.804,-2.9,-2.1685,-0.934,-0.8477,-0.766,-0.7291,-1.166,-1.2207,-1.0475,-1.8022,-2.1859,-2.1706,-2.3979,-2.3991,-2.2199,-2.2061,-2.2498,-2.3398,-2.3437,-2.4159,-2.537,-2.537,-2.5464,-2.5572,-2.5369,-2.539,-2.5486,-2.4276,-2.4088,-2.4478,-2.3138,-2.2805,-2.3777,-2.2876,-2.2417,-2.2981,-2.2546,-2.2241,-2.23,-2.2838,-2.3548,-2.4219,-2.4606,-2.4968,-2.536,-2.5456,-2.5518,-2.5527,-2.548,-2.5428,-2.5293,-2.513,-2.4937,-2.4818,-2.4588,-2.4265,-2.3801,-2.3631,-2.35,-2.3177,-2.2687,-2.2531,-2.2712,-2.3457,-2.3516,-2.2801,-2.2422,-2.2287,-2.2281,-2.226,-2.2248,-2.2248,-2.222,-2.2254,-2.2265,-2.2231,-2.2337,-2.2634,-2.2712,-2.2825,-2.2997,-2.3119,-2.3122,-2.3063,-2.3109,-2.3105,-2.3087,-2.3087,-2.308,-2.2927,-2.266,-2.2753,-2.3045,-2.3005,-2.2716,-2.2979,-2.3137,-2.3028,-2.294,-2.277,-2.2678,-2.2634,-2.2546,-2.2392,-2.2354,-2.2426,-2.2443,-2.2535,-2.2377,-2.253,-1.7945,-1.8745,-1.5297,-1.5626,-1.8514,-2.0288,-1.6472,-0.9227,-0.4672,-0.2676,-0.3608,-0.9305,-0.9062,-0.4147,-1.5655,-2.1301,-2.2139,-2.2633,-2.2246,-2.1413,-2.1398,-2.158,-2.1881,-2.1935,-2.3308,-2.5351,-2.5234,-2.4724,-2.4312,-2.4391,-2.443,-2.4299,-2.3882,-2.3805,-2.3955,-2.3451,-2.3482,-2.4057,-2.3611,-2.333,-2.3218,-2.3224,-2.3165,-2.3024,-2.3267,-2.352,-2.3772,-2.4515,-2.4851,-2.4659,-2.5182,-2.5517,-2.5508,-2.5428,-2.537,-2.536,-2.5243,-2.5072,-2.4847,-2.4749,-2.451,-2.4075,-2.3816,-2.3707,-2.3504,-2.314,-2.3012,-2.33,-2.3395,-2.3413,-2.3383,-2.306,-2.2857,-2.29,-2.2857,-2.2832,-2.2832,-2.2678,-2.2563,-2.2563,-2.2563,-2.2678,-2.2975,-2.3021,-2.3084,-2.3157,-2.3217,-2.323,-2.32,-2.32,-2.3236,-2.3212,-2.3189,-2.3271,-2.3445,-2.3012,-2.2893,-2.327,-2.3343,-2.2876,-2.2876,-2.2799,-2.2668,-2.2829,-2.2833,-2.2986,-2.2965,-2.2898,-2.2712,-2.2496,-2.2556,-2.2721,-2.2883,-2.2764,-2.2796,-1.6584,-1.764,-1.3079,-0.5956,0.0799,0.0066,-0.0505,0.0219,0.3385,0.316,-0.0587,-0.5724,-0.4914,-0.2825,-1.3813,-1.8963,-1.8794,-1.917,-1.9982,-2.059,-2.0593,-2.0506,-2.0398,-2.0346,-2.1691,-2.3856,-2.3999,-2.3695,-2.3657,-2.3764,-2.3746,-2.3566,-2.3412,-2.3429,-2.3594,-2.3486,-2.3566,-2.3969,-2.4144,-2.3856,-2.3342,-2.3585,-2.3703,-2.3572,-2.3742,-2.3762,-2.3636,-2.4525,-2.479,-2.4447,-2.5062,-2.5535,-2.5495,-2.5367,-2.5313,-2.537,-2.5332,-2.5324,-2.5302,-2.5229,-2.5145,-2.5079,-2.4805,-2.4566,-2.4272,-2.379,-2.3642,-2.3646,-2.4198,-2.436,-2.423,-2.4253,-2.4009,-2.3419,-2.3189,-2.3189,-2.3206,-2.3225,-2.3405,-2.3597,-2.3187,-2.3179,-2.3567,-2.3489,-2.3458,-2.3501,-2.3508,-2.3512,-2.3523,-2.3538,-2.3522,-2.3504,-2.3566,-2.3671,-2.3792,-2.3559,-2.34,-2.3717,-2.3795,-2.3279,-2.2972,-2.2761,-2.2683,-2.2797,-2.2953,-2.3182,-2.3277,-2.3212,-2.3047,-2.277,-2.2816,-2.3032,-2.3129,-2.3194,-2.319,-1.5161,-1.5179,-1.5811,0.2504,2.3956,2.6202,2.5408,1.8437,1.6348,0.9878,0.0,0.0,0.0,0.0,-1.2126,-1.5423,-1.148,-1.3596,-1.6585,-1.8672,-1.9284,-1.9224,-1.88,-1.8783,-1.9591,-2.1272,-2.2005,-2.2914,-2.3742,-2.3589,-2.3449,-2.3282,-2.2911,-2.3015,-2.3541,-2.3055,-2.3093,-2.3647,-2.4023,-2.3883,-2.333,-2.3611,-2.3736,-2.3658,-2.4199,-2.4331,-2.3843,-2.4638,-2.4855,-2.4466,-2.513,-2.5554,-2.5485,-2.5361,-2.5313,-2.5322,-2.5322,-2.5663,-2.6123,-2.61,-2.6274,-2.6451,-2.6554,-2.6043,-2.5358,-2.4714,-2.4156,-2.4094,-2.5342,-2.6215,-2.5582,-2.5905,-2.5597,-2.3725,-2.3613,-2.3631,-2.362,-2.3998,-2.4715,-2.5102,-2.4379,-2.3856,-2.4442,-2.4508,-2.4283,-2.4458,-2.4443,-2.4443,-2.4441,-2.4365,-2.4243,-2.4225,-2.411,-2.4016,-2.4113,-2.419,-2.4152,-2.417,-2.4113,-2.3886,-2.3792,-2.3628,-2.3571,-2.3616,-2.3482,-2.3671,-2.3584,-2.3522,-2.3531,-2.3343,-2.3382,-2.3387,-2.3491,-2.3553,-2.345,-0.9296,-0.1261,1.1106,1.705,2.1482,2.7742,2.6952,2.1445,2.416,1.6211,0.0,0.0,0.0,0.0,-0.462,0.0,-0.3254,-0.4749,-0.8196,-1.3545,-1.635,-1.7488,-1.7286,-1.7226,-1.7914,-1.9415,-2.1363,-2.2429,-2.2778,-2.276,-2.2683,-2.2604,-2.2508,-2.2627,-2.2963,-2.2798,-2.3021,-2.3642,-2.4037,-2.3975,-2.3592,-2.3712,-2.3876,-2.4115,-2.4718,-2.4749,-2.412,-2.4858,-2.4946,-2.4354,-2.5142,-2.5566,-2.5492,-2.537,-2.5313,-2.536,-2.589,-2.6173,-2.6333,-2.6809,-2.7021,-2.695,-2.686,-2.6632,-2.627,-2.5871,-2.5448,-2.5281,-2.6691,-2.7542,-2.7209,-2.7023,-2.6637,-2.5673,-2.5532,-2.5463,-2.5441,-2.5525,-2.5814,-2.6248,-2.5853,-2.5864,-2.6302,-2.6169,-2.6042,-2.6116,-2.6061,-2.5968,-2.5923,-2.5407,-2.5132,-2.5208,-2.4801,-2.445,-2.4524,-2.4487,-2.4321,-2.434,-2.4358,-2.4227,-2.419,-2.419,-2.419,-2.417,-2.4056,-2.3958,-2.3876,-2.3834,-2.3828,-2.3889,-2.3873,-2.3894,-2.3969,-2.391,-2.3732,0.465,1.2192,2.3354,2.5377,2.0991,2.7571,2.8001,2.5234,2.8945,2.3379,1.2476,0.0,0.2618,0.0,0.0,0.0,0.0,0.0,-0.4706,-1.2204,-1.5195,-1.6489,-1.6492,-1.6534,-1.7206,-1.842,-1.9611,-2.0931,-2.2246,-2.1939,-2.1924,-2.2237,-2.2327,-2.2377,-2.2537,-2.2563,-2.2865,-2.3468,-2.3705,-2.3723,-2.3656,-2.395,-2.4164,-2.4232,-2.4892,-2.5024,-2.462,-2.5101,-2.5062,-2.4603,-2.5166,-2.5572,-2.5574,-2.597,-2.6005,-2.5659,-2.6379,-2.702,-2.6998,-2.7631,-2.8113,-2.7999,-2.7975,-2.7755,-2.7456,-2.7288,-2.721,-2.6684,-2.7886,-2.8866,-2.8774,-2.8442,-2.8067,-2.7791,-2.712,-2.7064,-2.7119,-2.6834,-2.7059,-2.7456,-2.7233,-2.721,-2.7549,-2.7422,-2.7339,-2.7284,-2.7154,-2.7063,-2.6934,-2.6507,-2.6245,-2.6035,-2.5813,-2.5456,-2.5096,-2.4808,-2.4466,-2.4505,-2.458,-2.4358,-2.419,-2.419,-2.419,-2.419,-2.4133,-2.4113,-2.4016,-2.4074,-2.4092,-2.419,-2.419,-2.4169,-2.411,-2.413,-2.4036,2.3315,2.3592,2.3754,2.5648,2.7513,2.8541,2.925,3.043,3.0801,3.0082,2.6786,1.767,0.9213,0.3032,0.0,0.0,0.0,0.0,-0.4534,-1.1829,-1.494,-1.5506,-1.6393,-1.6492,-1.7089,-1.7874,-1.7157,-1.8461,-2.1122,-2.0828,-2.1272,-2.2182,-2.2173,-2.2254,-2.2304,-2.231,-2.2651,-2.3153,-2.3225,-2.3225,-2.3369,-2.4192,-2.4478,-2.4007,-2.4797,-2.5255,-2.5216,-2.5313,-2.5089,-2.462,-2.5273,-2.5644,-2.5879,-2.7065,-2.7073,-2.5678,-2.6986,-2.7717,-2.803,-2.853,-2.9131,-2.9593,-2.9491,-2.9412,-2.8678,-2.8844,-2.8723,-2.7759,-2.8935,-2.9988,-3.0102,-2.9883,-2.9612,-2.9502,-2.8414,-2.7999,-2.8388,-2.7937,-2.8204,-2.9011,-2.8458,-2.7736,-2.8563,-2.8101,-2.782,-2.7729,-2.7733,-2.777,-2.7662,-2.7493,-2.7013,-2.6843,-2.6792,-2.6469,-2.6072,-2.5791,-2.5489,-2.5456,-2.5239,-2.4633,-2.4487,-2.4487,-2.4413,-2.4376,-2.4413,-2.4357,-2.4228,-2.4247,-2.4228,-2.419,-2.419,-2.419,-2.419,-2.4209,-2.4246,2.3609,2.3715,2.4908,2.6269,2.7688,2.8515,2.9667,3.084,3.0918,3.0909,2.9583,2.6269,2.0915,1.6327,0.0,0.0,0.0,0.0,-0.0791,-0.4512,-0.8816,-1.2856,-1.5829,-1.6464,-1.6296,-1.6028,-1.5642,-1.6137,-1.7968,-1.8848,-2.0112,-2.2198,-2.1373,-2.1516,-2.2163,-2.2163,-2.2624,-2.3087,-2.3038,-2.3276,-2.3816,-2.4155,-2.4468,-2.4625,-2.501,-2.5274,-2.5284,-2.537,-2.5401,-2.5302,-2.5508,-2.5664,-2.5801,-2.7207,-2.7395,-2.6255,-2.7545,-2.8527,-2.831,-2.9178,-2.9941,-2.9975,-2.9969,-2.9766,-2.9448,-2.9671,-2.9582,-2.9246,-2.9898,-3.0375,-3.0471,-3.0368,-3.0259,-3.015,-2.9429,-2.9115,-2.9399,-2.9358,-2.9415,-2.9975,-2.9556,-2.9479,-2.9568,-2.9608,-2.9417,-2.9404,-2.926,-2.9127,-2.8903,-2.8529,-2.8078,-2.7903,-2.7774,-2.7428,-2.7091,-2.6813,-2.6619,-2.6585,-2.6032,-2.5032,-2.5038,-2.5132,-2.4976,-2.4858,-2.5072,-2.5095,-2.4634,-2.4358,-2.4284,-2.4266,-2.4266,-2.4303,-2.4247,-2.4227,-2.4301,2.4011,2.4685,2.5475,2.6672,2.8046,2.8821,2.9788,3.0762,3.0918,3.0915,3.0481,2.8824,2.6365,2.2315,0.0,0.0,0.0,0.0,0.0,0.0,-0.3451,-0.6476,-0.9852,-1.3227,-1.635,-1.6059,-1.4843,-1.5303,-1.6475,-1.7374,-1.8299,-1.8877,-1.9371,-1.9906,-2.0527,-2.0735,-2.1108,-2.1787,-2.2388,-2.2998,-2.3,-2.3608,-2.4025,-2.4388,-2.4782,-2.5069,-2.5283,-2.5707,-2.5851,-2.5648,-2.5644,-2.582,-2.6269,-2.75,-2.7734,-2.6722,-2.8586,-2.9347,-2.8871,-2.9687,-3.0266,-3.0209,-3.0163,-3.0109,-3.0032,-3.0109,-3.0092,-3.0062,-3.0343,-3.0543,-3.0656,-3.0604,-3.0537,-3.0432,-3.0251,-3.0128,-3.0221,-3.0042,-3.0128,-3.0305,-3.0337,-3.0247,-3.0436,-3.0467,-3.0487,-3.0405,-3.0158,-3.0113,-3.003,-2.9574,-2.9127,-2.8845,-2.8853,-2.867,-2.8479,-2.8254,-2.7979,-2.7894,-2.6792,-2.5754,-2.5517,-2.563,-2.5333,-2.5242,-2.5606,-2.5618,-2.497,-2.4526,-2.4489,-2.4472,-2.4425,-2.4445,-2.4446,-2.4375,-2.445,2.4716,2.604,2.5713,2.6957,2.8886,2.9119,2.98,3.0762,3.0918,3.091,3.04,2.8353,2.5993,2.3173,1.6093,0.0,0.0,0.0,0.0,0.1601,0.0,0.0,-0.2641,-0.9323,-1.2922,-1.3704,-1.3364,-1.3979,-1.5029,-1.6207,-1.576,-1.5777,-1.6705,-1.7852,-1.8804,-1.8768,-1.909,-2.0269,-2.1716,-2.2182,-2.2116,-2.2923,-2.378,-2.4154,-2.4901,-2.5367,-2.5803,-2.6322,-2.6571,-2.5846,-2.5837,-2.6289,-2.7051,-2.791,-2.8379,-2.8476,-2.9427,-3.0027,-2.949,-2.9898,-3.0417,-3.0386,-3.0405,-3.0398,-3.0374,-3.0393,-3.0374,-3.0316,-3.0475,-3.0617,-3.0756,-3.0707,-3.0608,-3.0568,-3.0563,-3.056,-3.0518,-3.0452,-3.0444,-3.0506,-3.0494,-3.0506,-3.0521,-3.0571,-3.0609,-3.0556,-3.0467,-3.0439,-3.0406,-3.0164,-2.9762,-2.9473,-2.9651,-2.9982,-2.9848,-2.9752,-2.9471,-2.914,-2.7666,-2.6591,-2.6072,-2.5923,-2.5565,-2.5485,-2.5749,-2.5584,-2.5007,-2.4747,-2.47,-2.4674,-2.462,-2.4719,-2.4817,-2.4673,-2.4663,2.5791,2.6154,2.6682,2.7755,2.8977,2.9138,2.98,3.0879,3.0918,3.0918,3.0353,2.8364,2.5918,2.346,2.0749,1.3593,0.2392,0.0,0.0,1.0797,0.3072,0.0,-0.0124,0.0,0.0,0.0,0.0,-0.6797,-1.1757,-1.359,-1.4035,-1.376,-1.5283,-1.7103,-1.8163,-1.8233,-1.8948,-1.9891,-2.0879,-2.1493,-2.2022,-2.3146,-2.4123,-2.452,-2.5614,-2.6511,-2.6995,-2.742,-2.7565,-2.7421,-2.722,-2.7199,-2.7617,-2.9062,-2.9629,-2.9414,-2.9941,-3.0277,-2.9728,-3.0098,-3.0544,-3.0491,-3.0518,-3.0544,-3.0506,-3.0518,-3.0498,-3.0467,-3.0556,-3.0673,-3.0762,-3.0723,-3.0676,-3.0639,-3.063,-3.0643,-3.0634,-3.0597,-3.0576,-3.0567,-3.0587,-3.0584,-3.0587,-3.0637,-3.066,-3.0625,-3.0605,-3.0586,-3.0579,-3.0565,-3.0323,-2.995,-3.0094,-3.0316,-3.0286,-3.0216,-3.0102,-2.9775,-2.8525,-2.7621,-2.7094,-2.6484,-2.6199,-2.5968,-2.5874,-2.5532,-2.5126,-2.4896,-2.4836,-2.4828,-2.4814,-2.4874,-2.4921,-2.4861,-2.5064,2.7941,2.7315,2.7888,2.8842,2.9848,2.997,3.0295,3.082,3.0918,3.0918,3.0391,2.8347,2.5923,2.367,2.3343,1.8215,1.2966,1.1031,1.2375,1.4247,0.9285,0.6207,0.2839,0.0,0.0,0.0,0.0,0.0,-0.6374,-0.9677,-1.1559,-1.2861,-1.4114,-1.5182,-1.6565,-1.7011,-1.7609,-1.8843,-2.0307,-2.1242,-2.1778,-2.3371,-2.4672,-2.5198,-2.6207,-2.6989,-2.7431,-2.8033,-2.8349,-2.8506,-2.8637,-2.8509,-2.8382,-2.9659,-3.0279,-3.0234,-3.0293,-3.0508,-3.0247,-3.0347,-3.0567,-3.0558,-3.0576,-3.0567,-3.0559,-3.0577,-3.0568,-3.0521,-3.0609,-3.0703,-3.0781,-3.0781,-3.0762,-3.0757,-3.074,-3.0746,-3.0771,-3.0679,-3.0617,-3.0637,-3.0665,-3.0645,-3.0674,-3.0728,-3.0781,-3.0762,-3.0684,-3.0664,-3.0625,-3.0613,-3.0599,-3.0427,-3.0496,-3.0557,-3.0539,-3.0501,-3.046,-3.0063,-2.9321,-2.8717,-2.8307,-2.7607,-2.6937,-2.665,-2.6294,-2.5803,-2.542,-2.5201,-2.5019,-2.5049,-2.5061,-2.5056,-2.5082,-2.5156,-2.5497,2.9753,2.8888,2.9228,2.997,3.082,3.0879,3.0859,3.0898,3.0918,3.0918,3.0449,2.8366,2.5928,2.403,2.3581,2.3564,2.2911,2.2293,1.999,1.5851,1.5451,1.2353,0.888,0.0,0.0,0.0,0.0,0.0,0.0,-0.4317,-0.8074,-1.137,-1.2997,-1.4068,-1.484,-1.5387,-1.635,-1.7478,-1.9586,-2.0926,-2.1463,-2.3189,-2.4778,-2.6157,-2.6684,-2.7363,-2.7961,-2.8563,-2.9031,-2.9248,-2.9951,-2.9843,-2.9693,-2.9977,-3.0625,-3.0762,-3.0625,-3.0566,-3.0527,-3.0599,-3.0638,-3.0614,-3.0661,-3.0618,-3.0606,-3.0599,-3.0633,-3.0688,-3.0737,-3.0781,-3.0879,-3.0879,-3.0898,-3.0898,-3.0902,-3.0918,-3.0873,-3.0736,-3.0696,-3.0706,-3.074,-3.0769,-3.0769,-3.0801,-3.0859,-3.0898,-3.0801,-3.0742,-3.0703,-3.0703,-3.0703,-3.0703,-3.0716,-3.0716,-3.0706,-3.0639,-3.0607,-3.0376,-2.9814,-2.9533,-2.9166,-2.8296,-2.7517,-2.7054,-2.664,-2.6187,-2.5764,-2.5433,-2.5337,-2.5341,-2.5321,-2.5316,-2.5376,-2.5476,-2.5956,2.8907,3.0504,3.0571,3.0723,3.0879,3.0918,3.0918,3.0918,3.0918,3.0918,3.0566,2.8362,2.5996,2.4116,2.3574,2.3489,2.2006,2.2201,2.162,1.8471,1.8295,1.6571,1.3912,1.1864,1.1684,1.0283,0.567,0.0,0.0,-0.1183,-0.4368,-0.8318,-1.2091,-1.4092,-1.4892,-1.5679,-1.5992,-1.6734,-1.8728,-2.0005,-2.1152,-2.308,-2.5213,-2.6988,-2.7474,-2.8155,-2.8841,-2.9307,-2.9637,-2.9837,-2.9985,-3.0068,-3.01,-3.0367,-3.0491,-3.0527,-3.0568,-3.0599,-3.0618,-3.0655,-3.0643,-3.0659,-3.073,-3.0726,-3.0644,-3.065,-3.0696,-3.0801,-3.084,-3.0879,-3.0898,-3.0898,-3.0898,-3.0898,-3.0879,-3.0892,-3.0866,-3.0832,-3.0799,-3.0781,-3.0814,-3.0859,-3.0859,-3.0859,-3.0879,-3.0918,-3.0879,-3.084,-3.082,-3.084,-3.084,-3.084,-3.0856,-3.0856,-3.0856,-3.0753,-3.069,-3.0592,-3.0224,-3.0048,-2.955,-2.8714,-2.8077,-2.7981,-2.7364,-2.6717,-2.6274,-2.5909,-2.5783,-2.5928,-2.5774,-2.563,-2.6024,-2.6409,-2.6718,2.9837,3.0897,3.0928,3.0917,3.0912,3.0918,3.0918,3.0918,3.0918,3.0918,3.0333,2.8755,2.6312,2.4232,2.3612,1.978,1.4568,2.095,2.1956,2.1166,2.0611,1.9608,1.7312,1.6202,1.5484,1.4114,1.0025,0.4578,0.0,0.0,0.0,-0.4676,-1.0616,-1.4687,-1.4827,-1.5151,-1.5827,-1.6553,-1.7983,-1.9707,-2.1325,-2.3831,-2.5982,-2.6737,-2.7736,-2.8466,-2.9242,-2.9483,-2.9625,-2.9777,-2.9845,-3.006,-3.0261,-3.0308,-3.0292,-3.039,-3.0501,-3.0576,-3.0615,-3.0639,-3.0617,-3.0609,-3.071,-3.069,-3.0637,-3.0632,-3.0696,-3.082,-3.0898,-3.0918,-3.0918,-3.0898,-3.0806,-3.0787,-3.0754,-3.0746,-3.0749,-3.0749,-3.0749,-3.0774,-3.0818,-3.0859,-3.0898,-3.0898,-3.0918,-3.0918,-3.0918,-3.0937,-3.0937,-3.0918,-3.0918,-3.0918,-3.0898,-3.0898,-3.0898,-3.084,-3.0781,-3.0684,-3.0586,-3.0391,-3.0212,-2.9528,-2.9422,-2.9447,-2.8614,-2.7575,-2.7266,-2.7054,-2.6794,-2.6582,-2.6697,-2.6851,-2.7082,-2.7381,-2.7642,2.849,2.4981,2.9243,2.9728,2.7975,2.7759,2.8984,3.0614,3.0918,3.0922,3.0441,2.7226,2.4648,2.2898,1.8656,1.1831,0.1446,1.5225,2.0779,2.3128,2.2396,2.1165,1.9196,1.7838,1.6492,1.5318,1.5074,1.1403,0.5156,0.0,0.0,0.0,-0.9788,-1.438,-1.4279,-1.5103,-1.5722,-1.6245,-1.7705,-1.9584,-2.2527,-2.492,-2.6503,-2.6517,-2.7417,-2.8345,-2.9195,-2.9314,-2.9434,-2.957,-2.9681,-2.9793,-3.0126,-3.0051,-3.0085,-3.0363,-3.0444,-3.0494,-3.0537,-3.0587,-3.0578,-3.0559,-3.078,-3.0858,-3.077,-3.081,-3.0724,-3.104,-3.1348,-3.1523,-3.1582,-3.1172,-3.1023,-3.0942,-3.0826,-3.0613,-3.0632,-3.0651,-3.0651,-3.0703,-3.0774,-3.0859,-3.0898,-3.1582,-3.1719,-3.1074,-3.1055,-3.1055,-3.1035,-3.0937,-3.0918,-3.0918,-3.0918,-3.0918,-3.0918,-3.0918,-3.0859,-3.084,-3.0762,-3.0644,-3.0644,-3.049,-3.0451,-3.0263,-2.9744,-2.8813,-2.8526,-2.8065,-2.7582,-2.7418,-2.7755,-2.7967,-2.8044,-2.8179,-2.8401,2.0236,0.5483,2.3275,2.5681,1.7838,1.7194,2.2463,2.9473,3.0158,3.0915,3.0364,2.2219,2.0543,1.8835,0.8707,0.2593,0.4276,0.9838,1.8221,2.2729,2.334,2.2114,2.0149,2.0737,1.8585,1.6899,1.6949,1.6032,1.0901,0.4041,0.0,0.0,-0.6537,-1.0465,-1.4163,-1.5138,-1.5581,-1.5235,-1.7191,-2.0233,-2.3362,-2.4799,-2.6125,-2.7165,-2.7814,-2.8291,-2.8978,-2.9108,-2.9203,-2.9412,-2.9434,-2.9551,-2.9736,-2.977,-2.9997,-3.0257,-3.0407,-3.0417,-3.0436,-3.0487,-3.0633,-3.0779,-3.1221,-3.1592,-3.1546,-3.1137,-3.1268,-3.2659,-3.2846,-3.2752,-3.2563,-3.2124,-3.1881,-3.1553,-3.1268,-3.0953,-3.0788,-3.1246,-3.1178,-3.0829,-3.0995,-3.093,-3.0918,-3.1836,-3.2519,-3.1758,-3.1211,-3.1289,-3.1367,-3.1426,-3.1211,-3.125,-3.1191,-3.1191,-3.0918,-3.0918,-3.0918,-3.0918,-3.0879,-3.084,-3.082,-3.0808,-3.0853,-3.0587,-3.0176,-2.9863,-2.9433,-2.8887,-2.8279,-2.8245,-2.8563,-2.8736,-2.8871,-2.9006,-2.9159,2.0311,1.7301,1.4568,1.0894,0.6929,0.6685,0.9083,1.5179,2.5916,3.0904,3.0295,2.6601,1.9739,1.0753,0.2029,0.554,1.1556,1.3738,1.731,2.2684,2.4115,2.3609,2.2218,2.1704,2.0337,2.0002,1.8431,1.6795,1.333,0.7908,0.1206,-0.7857,-0.8149,-1.0347,-1.3935,-1.4918,-1.5342,-1.6357,-1.8682,-2.0975,-2.2629,-2.4567,-2.6241,-2.6908,-2.7548,-2.8264,-2.8791,-2.8998,-2.9062,-2.9178,-2.9178,-2.9203,-2.9314,-2.9416,-2.9608,-2.9568,-2.9969,-3.0209,-3.0386,-3.0436,-3.0698,-3.1121,-3.1609,-3.191,-3.2167,-3.2173,-3.2033,-3.2865,-3.3952,-3.4058,-3.3411,-3.2812,-3.2604,-3.2331,-3.1987,-3.1872,-3.1737,-3.1872,-3.1992,-3.1571,-3.1232,-3.1358,-3.1603,-3.2463,-3.3061,-3.2578,-3.2266,-3.2383,-3.248,-3.2578,-3.2226,-3.1758,-3.166,-3.1543,-3.1152,-3.0918,-3.0937,-3.0937,-3.0918,-3.0879,-3.0898,-3.0901,-3.0918,-3.0918,-3.0644,-3.0391,-3.0156,-2.9858,-2.9361,-2.9321,-2.936,-2.9486,-2.9583,-2.9756,-2.989,2.0857,2.1946,1.1859,0.49,0.0,0.0,0.0,0.2763,2.2214,3.0902,2.918,2.4728,1.3091,0.0,0.0,0.5335,1.6166,1.7888,2.0827,2.3739,2.4955,2.4816,2.379,2.2923,2.264,2.354,2.027,1.779,1.4874,1.0184,0.1425,-1.4439,-1.1623,-1.1902,-1.3787,-1.4974,-1.5303,-1.6878,-1.9343,-2.1361,-2.2843,-2.4564,-2.5758,-2.6572,-2.7352,-2.8174,-2.8737,-2.8952,-2.9017,-2.9017,-2.9021,-2.9044,-2.9071,-2.9185,-2.9595,-2.9812,-3.0292,-3.0643,-3.0879,-3.1053,-3.1129,-3.1564,-3.2314,-3.2891,-3.3526,-3.3557,-3.3596,-3.3826,-3.4584,-3.4641,-3.4063,-3.357,-3.3314,-3.3192,-3.2968,-3.2949,-3.291,-3.2814,-3.266,-3.2301,-3.2116,-3.2327,-3.2678,-3.332,-3.3525,-3.3256,-3.3281,-3.3445,-3.3457,-3.3457,-3.3086,-3.2519,-3.2441,-3.209,-3.1289,-3.0996,-3.0996,-3.1035,-3.1035,-3.0957,-3.0976,-3.0937,-3.0918,-3.0918,-3.0918,-3.0801,-3.0527,-3.0527,-3.0494,-3.0172,-2.9987,-3.0148,-3.0283,-3.0398,-3.0398,1.8836,0.3551,2.0753,1.6361,0.0,0.0,0.0,0.0,2.1147,2.8705,2.5329,0.0,0.0,0.0,0.0,0.0,0.0,0.0,2.4315,2.5806,2.6099,2.5738,2.5064,2.4403,2.3584,2.3307,2.1411,1.8756,1.4392,0.8422,-0.0975,-1.2282,-1.3638,-1.4104,-1.468,-1.5377,-1.6105,-1.7437,-1.9146,-2.2144,-2.3815,-2.5037,-2.4987,-2.6911,-2.7661,-2.8083,-2.8424,-2.8785,-2.8975,-2.8975,-2.8975,-2.8975,-2.8998,-2.9191,-2.9717,-3.0586,-3.0828,-3.1254,-3.1651,-3.1717,-3.1705,-3.2141,-3.3006,-3.4141,-3.4757,-3.5141,-3.5243,-3.5032,-3.532,-3.5359,-3.4974,-3.4699,-3.4186,-3.4032,-3.3853,-3.3641,-3.3545,-3.341,-3.3237,-3.2968,-3.3051,-3.3371,-3.3621,-3.4216,-3.4243,-3.4,-3.4103,-3.426,-3.3986,-3.3906,-3.3691,-3.3359,-3.332,-3.2734,-3.1465,-3.1348,-3.1816,-3.166,-3.1445,-3.125,-3.1094,-3.1035,-3.0918,-3.0918,-3.0918,-3.0918,-3.0879,-3.0703,-3.0571,-3.0558,-3.0525,-3.0448,-3.0398,-3.0398,-3.0398,1.8778,0.1097,0.8777,0.7316,0.0,0.0,0.0,0.0,0.8437,1.1884,0.0,0.0,0.0,0.0,0.0,0.0,0.0,0.0,2.1733,2.6766,2.7739,2.7276,2.6818,2.6274,2.568,2.4147,2.2531,1.5463,0.5878,-0.0611,-0.6197,-1.3712,-1.5622,-1.5854,-1.5999,-1.6427,-1.7201,-1.7979,-1.9576,-2.2526,-2.4646,-2.5279,-2.5481,-2.774,-2.7805,-2.8073,-2.8422,-2.881,-2.8929,-2.9012,-2.9053,-2.9067,-2.914,-2.9434,-3.0323,-3.1343,-3.1488,-3.1803,-3.2185,-3.2374,-3.2648,-3.3391,-3.4295,-3.5122,-3.5507,-3.5507,-3.5507,-3.5468,-3.5507,-3.5507,-3.5391,-3.518,-3.4988,-3.4911,-3.4718,-3.441,-3.4257,-3.4141,-3.4054,-3.3878,-3.4232,-3.463,-3.4861,-3.5096,-3.4966,-3.4782,-3.4937,-3.4998,-3.4685,-3.4515,-3.4355,-3.4238,-3.418,-3.3926,-3.2754,-3.2695,-3.2832,-3.248,-3.207,-3.1816,-3.1621,-3.1016,-3.0937,-3.0918,-3.1055,-3.1191,-3.1133,-3.0781,-3.0639,-3.0644,-3.0564,-3.0467,-3.0417,-3.0398,-3.0398,1.3241,-0.0425,-0.7762,-0.6337,-0.1383,-0.7628,-0.6391,0.0,0.0,0.0,0.0,0.0,0.0,0.0,0.0,0.0,0.0,0.815,1.8324,2.5094,2.9691,2.9127,2.8565,2.8277,2.8062,2.6315,2.4112,1.7806,0.0847,-1.5409,-1.8287,-1.7196,-1.6845,-1.7645,-1.7232,-1.7942,-1.825,-1.8396,-2.0666,-2.3107,-2.525,-2.5764,-2.6449,-2.8374,-2.8627,-2.8841,-2.9206,-2.9584,-2.9672,-2.9659,-2.9604,-2.947,-2.9562,-2.9965,-3.1011,-3.1721,-3.2122,-3.2218,-3.2587,-3.2897,-3.3613,-3.4416,-3.4949,-3.5391,-3.5507,-3.5507,-3.5507,-3.5507,-3.5507,-3.5507,-3.5507,-3.5391,-3.5353,-3.5238,-3.5257,-3.5026,-3.5064,-3.5012,-3.4955,-3.4882,-3.5066,-3.4906,-3.5181,-3.5258,-3.5273,-3.5147,-3.5238,-3.5348,-3.5298,-3.5198,-3.5254,-3.5137,-3.5039,-3.4707,-3.4316,-3.4023,-3.3809,-3.3984,-3.3496,-3.2734,-3.2324,-3.1738,-3.1582,-3.1992,-3.2031,-3.1719,-3.1728,-3.1877,-3.134,-3.0725,-3.0671,-3.066,-3.0417,-3.0398,-3.0398,0.0,-0.2987,-2.4589,-2.12,-0.5584,-2.5083,-2.1461,0.0,0.0,0.0,0.0,0.0,0.0,0.0,0.0,0.0,0.0,0.0,1.0067,2.2848,2.9713,3.0037,3.0053,2.9706,3.0055,3.2013,2.9231,1.9359,-0.1204,-1.4003,-1.9739,-2.1756,-2.0731,-1.9997,-1.8275,-1.8704,-1.8566,-1.8328,-2.1561,-2.3886,-2.6008,-2.6828,-2.7584,-2.8827,-2.9393,-2.9594,-2.9893,-3.0306,-3.0378,-3.0296,-3.0613,-3.0325,-2.9673,-3.0729,-3.1916,-3.3154,-3.3,-3.3273,-3.3925,-3.3866,-3.4298,-3.5033,-3.5388,-3.5468,-3.5507,-3.5507,-3.5507,-3.5507,-3.5507,-3.5507,-3.5507,-3.5507,-3.5507,-3.5507,-3.5507,-3.5507,-3.5507,-3.5398,-3.5223,-3.5015,-3.4729,-3.4573,-3.4996,-3.5285,-3.5427,-3.5468,-3.5545,-3.5605,-3.5618,-3.5646,-3.564,-3.5625,-3.5488,-3.543,-3.5098,-3.4883,-3.4805,-3.5078,-3.4766,-3.3828,-3.3281,-3.291,-3.293,-3.3144,-3.291,-3.2519,-3.2849,-3.3238,-3.2392,-3.1545,-3.1044,-3.0871,-3.059,-3.0525,-3.0679,0.0,0.0,-2.5961,-3.1382,-2.4217,-2.3329,-2.2503,-2.1047,-1.4958,-0.7618,-0.2986,-0.7655,-1.7265,-1.7692,0.0,0.0,0.0,0.0,0.778,1.133,2.3891,3.0699,3.1201,3.0051,3.0505,3.195,3.0392,1.8289,-0.8086,-1.5136,-1.9028,-2.1375,-2.328,-2.1667,-2.0129,-1.9863,-1.9801,-1.9506,-2.199,-2.5091,-2.8475,-2.8144,-2.8092,-2.9668,-2.9868,-3.0042,-3.0344,-3.0819,-3.0867,-3.0954,-3.1349,-3.0929,-3.0638,-3.1662,-3.2383,-3.3052,-3.291,-3.3331,-3.3769,-3.3923,-3.4414,-3.4992,-3.5354,-3.5412,-3.5493,-3.5507,-3.5507,-3.546,-3.5412,-3.5412,-3.5507,-3.5493,-3.5493,-3.5507,-3.5507,-3.5507,-3.546,-3.527,-3.5086,-3.4851,-3.4586,-3.4659,-3.4971,-3.5324,-3.5518,-3.568,-3.5757,-3.5622,-3.5586,-3.5663,-3.5689,-3.5763,-3.5762,-3.5879,-3.582,-3.5469,-3.5351,-3.5527,-3.5215,-3.4512,-3.4121,-3.3945,-3.3711,-3.3652,-3.3496,-3.3364,-3.3654,-3.3735,-3.3114,-3.2443,-3.2225,-3.1987,-3.1872,-3.1621,-3.1345,0.0,0.0,-2.5973,-3.6025,-3.481,-2.7503,-2.8231,-3.1916,-2.5872,-1.8499,-1.478,-1.7554,-2.4078,-2.7561,-2.0902,-0.4287,0.0,0.0,0.2867,0.4782,1.6695,2.3084,2.5667,2.7538,2.6178,2.7993,2.8227,1.8251,-1.8701,-1.5805,-1.8696,-2.3766,-2.5195,-2.4506,-2.3109,-2.2477,-2.1634,-2.1771,-2.3826,-2.6886,-2.928,-2.987,-2.9307,-3.0121,-3.0503,-3.0575,-3.0935,-3.1146,-3.1308,-3.1647,-3.1773,-3.1562,-3.1836,-3.2198,-3.2846,-3.3239,-3.3237,-3.3376,-3.3306,-3.3736,-3.4097,-3.444,-3.4942,-3.5187,-3.5299,-3.5381,-3.5305,-3.5267,-3.5277,-3.5273,-3.5289,-3.5327,-3.5714,-3.5714,-3.5927,-3.5949,-3.6077,-3.5963,-3.5704,-3.5369,-3.509,-3.5116,-3.5053,-3.5308,-3.5608,-3.5795,-3.5968,-3.5782,-3.568,-3.5817,-3.5855,-3.5817,-3.5888,-3.5976,-3.6016,-3.5898,-3.5859,-3.5996,-3.5566,-3.5059,-3.5098,-3.4941,-3.4551,-3.4276,-3.4468,-3.4554,-3.4388,-3.4199,-3.4024,-3.3949,-3.3916,-3.3641,-3.3295,-3.275,-3.2172,0.0,-0.4584,-2.6258,-3.6011,-3.5842,-3.4741,-3.4672,-3.4004,-3.2093,-3.2187,-3.3997,-2.2239,-2.559,-3.4002,-3.4184,-2.2154,0.0,0.0,0.0,0.5627,1.0413,1.3309,1.5679,1.7667,1.6127,1.9081,1.6637,0.0246,-3.1266,-2.4953,-2.3404,-2.6707,-2.8039,-2.7461,-2.6462,-2.5469,-2.4194,-2.4128,-2.5712,-2.8435,-3.0412,-3.095,-3.065,-3.1019,-3.1165,-3.1498,-3.1878,-3.2225,-3.2361,-3.2664,-3.3013,-3.2516,-3.2401,-3.2601,-3.3584,-3.3997,-3.3634,-3.3243,-3.2933,-3.3393,-3.3789,-3.4152,-3.4587,-3.4698,-3.4868,-3.5116,-3.5116,-3.5097,-3.5097,-3.5002,-3.4945,-3.5552,-3.6158,-3.6384,-3.6704,-3.686,-3.7072,-3.6952,-3.6712,-3.6414,-3.6098,-3.5907,-3.5627,-3.5739,-3.6026,-3.6161,-3.632,-3.6224,-3.6169,-3.6323,-3.6272,-3.5907,-3.5989,-3.6039,-3.6055,-3.6016,-3.6016,-3.6016,-3.6016,-3.5664,-3.5781,-3.5762,-3.541,-3.5273,-3.5703,-3.5701,-3.5193,-3.5191,-3.5386,-3.5311,-3.4943,-3.4834,-3.4347,-3.3506,-3.2981,-2.5667,-2.6473,-3.3213,-3.6003,-3.5921,-3.538,-3.4168,-3.2478,-3.1323,-3.1481,-3.1757,-2.9207,-2.9311,-3.2136,-3.4494,-2.632,-2.0753,0.0,0.0,-0.7617,0.0893,0.3124,0.3169,0.191,0.1242,-0.1258,-0.7356,-1.6639,-3.0369,-2.8808,-2.6993,-2.912,-3.0314,-3.01,-2.9553,-2.907,-2.7349,-2.6406,-2.7936,-2.9572,-3.0806,-3.1281,-3.1263,-3.1336,-3.1346,-3.1694,-3.1986,-3.1897,-3.2036,-3.2563,-3.2373,-3.2177,-3.3352,-3.2876,-3.2889,-3.2634,-3.2806,-3.3068,-3.2983,-3.333,-3.3766,-3.4239,-3.4836,-3.4902,-3.4926,-3.48,-3.4894,-3.5039,-3.5359,-3.5475,-3.5622,-3.6104,-3.6592,-3.6911,-3.7192,-3.7393,-3.7558,-3.7418,-3.7168,-3.6969,-3.6681,-3.6661,-3.6369,-3.6345,-3.6622,-3.6699,-3.6743,-3.6762,-3.6741,-3.6945,-3.6707,-3.6317,-3.6289,-3.6406,-3.6113,-3.6016,-3.6016,-3.6016,-3.6016,-3.6016,-3.5957,-3.5918,-3.5996,-3.6016,-3.6016,-3.5918,-3.5676,-3.5758,-3.5797,-3.5712,-3.5391,-3.5463,-3.5309,-3.443,-3.3872,-3.6028,-3.6004,-3.6009,-3.5516,-3.4587,-3.3573,-3.2214,-3.095,-3.0626,-3.0757,-3.1263,-3.1087,-3.1164,-3.1478,-3.2851,-2.9459,-2.2251,-2.3491,-2.1003,-1.242,-0.8076,-0.6433,-0.8091,-0.9328,-0.7856,-1.3417,-2.116,-2.9077,-3.4691,-3.4617,-3.2758,-3.1939,-3.2617,-3.2031,-3.1634,-3.1617,-3.1106,-2.9805,-2.9642,-3.0725,-3.1364,-3.1561,-3.1365,-3.1512,-3.1427,-3.1428,-3.1642,-3.1355,-3.1534,-3.1952,-3.165,-3.1987,-3.3025,-3.2899,-3.2561,-3.2462,-3.2804,-3.3117,-3.3188,-3.3204,-3.3771,-3.4374,-3.4977,-3.4934,-3.4714,-3.4507,-3.4927,-3.5311,-3.5845,-3.6279,-3.6472,-3.6708,-3.705,-3.7417,-3.7611,-3.7804,-3.7765,-3.7697,-3.7519,-3.7336,-3.7291,-3.7354,-3.7319,-3.7258,-3.7411,-3.7834,-3.8046,-3.807,-3.7905,-3.7812,-3.7347,-3.6754,-3.6777,-3.6855,-3.6465,-3.6055,-3.6016,-3.6016,-3.6016,-3.6016,-3.6016,-3.6035,-3.6035,-3.6035,-3.6016,-3.5957,-3.5957,-3.5859,-3.5849,-3.574,-3.5676,-3.5655,-3.5565,-3.5218,-3.4834,-3.4089,-3.5968,-3.5739,-3.4417,-3.2598,-3.1416,-3.037,-2.9553,-3.0244,-3.1211,-3.1853,-3.1019,-3.0823,-3.1057,-3.1334,-2.8982,-2.5572,-2.6539,-2.4778,-1.5063,-1.429,-1.3476,-1.2741,-1.1948,-1.2199,-1.6402,-2.2957,-3.1571,-3.4975,-3.5391,-3.4902,-3.4902,-3.4707,-3.4023,-3.3202,-3.3995,-3.3611,-3.2726,-3.1764,-3.1879,-3.2608,-3.2359,-3.1619,-3.1968,-3.1726,-3.1351,-3.1456,-3.1333,-3.104,-3.1124,-3.1227,-3.139,-3.2121,-3.2718,-3.2577,-3.2734,-3.2904,-3.3237,-3.338,-3.3425,-3.3795,-3.4272,-3.4629,-3.5011,-3.5059,-3.4909,-3.5357,-3.5791,-3.6307,-3.673,-3.6989,-3.7387,-3.7766,-3.7979,-3.8137,-3.8276,-3.8331,-3.8257,-3.8155,-3.8032,-3.8196,-3.8266,-3.8309,-3.8252,-3.818,-3.8849,-3.9022,-3.9008,-3.8989,-3.8709,-3.8161,-3.7415,-3.7383,-3.7305,-3.6582,-3.623,-3.6055,-3.6016,-3.6094,-3.6016,-3.6016,-3.6035,-3.6074,-3.6406,-3.6777,-3.6348,-3.6211,-3.623,-3.6133,-3.5753,-3.5712,-3.572,-3.5641,-3.5545,-3.5488,-1.9456,-3.5555,-3.3685,-3.2446,-3.1967,-3.1491,-3.0506,-2.9496,-3.0074,-3.0342,-3.017,-2.9934,-2.984,-3.0125,-2.9488,-2.7763,-2.786,-2.7449,-2.7087,-2.3601,-2.1163,-1.9547,-1.9579,-1.8166,-1.6714,-1.7315,-2.2647,-3.0478,-3.4796,-3.5976,-3.5976,-3.5781,-3.5664,-3.5078,-3.4566,-3.5494,-3.54,-3.4636,-3.457,-3.3733,-3.3894,-3.3179,-3.2405,-3.2195,-3.1721,-3.1365,-3.123,-3.0811,-3.0558,-3.0517,-3.0522,-3.0927,-3.1612,-3.1863,-3.1847,-3.1887,-3.2681,-3.3123,-3.3456,-3.3674,-3.4228,-3.4968,-3.5511,-3.5827,-3.5952,-3.5787,-3.5887,-3.6272,-3.6754,-3.7179,-3.7544,-3.8021,-3.837,-3.8493,-3.8566,-3.87,-3.8815,-3.8759,-3.8685,-3.8858,-3.9045,-3.9164,-3.9185,-3.9214,-3.9154,-3.9176,-3.9234,-3.9296,-3.9527,-3.9422,-3.9113,-3.8501,-3.8154,-3.7851,-3.707,-3.6426,-3.6269,-3.6328,-3.6445,-3.6289,-3.6152,-3.6211,-3.6445,-3.7285,-3.7656,-3.6973,-3.6601,-3.6894,-3.668,-3.6035,-3.5784,-3.5822,-3.5849,-3.5776,-3.5795,-0.7755,-2.0534,-2.9168,-3.1908,-3.1141,-3.0482,-2.9988,-2.9886,-3.0168,-3.0259,-3.0074,-2.9673,-2.947,-2.963,-2.8916,-2.8639,-2.89,-2.8558,-2.8077,-2.7097,-2.6185,-2.4919,-2.4315,-2.4038,-2.2934,-2.2471,-2.5492,-3.0923,-3.5276,-3.5703,-3.5644,-3.6641,-3.6601,-3.5929,-3.5714,-3.6122,-3.6287,-3.5634,-3.6421,-3.6288,-3.534,-3.4237,-3.3236,-3.274,-3.2171,-3.1685,-3.095,-3.052,-3.0198,-3.016,-3.0188,-3.039,-3.0695,-3.0548,-3.0792,-3.129,-3.2008,-3.2611,-3.3046,-3.365,-3.438,-3.5076,-3.5722,-3.5745,-3.5822,-3.5717,-3.6309,-3.6804,-3.766,-3.815,-3.8114,-3.8469,-3.8542,-3.8628,-3.8646,-3.8713,-3.8732,-3.8713,-3.8799,-3.897,-3.9239,-3.9523,-3.9623,-3.9881,-3.9858,-3.9888,-3.9854,-3.9777,-4.0004,-4.0023,-3.9742,-3.9471,-3.9066,-3.8516,-3.7832,-3.709,-3.6484,-3.6601,-3.6992,-3.7285,-3.7422,-3.6934,-3.6914,-3.7754,-3.791,-3.707,-3.6894,-3.709,-3.6758,-3.6035,-3.5908,-3.5924,-3.5949,-3.597,-3.5936,0.3004,-0.2783,-2.0589,-2.9697,-3.0123,-2.831,-2.8497,-2.987,-3.0225,-3.0622,-3.0938,-2.9967,-2.9814,-2.9916,-3.0148,-2.9973,-2.973,-2.9399,-2.9013,-2.8871,-2.8236,-2.7871,-2.8084,-2.8338,-2.7119,-2.7296,-2.9372,-3.2355,-3.5956,-3.5762,-3.6172,-3.7754,-3.7285,-3.6126,-3.6311,-3.6714,-3.7131,-3.703,-3.7406,-3.7837,-3.6827,-3.5445,-3.4347,-3.3488,-3.284,-3.2152,-3.1384,-3.0655,-3.026,-3.0033,-3.0076,-2.9948,-2.9933,-2.9752,-3.0007,-3.0508,-3.0967,-3.1533,-3.2155,-3.2901,-3.3665,-3.4411,-3.5048,-3.5374,-3.538,-3.5874,-3.6444,-3.7143,-3.8026,-3.8464,-3.8441,-3.8541,-3.8559,-3.8707,-3.8707,-3.8707,-3.8707,-3.8689,-3.8865,-3.9072,-3.9395,-3.9716,-4.0063,-4.0334,-4.0419,-4.0489,-4.0489,-4.0489,-4.045,-4.0335,-4.0162,-3.9992,-3.9767,-3.918,-3.8555,-3.7949,-3.7226,-3.7734,-3.8223,-3.8555,-3.8555,-3.7676,-3.7461,-3.8223,-3.8105,-3.7207,-3.6875,-3.6953,-3.6504,-3.6035,-3.5976,-3.5976,-3.5989,-3.5978,-3.5996,1.7606,-0.0445,0.0,-1.5273,-2.7776,-2.5067,-2.5136,-2.8668,-2.9865,-3.066,-3.0882,-3.0579,-3.0202,-3.0134,-3.0735,-3.0861,-3.0728,-3.0376,-3.0707,-3.0867,-2.9867,-3.0219,-3.0577,-3.0355,-2.975,-3.0228,-3.1421,-3.3895,-3.5856,-3.5898,-3.6562,-3.8301,-3.7715,-3.7441,-3.8317,-3.8463,-3.818,-3.8138,-3.8063,-3.8336,-3.7576,-3.6282,-3.515,-3.4321,-3.3592,-3.3212,-3.2703,-3.1743,-3.1357,-3.0948,-3.0266,-2.9638,-2.9237,-2.904,-2.9121,-2.9402,-2.9871,-3.0411,-3.108,-3.1875,-3.2651,-3.3489,-3.4005,-3.4317,-3.469,-3.5445,-3.5949,-3.6487,-3.7193,-3.7667,-3.7772,-3.8047,-3.815,-3.8546,-3.8707,-3.8707,-3.8707,-3.8743,-3.8836,-3.9133,-3.943,-3.9825,-4.0267,-4.0422,-4.0454,-4.0489,-4.0489,-4.0489,-4.0489,-4.0489,-4.0489,-4.0392,-4.0258,-3.9902,-3.9316,-3.8887,-3.8437,-3.8965,-3.9375,-3.9648,-3.9277,-3.8047,-3.8066,-3.8828,-3.8281,-3.7305,-3.7109,-3.6875,-3.6523,-3.6152,-3.6055,-3.6016,-3.6016,-3.6016,-3.6016]}]]